<?xml version='1.0' encoding='UTF-8'?><gpx version="1.1" creator="JPX - https://github.com/jenetics/jpx" xmlns="http://www.topografix.com/GPX/1/1"><trk><trkseg><trkpt lat="45.750397" lon="7.4303134"><ele>938.0</ele><time>2026-04-15T13:08:32.745Z</time></trkpt><trkpt lat="45.750334" lon="7.4303157"><ele>938.0</ele><time>2026-04-15T13:08:34.744Z</time></trkpt><trkpt lat="45.7502422" lon="7.4302946"><ele>938.0</ele><time>2026-04-15T13:08:37.749Z</time></trkpt><trkpt lat="45.7503732" lon="7.4304581"><ele>938.0</ele><time>2026-04-15T13:09:06.747Z</time></trkpt><trkpt lat="45.7504952" lon="7.4304662"><ele>938.0</ele><time>2026-04-15T13:09:19.748Z</time></trkpt><trkpt lat="45.7504253" lon="7.4304146"><ele>938.0</ele><time>2026-04-15T13:09:33.68Z</time></trkpt><trkpt lat="45.7503401" lon="7.4303886"><ele>938.0</ele><time>2026-04-15T13:09:36.751Z</time></trkpt><trkpt lat="45.7502705" lon="7.4303597"><ele>938.0</ele><time>2026-04-15T13:09:38.599Z</time></trkpt><trkpt lat="45.7501846" lon="7.4302895"><ele>938.0</ele><time>2026-04-15T13:09:40.749Z</time></trkpt><trkpt lat="45.7502516" lon="7.4300921"><ele>938.0000000000001</ele><time>2026-04-15T13:09:41.757Z</time></trkpt><trkpt lat="45.7502934" lon="7.4299471"><ele>938.0</ele><time>2026-04-15T13:09:42.755Z</time></trkpt><trkpt lat="45.7502299" lon="7.4298996"><ele>938.0</ele><time>2026-04-15T13:09:44.756Z</time></trkpt><trkpt lat="45.7501929" lon="7.4297699"><ele>938.0</ele><time>2026-04-15T13:09:46.754Z</time></trkpt><trkpt lat="45.7501837" lon="7.4296481"><ele>938.0000000000001</ele><time>2026-04-15T13:09:49.752Z</time></trkpt><trkpt lat="45.7501915" lon="7.4295325"><ele>938.0</ele><time>2026-04-15T13:09:52.757Z</time></trkpt><trkpt lat="45.7502162" lon="7.4294064"><ele>938.8571428571429</ele><time>2026-04-15T13:09:55.754Z</time></trkpt><trkpt lat="45.7502514" lon="7.4292952"><ele>939.7142857142858</ele><time>2026-04-15T13:09:58.755Z</time></trkpt><trkpt lat="45.7502372" lon="7.429164"><ele>940.5714285714286</ele><time>2026-04-15T13:10:01.757Z</time></trkpt><trkpt lat="45.7501824" lon="7.4291034"><ele>941.4285714285714</ele><time>2026-04-15T13:10:03.756Z</time></trkpt><trkpt lat="45.7501255" lon="7.4290554"><ele>942.2857142857143</ele><time>2026-04-15T13:10:05.754Z</time></trkpt><trkpt lat="45.7500747" lon="7.4289962"><ele>943.1428571428571</ele><time>2026-04-15T13:10:07.754Z</time></trkpt><trkpt lat="45.750043" lon="7.4289093"><ele>944.0</ele><time>2026-04-15T13:10:09.762Z</time></trkpt><trkpt lat="45.7500268" lon="7.4288148"><ele>939.5000000000001</ele><time>2026-04-15T13:10:11.756Z</time></trkpt><trkpt lat="45.7500301" lon="7.4287195"><ele>935.0</ele><time>2026-04-15T13:10:13.756Z</time></trkpt><trkpt lat="45.7500553" lon="7.4286256"><ele>930.5</ele><time>2026-04-15T13:10:15.752Z</time></trkpt><trkpt lat="45.7500856" lon="7.4285355"><ele>926.0</ele><time>2026-04-15T13:10:17.757Z</time></trkpt><trkpt lat="45.7501135" lon="7.4284109"><ele>921.5000000000001</ele><time>2026-04-15T13:10:20.755Z</time></trkpt><trkpt lat="45.7501323" lon="7.428285"><ele>917.0</ele><time>2026-04-15T13:10:23.759Z</time></trkpt><trkpt lat="45.7501336" lon="7.4281661"><ele>917.0</ele><time>2026-04-15T13:10:26.768Z</time></trkpt><trkpt lat="45.7501481" lon="7.4280591"><ele>917.0</ele><time>2026-04-15T13:10:29.766Z</time></trkpt><trkpt lat="45.7501592" lon="7.427967"><ele>917.0</ele><time>2026-04-15T13:10:32.741Z</time></trkpt><trkpt lat="45.7502162" lon="7.4279117"><ele>917.0</ele><time>2026-04-15T13:10:35.773Z</time></trkpt><trkpt lat="45.7502753" lon="7.4279481"><ele>917.0</ele><time>2026-04-15T13:10:37.749Z</time></trkpt><trkpt lat="45.7502923" lon="7.428049"><ele>917.0</ele><time>2026-04-15T13:10:39.768Z</time></trkpt><trkpt lat="45.7503178" lon="7.4281664"><ele>917.0</ele><time>2026-04-15T13:10:42.76Z</time></trkpt><trkpt lat="45.7503534" lon="7.4282649"><ele>921.5000000000001</ele><time>2026-04-15T13:10:45.762Z</time></trkpt><trkpt lat="45.7503953" lon="7.4283703"><ele>926.0</ele><time>2026-04-15T13:10:48.766Z</time></trkpt><trkpt lat="45.7504163" lon="7.4284634"><ele>930.5</ele><time>2026-04-15T13:10:50.761Z</time></trkpt><trkpt lat="45.7504506" lon="7.4285782"><ele>935.0</ele><time>2026-04-15T13:10:53.669Z</time></trkpt><trkpt lat="45.75047" lon="7.4286714"><ele>939.5000000000001</ele><time>2026-04-15T13:10:55.767Z</time></trkpt><trkpt lat="45.7505077" lon="7.4287947"><ele>944.0</ele><time>2026-04-15T13:10:59.048Z</time></trkpt><trkpt lat="45.7505391" lon="7.428919"><ele>944.0</ele><time>2026-04-15T13:11:02.335Z</time></trkpt><trkpt lat="45.7505699" lon="7.4290248"><ele>944.0</ele><time>2026-04-15T13:11:05.53Z</time></trkpt><trkpt lat="45.7506105" lon="7.4291347"><ele>944.0</ele><time>2026-04-15T13:11:08.56Z</time></trkpt><trkpt lat="45.7506493" lon="7.4292058"><ele>944.0</ele><time>2026-04-15T13:11:10.917Z</time></trkpt><trkpt lat="45.7506854" lon="7.4292811"><ele>944.0</ele><time>2026-04-15T13:11:13.333Z</time></trkpt><trkpt lat="45.7507387" lon="7.4293831"><ele>944.0</ele><time>2026-04-15T13:11:16.349Z</time></trkpt><trkpt lat="45.7507773" lon="7.42946"><ele>944.0</ele><time>2026-04-15T13:11:18.449Z</time></trkpt><trkpt lat="45.7508233" lon="7.4295528"><ele>943.0000000000001</ele><time>2026-04-15T13:11:21.241Z</time></trkpt><trkpt lat="45.7508631" lon="7.4296541"><ele>942.0</ele><time>2026-04-15T13:11:24.225Z</time></trkpt><trkpt lat="45.7508858" lon="7.4297876"><ele>941.0</ele><time>2026-04-15T13:11:27.242Z</time></trkpt><trkpt lat="45.7508956" lon="7.4299207"><ele>940.0</ele><time>2026-04-15T13:11:30.237Z</time></trkpt><trkpt lat="45.7509086" lon="7.4300478"><ele>939.0000000000001</ele><time>2026-04-15T13:11:33.237Z</time></trkpt><trkpt lat="45.7509384" lon="7.4301568"><ele>938.0</ele><time>2026-04-15T13:11:36.235Z</time></trkpt><trkpt lat="45.7509673" lon="7.4302614"><ele>938.0000000000001</ele><time>2026-04-15T13:11:39.528Z</time></trkpt><trkpt lat="45.751001" lon="7.4303547"><ele>938.0</ele><time>2026-04-15T13:11:41.965Z</time></trkpt><trkpt lat="45.7510481" lon="7.4304708"><ele>938.0</ele><time>2026-04-15T13:11:45.045Z</time></trkpt><trkpt lat="45.7510584" lon="7.4306033"><ele>938.0</ele><time>2026-04-15T13:11:48.058Z</time></trkpt><trkpt lat="45.7510459" lon="7.4307213"><ele>938.0000000000001</ele><time>2026-04-15T13:11:51.055Z</time></trkpt><trkpt lat="45.7510372" lon="7.43085"><ele>938.0</ele><time>2026-04-15T13:11:54.056Z</time></trkpt><trkpt lat="45.7510237" lon="7.4309708"><ele>938.1666666666667</ele><time>2026-04-15T13:11:57.038Z</time></trkpt><trkpt lat="45.7510013" lon="7.4310866"><ele>938.3333333333334</ele><time>2026-04-15T13:11:59.959Z</time></trkpt><trkpt lat="45.7509765" lon="7.431201"><ele>938.5</ele><time>2026-04-15T13:12:02.964Z</time></trkpt><trkpt lat="45.7509543" lon="7.4313224"><ele>938.6666666666667</ele><time>2026-04-15T13:12:05.961Z</time></trkpt><trkpt lat="45.7509323" lon="7.4314408"><ele>938.8333333333334</ele><time>2026-04-15T13:12:09.02Z</time></trkpt><trkpt lat="45.750904" lon="7.4315465"><ele>939.0</ele><time>2026-04-15T13:12:11.965Z</time></trkpt><trkpt lat="45.7508792" lon="7.4316606"><ele>940.6666666666666</ele><time>2026-04-15T13:12:14.963Z</time></trkpt><trkpt lat="45.750857" lon="7.4317754"><ele>942.3333333333333</ele><time>2026-04-15T13:12:18.02Z</time></trkpt><trkpt lat="45.7508287" lon="7.4318844"><ele>944.0</ele><time>2026-04-15T13:12:20.961Z</time></trkpt><trkpt lat="45.7508101" lon="7.4319741"><ele>945.6666666666666</ele><time>2026-04-15T13:12:22.964Z</time></trkpt><trkpt lat="45.750792" lon="7.4320618"><ele>947.3333333333333</ele><time>2026-04-15T13:12:24.967Z</time></trkpt><trkpt lat="45.7507568" lon="7.4321721"><ele>949.0</ele><time>2026-04-15T13:12:27.963Z</time></trkpt><trkpt lat="45.7507346" lon="7.4322873"><ele>950.8333333333333</ele><time>2026-04-15T13:12:30.957Z</time></trkpt><trkpt lat="45.7507047" lon="7.4324069"><ele>952.6666666666666</ele><time>2026-04-15T13:12:33.961Z</time></trkpt><trkpt lat="45.7506744" lon="7.4325242"><ele>954.5</ele><time>2026-04-15T13:12:36.978Z</time></trkpt><trkpt lat="45.7506659" lon="7.4326472"><ele>956.3333333333333</ele><time>2026-04-15T13:12:39.956Z</time></trkpt><trkpt lat="45.7506665" lon="7.4327743"><ele>958.1666666666666</ele><time>2026-04-15T13:12:42.962Z</time></trkpt><trkpt lat="45.7506625" lon="7.432867"><ele>960.0</ele><time>2026-04-15T13:12:44.964Z</time></trkpt><trkpt lat="45.7506588" lon="7.4329962"><ele>961.8333333333334</ele><time>2026-04-15T13:12:47.946Z</time></trkpt><trkpt lat="45.7506534" lon="7.4331234"><ele>963.6666666666667</ele><time>2026-04-15T13:12:50.963Z</time></trkpt><trkpt lat="45.7506356" lon="7.4332535"><ele>965.5</ele><time>2026-04-15T13:12:53.955Z</time></trkpt><trkpt lat="45.7506057" lon="7.4333697"><ele>967.3333333333334</ele><time>2026-04-15T13:12:56.959Z</time></trkpt><trkpt lat="45.7505551" lon="7.4334777"><ele>969.1666666666667</ele><time>2026-04-15T13:12:59.967Z</time></trkpt><trkpt lat="45.7505051" lon="7.4335844"><ele>971.0</ele><time>2026-04-15T13:13:02.963Z</time></trkpt><trkpt lat="45.7504575" lon="7.4336881"><ele>971.0000000000001</ele><time>2026-04-15T13:13:06.023Z</time></trkpt><trkpt lat="45.7504209" lon="7.4337922"><ele>971.0</ele><time>2026-04-15T13:13:08.96Z</time></trkpt><trkpt lat="45.7503898" lon="7.433895"><ele>971.0</ele><time>2026-04-15T13:13:12.015Z</time></trkpt><trkpt lat="45.7503725" lon="7.4340069"><ele>971.0</ele><time>2026-04-15T13:13:14.966Z</time></trkpt><trkpt lat="45.7503651" lon="7.4341243"><ele>971.0000000000001</ele><time>2026-04-15T13:13:17.966Z</time></trkpt><trkpt lat="45.7503582" lon="7.4342415"><ele>971.0</ele><time>2026-04-15T13:13:20.955Z</time></trkpt><trkpt lat="45.750371" lon="7.4343714"><ele>972.7142857142858</ele><time>2026-04-15T13:13:23.955Z</time></trkpt><trkpt lat="45.7503835" lon="7.4344763"><ele>974.4285714285716</ele><time>2026-04-15T13:13:26.955Z</time></trkpt><trkpt lat="45.75039" lon="7.434574"><ele>976.1428571428571</ele><time>2026-04-15T13:13:29.954Z</time></trkpt><trkpt lat="45.7504078" lon="7.4346776"><ele>977.8571428571429</ele><time>2026-04-15T13:13:32.961Z</time></trkpt><trkpt lat="45.7504217" lon="7.4347914"><ele>979.5714285714286</ele><time>2026-04-15T13:13:35.956Z</time></trkpt><trkpt lat="45.7504192" lon="7.4348941"><ele>981.2857142857142</ele><time>2026-04-15T13:13:39.043Z</time></trkpt><trkpt lat="45.7504038" lon="7.4349953"><ele>982.9999999999999</ele><time>2026-04-15T13:13:41.96Z</time></trkpt><trkpt lat="45.7503814" lon="7.4350967"><ele>984.2857142857142</ele><time>2026-04-15T13:13:44.964Z</time></trkpt><trkpt lat="45.7503503" lon="7.4351899"><ele>985.5714285714286</ele><time>2026-04-15T13:13:47.966Z</time></trkpt><trkpt lat="45.7503199" lon="7.4352836"><ele>986.8571428571429</ele><time>2026-04-15T13:13:51.044Z</time></trkpt><trkpt lat="45.7502968" lon="7.4353758"><ele>988.1428571428571</ele><time>2026-04-15T13:13:53.957Z</time></trkpt><trkpt lat="45.7502719" lon="7.435474"><ele>989.4285714285716</ele><time>2026-04-15T13:13:56.959Z</time></trkpt><trkpt lat="45.7502454" lon="7.435571"><ele>990.7142857142858</ele><time>2026-04-15T13:13:59.958Z</time></trkpt><trkpt lat="45.7502198" lon="7.4356696"><ele>992.0</ele><time>2026-04-15T13:14:02.963Z</time></trkpt><trkpt lat="45.7501855" lon="7.4357663"><ele>990.0000000000001</ele><time>2026-04-15T13:14:05.959Z</time></trkpt><trkpt lat="45.7501582" lon="7.4358632"><ele>988.0</ele><time>2026-04-15T13:14:08.955Z</time></trkpt><trkpt lat="45.7501277" lon="7.4359587"><ele>986.0</ele><time>2026-04-15T13:14:12.039Z</time></trkpt><trkpt lat="45.7500975" lon="7.4360611"><ele>984.0</ele><time>2026-04-15T13:14:14.968Z</time></trkpt><trkpt lat="45.7500692" lon="7.4361659"><ele>982.0000000000001</ele><time>2026-04-15T13:14:17.969Z</time></trkpt><trkpt lat="45.7500524" lon="7.4362668"><ele>980.0</ele><time>2026-04-15T13:14:20.972Z</time></trkpt><trkpt lat="45.7500445" lon="7.4363737"><ele>980.0</ele><time>2026-04-15T13:14:23.97Z</time></trkpt><trkpt lat="45.7500274" lon="7.4364767"><ele>980.0</ele><time>2026-04-15T13:14:26.975Z</time></trkpt><trkpt lat="45.7499925" lon="7.4365698"><ele>980.0</ele><time>2026-04-15T13:14:29.971Z</time></trkpt><trkpt lat="45.7499418" lon="7.436649"><ele>980.0</ele><time>2026-04-15T13:14:33.032Z</time></trkpt><trkpt lat="45.749898" lon="7.4367339"><ele>980.0</ele><time>2026-04-15T13:14:35.972Z</time></trkpt><trkpt lat="45.7498797" lon="7.4368407"><ele>980.0</ele><time>2026-04-15T13:14:38.965Z</time></trkpt><trkpt lat="45.7498696" lon="7.4369458"><ele>980.0</ele><time>2026-04-15T13:14:42.034Z</time></trkpt><trkpt lat="45.749857" lon="7.4370485"><ele>982.0000000000001</ele><time>2026-04-15T13:14:44.958Z</time></trkpt><trkpt lat="45.7498554" lon="7.4371558"><ele>984.0</ele><time>2026-04-15T13:14:47.958Z</time></trkpt><trkpt lat="45.7498441" lon="7.4372674"><ele>986.0</ele><time>2026-04-15T13:14:51.038Z</time></trkpt><trkpt lat="45.7498224" lon="7.4373684"><ele>988.0</ele><time>2026-04-15T13:14:53.957Z</time></trkpt><trkpt lat="45.7497969" lon="7.4374701"><ele>990.0000000000001</ele><time>2026-04-15T13:14:56.967Z</time></trkpt><trkpt lat="45.7497576" lon="7.4375635"><ele>992.0</ele><time>2026-04-15T13:14:59.956Z</time></trkpt><trkpt lat="45.7497164" lon="7.437656"><ele>992.0</ele><time>2026-04-15T13:15:02.961Z</time></trkpt><trkpt lat="45.7496743" lon="7.4377498"><ele>992.0000000000001</ele><time>2026-04-15T13:15:05.96Z</time></trkpt><trkpt lat="45.7496365" lon="7.4378464"><ele>992.0</ele><time>2026-04-15T13:15:08.967Z</time></trkpt><trkpt lat="45.7496108" lon="7.4379342"><ele>992.0</ele><time>2026-04-15T13:15:12.026Z</time></trkpt><trkpt lat="45.7495951" lon="7.4380277"><ele>992.0000000000001</ele><time>2026-04-15T13:15:14.952Z</time></trkpt><trkpt lat="45.7495789" lon="7.4381195"><ele>992.0</ele><time>2026-04-15T13:15:17.966Z</time></trkpt><trkpt lat="45.7495618" lon="7.4382113"><ele>992.0</ele><time>2026-04-15T13:15:20.962Z</time></trkpt><trkpt lat="45.7495397" lon="7.4383022"><ele>991.6666666666667</ele><time>2026-04-15T13:15:23.963Z</time></trkpt><trkpt lat="45.7495098" lon="7.4383969"><ele>991.3333333333334</ele><time>2026-04-15T13:15:26.957Z</time></trkpt><trkpt lat="45.7494826" lon="7.4384895"><ele>991.0</ele><time>2026-04-15T13:15:29.957Z</time></trkpt><trkpt lat="45.7494481" lon="7.4385922"><ele>990.6666666666667</ele><time>2026-04-15T13:15:33.037Z</time></trkpt><trkpt lat="45.7494144" lon="7.4386981"><ele>990.3333333333334</ele><time>2026-04-15T13:15:35.967Z</time></trkpt><trkpt lat="45.7493844" lon="7.4387937"><ele>990.0</ele><time>2026-04-15T13:15:38.966Z</time></trkpt><trkpt lat="45.7493595" lon="7.4388987"><ele>989.9999999999999</ele><time>2026-04-15T13:15:41.961Z</time></trkpt><trkpt lat="45.7493309" lon="7.4389938"><ele>990.0</ele><time>2026-04-15T13:15:44.961Z</time></trkpt><trkpt lat="45.7493067" lon="7.4390915"><ele>989.9999999999999</ele><time>2026-04-15T13:15:47.964Z</time></trkpt><trkpt lat="45.7492816" lon="7.4391959"><ele>989.9999999999999</ele><time>2026-04-15T13:15:50.961Z</time></trkpt><trkpt lat="45.7492621" lon="7.4392983"><ele>990.0</ele><time>2026-04-15T13:15:54.028Z</time></trkpt><trkpt lat="45.7492473" lon="7.4394046"><ele>989.9999999999999</ele><time>2026-04-15T13:15:56.963Z</time></trkpt><trkpt lat="45.7492323" lon="7.4395137"><ele>989.9999999999999</ele><time>2026-04-15T13:16:00.012Z</time></trkpt><trkpt lat="45.7492208" lon="7.4396229"><ele>991.142857142857</ele><time>2026-04-15T13:16:03.034Z</time></trkpt><trkpt lat="45.749214" lon="7.4397224"><ele>992.2857142857142</ele><time>2026-04-15T13:16:05.964Z</time></trkpt><trkpt lat="45.7492013" lon="7.4398298"><ele>993.4285714285714</ele><time>2026-04-15T13:16:08.953Z</time></trkpt><trkpt lat="45.7491909" lon="7.4399406"><ele>994.5714285714286</ele><time>2026-04-15T13:16:12.055Z</time></trkpt><trkpt lat="45.7491826" lon="7.4400504"><ele>995.7142857142858</ele><time>2026-04-15T13:16:14.961Z</time></trkpt><trkpt lat="45.7491711" lon="7.4401573"><ele>996.857142857143</ele><time>2026-04-15T13:16:17.97Z</time></trkpt><trkpt lat="45.7491608" lon="7.4402607"><ele>998.0000000000001</ele><time>2026-04-15T13:16:21.041Z</time></trkpt><trkpt lat="45.7491522" lon="7.4403627"><ele>998.8333333333334</ele><time>2026-04-15T13:16:23.957Z</time></trkpt><trkpt lat="45.7491437" lon="7.4404667"><ele>999.6666666666667</ele><time>2026-04-15T13:16:26.967Z</time></trkpt><trkpt lat="45.7491311" lon="7.4405715"><ele>1000.5</ele><time>2026-04-15T13:16:29.966Z</time></trkpt><trkpt lat="45.7491235" lon="7.4406792"><ele>1001.3333333333333</ele><time>2026-04-15T13:16:33.047Z</time></trkpt><trkpt lat="45.7491157" lon="7.4407887"><ele>1002.1666666666666</ele><time>2026-04-15T13:16:35.967Z</time></trkpt><trkpt lat="45.7491196" lon="7.4409001"><ele>1003.0</ele><time>2026-04-15T13:16:38.967Z</time></trkpt><trkpt lat="45.749133" lon="7.4410037"><ele>1003.0</ele><time>2026-04-15T13:16:42.039Z</time></trkpt><trkpt lat="45.749159" lon="7.441096"><ele>1002.9999999999999</ele><time>2026-04-15T13:16:44.958Z</time></trkpt><trkpt lat="45.749192" lon="7.4411855"><ele>1003.0</ele><time>2026-04-15T13:16:47.966Z</time></trkpt><trkpt lat="45.7492344" lon="7.4412733"><ele>1003.0</ele><time>2026-04-15T13:16:50.968Z</time></trkpt><trkpt lat="45.7492761" lon="7.4413657"><ele>1002.9999999999999</ele><time>2026-04-15T13:16:53.964Z</time></trkpt><trkpt lat="45.7493141" lon="7.4414528"><ele>1003.0</ele><time>2026-04-15T13:16:56.957Z</time></trkpt><trkpt lat="45.7493451" lon="7.4415532"><ele>1003.0</ele><time>2026-04-15T13:16:59.969Z</time></trkpt><trkpt lat="45.7493688" lon="7.4416524"><ele>1009.4999999999999</ele><time>2026-04-15T13:17:02.97Z</time></trkpt><trkpt lat="45.7493921" lon="7.4417609"><ele>1016.0</ele><time>2026-04-15T13:17:05.967Z</time></trkpt><trkpt lat="45.7494007" lon="7.4418704"><ele>1022.5</ele><time>2026-04-15T13:17:08.962Z</time></trkpt><trkpt lat="45.7494075" lon="7.4419808"><ele>1029.0</ele><time>2026-04-15T13:17:11.967Z</time></trkpt><trkpt lat="45.7494112" lon="7.4420928"><ele>1035.5</ele><time>2026-04-15T13:17:14.965Z</time></trkpt><trkpt lat="45.7494041" lon="7.4421974"><ele>1042.0</ele><time>2026-04-15T13:17:17.969Z</time></trkpt><trkpt lat="45.7493991" lon="7.4423031"><ele>1043.0</ele><time>2026-04-15T13:17:20.965Z</time></trkpt><trkpt lat="45.7493924" lon="7.4424105"><ele>1044.0</ele><time>2026-04-15T13:17:23.965Z</time></trkpt><trkpt lat="45.74937" lon="7.4425113"><ele>1045.0</ele><time>2026-04-15T13:17:26.964Z</time></trkpt><trkpt lat="45.749345" lon="7.4426123"><ele>1046.0</ele><time>2026-04-15T13:17:29.963Z</time></trkpt><trkpt lat="45.7493197" lon="7.4427025"><ele>1047.0</ele><time>2026-04-15T13:17:32.963Z</time></trkpt><trkpt lat="45.7492928" lon="7.4427968"><ele>1048.0</ele><time>2026-04-15T13:17:35.968Z</time></trkpt><trkpt lat="45.7492727" lon="7.4429006"><ele>1049.0</ele><time>2026-04-15T13:17:38.969Z</time></trkpt><trkpt lat="45.7492607" lon="7.4430053"><ele>1045.0</ele><time>2026-04-15T13:17:41.966Z</time></trkpt><trkpt lat="45.749249" lon="7.4431161"><ele>1041.0</ele><time>2026-04-15T13:17:44.966Z</time></trkpt><trkpt lat="45.749237" lon="7.4432189"><ele>1037.0</ele><time>2026-04-15T13:17:47.965Z</time></trkpt><trkpt lat="45.7492292" lon="7.4433127"><ele>1033.0</ele><time>2026-04-15T13:17:50.965Z</time></trkpt><trkpt lat="45.7492213" lon="7.4434104"><ele>1029.0</ele><time>2026-04-15T13:17:54.031Z</time></trkpt><trkpt lat="45.7492069" lon="7.4435113"><ele>1025.0</ele><time>2026-04-15T13:17:56.961Z</time></trkpt><trkpt lat="45.7491982" lon="7.4436208"><ele>1021.0</ele><time>2026-04-15T13:17:59.96Z</time></trkpt><trkpt lat="45.7491862" lon="7.4437199"><ele>1021.5714285714286</ele><time>2026-04-15T13:18:02.994Z</time></trkpt><trkpt lat="45.7491767" lon="7.443826"><ele>1022.1428571428571</ele><time>2026-04-15T13:18:05.956Z</time></trkpt><trkpt lat="45.7491714" lon="7.4439302"><ele>1022.7142857142857</ele><time>2026-04-15T13:18:08.949Z</time></trkpt><trkpt lat="45.7491718" lon="7.4440408"><ele>1023.2857142857142</ele><time>2026-04-15T13:18:11.96Z</time></trkpt><trkpt lat="45.7491844" lon="7.4441491"><ele>1023.8571428571429</ele><time>2026-04-15T13:18:14.955Z</time></trkpt><trkpt lat="45.7492025" lon="7.4442509"><ele>1024.4285714285713</ele><time>2026-04-15T13:18:17.955Z</time></trkpt><trkpt lat="45.7492244" lon="7.4443529"><ele>1025.0</ele><time>2026-04-15T13:18:20.961Z</time></trkpt><trkpt lat="45.7492489" lon="7.4444656"><ele>1024.9999999999998</ele><time>2026-04-15T13:18:24.028Z</time></trkpt><trkpt lat="45.7492704" lon="7.4445786"><ele>1025.0</ele><time>2026-04-15T13:18:26.995Z</time></trkpt><trkpt lat="45.7493005" lon="7.4446781"><ele>1025.0</ele><time>2026-04-15T13:18:29.957Z</time></trkpt><trkpt lat="45.749321" lon="7.4447781"><ele>1025.0</ele><time>2026-04-15T13:18:32.961Z</time></trkpt><trkpt lat="45.7493386" lon="7.4448781"><ele>1025.0</ele><time>2026-04-15T13:18:35.965Z</time></trkpt><trkpt lat="45.7493646" lon="7.4449718"><ele>1024.9999999999998</ele><time>2026-04-15T13:18:38.957Z</time></trkpt><trkpt lat="45.749392" lon="7.4450707"><ele>1025.0</ele><time>2026-04-15T13:18:41.958Z</time></trkpt><trkpt lat="45.7494196" lon="7.4451713"><ele>1028.8333333333335</ele><time>2026-04-15T13:18:44.968Z</time></trkpt><trkpt lat="45.7494436" lon="7.4452837"><ele>1032.6666666666667</ele><time>2026-04-15T13:18:47.964Z</time></trkpt><trkpt lat="45.7494754" lon="7.4453889"><ele>1036.5</ele><time>2026-04-15T13:18:51.039Z</time></trkpt><trkpt lat="45.7495053" lon="7.4454984"><ele>1040.3333333333333</ele><time>2026-04-15T13:18:53.964Z</time></trkpt><trkpt lat="45.7495474" lon="7.4455935"><ele>1044.1666666666665</ele><time>2026-04-15T13:18:57.039Z</time></trkpt><trkpt lat="45.7496041" lon="7.4456723"><ele>1048.0</ele><time>2026-04-15T13:18:59.959Z</time></trkpt><trkpt lat="45.7496642" lon="7.4457419"><ele>1048.0</ele><time>2026-04-15T13:19:03.035Z</time></trkpt><trkpt lat="45.7497221" lon="7.4457976"><ele>1048.0</ele><time>2026-04-15T13:19:05.971Z</time></trkpt><trkpt lat="45.7497778" lon="7.4458648"><ele>1048.0</ele><time>2026-04-15T13:19:08.963Z</time></trkpt><trkpt lat="45.7498252" lon="7.4459261"><ele>1048.0</ele><time>2026-04-15T13:19:11.958Z</time></trkpt><trkpt lat="45.7498676" lon="7.4460047"><ele>1048.0</ele><time>2026-04-15T13:19:14.966Z</time></trkpt><trkpt lat="45.7498978" lon="7.4460897"><ele>1048.0</ele><time>2026-04-15T13:19:17.966Z</time></trkpt><trkpt lat="45.7499213" lon="7.446183"><ele>1048.0</ele><time>2026-04-15T13:19:20.962Z</time></trkpt><trkpt lat="45.7499324" lon="7.4463058"><ele>1047.5714285714287</ele><time>2026-04-15T13:19:24.967Z</time></trkpt><trkpt lat="45.7499287" lon="7.4464245"><ele>1047.1428571428573</ele><time>2026-04-15T13:19:28.962Z</time></trkpt><trkpt lat="45.7499269" lon="7.4465161"><ele>1046.7142857142858</ele><time>2026-04-15T13:19:32.033Z</time></trkpt><trkpt lat="45.7499274" lon="7.4466076"><ele>1046.2857142857142</ele><time>2026-04-15T13:19:34.957Z</time></trkpt><trkpt lat="45.7499199" lon="7.4466972"><ele>1045.8571428571427</ele><time>2026-04-15T13:19:38.026Z</time></trkpt><trkpt lat="45.7499127" lon="7.4467891"><ele>1045.4285714285713</ele><time>2026-04-15T13:19:40.956Z</time></trkpt><trkpt lat="45.7499119" lon="7.4468823"><ele>1045.0</ele><time>2026-04-15T13:19:43.964Z</time></trkpt><trkpt lat="45.7499154" lon="7.4469864"><ele>1045.0</ele><time>2026-04-15T13:19:47.031Z</time></trkpt><trkpt lat="45.7499519" lon="7.4470702"><ele>1045.0</ele><time>2026-04-15T13:19:49.961Z</time></trkpt><trkpt lat="45.7500135" lon="7.4471228"><ele>1045.0</ele><time>2026-04-15T13:19:52.965Z</time></trkpt><trkpt lat="45.7500802" lon="7.4471341"><ele>1045.0</ele><time>2026-04-15T13:19:56.046Z</time></trkpt><trkpt lat="45.7501498" lon="7.4471197"><ele>1045.0</ele><time>2026-04-15T13:19:58.955Z</time></trkpt><trkpt lat="45.7502123" lon="7.4470679"><ele>1045.0</ele><time>2026-04-15T13:20:01.954Z</time></trkpt><trkpt lat="45.7502648" lon="7.4469971"><ele>1045.0</ele><time>2026-04-15T13:20:04.957Z</time></trkpt><trkpt lat="45.7502914" lon="7.4469006"><ele>1045.5714285714284</ele><time>2026-04-15T13:20:07.958Z</time></trkpt><trkpt lat="45.7503073" lon="7.4467966"><ele>1046.142857142857</ele><time>2026-04-15T13:20:10.963Z</time></trkpt><trkpt lat="45.7503289" lon="7.4466939"><ele>1046.7142857142858</ele><time>2026-04-15T13:20:13.952Z</time></trkpt><trkpt lat="45.7503495" lon="7.4465937"><ele>1047.2857142857142</ele><time>2026-04-15T13:20:17.033Z</time></trkpt><trkpt lat="45.7503719" lon="7.4464942"><ele>1047.857142857143</ele><time>2026-04-15T13:20:19.951Z</time></trkpt><trkpt lat="45.750389" lon="7.446396"><ele>1048.4285714285713</ele><time>2026-04-15T13:20:22.949Z</time></trkpt><trkpt lat="45.7504102" lon="7.4463026"><ele>1049.0</ele><time>2026-04-15T13:20:25.947Z</time></trkpt><trkpt lat="45.7504319" lon="7.4462102"><ele>1050.4285714285713</ele><time>2026-04-15T13:20:28.951Z</time></trkpt><trkpt lat="45.7504485" lon="7.4461152"><ele>1051.857142857143</ele><time>2026-04-15T13:20:31.96Z</time></trkpt><trkpt lat="45.7504675" lon="7.4460172"><ele>1053.2857142857142</ele><time>2026-04-15T13:20:34.954Z</time></trkpt><trkpt lat="45.7504876" lon="7.4459253"><ele>1054.7142857142858</ele><time>2026-04-15T13:20:38.029Z</time></trkpt><trkpt lat="45.7505274" lon="7.4458483"><ele>1056.142857142857</ele><time>2026-04-15T13:20:40.941Z</time></trkpt><trkpt lat="45.7505751" lon="7.4457813"><ele>1057.5714285714284</ele><time>2026-04-15T13:20:43.953Z</time></trkpt><trkpt lat="45.750637" lon="7.4457262"><ele>1059.0</ele><time>2026-04-15T13:20:47.03Z</time></trkpt><trkpt lat="45.750702" lon="7.4457085"><ele>1059.0</ele><time>2026-04-15T13:20:49.952Z</time></trkpt><trkpt lat="45.7507719" lon="7.4457081"><ele>1059.0</ele><time>2026-04-15T13:20:53.046Z</time></trkpt><trkpt lat="45.750842" lon="7.4457126"><ele>1059.0</ele><time>2026-04-15T13:20:55.96Z</time></trkpt><trkpt lat="45.7509092" lon="7.4457142"><ele>1059.0</ele><time>2026-04-15T13:20:59.021Z</time></trkpt><trkpt lat="45.7509784" lon="7.4457173"><ele>1059.0</ele><time>2026-04-15T13:21:01.959Z</time></trkpt><trkpt lat="45.7510475" lon="7.4457202"><ele>1059.0</ele><time>2026-04-15T13:21:04.969Z</time></trkpt><trkpt lat="45.7511195" lon="7.4457262"><ele>1059.0</ele><time>2026-04-15T13:21:08.034Z</time></trkpt><trkpt lat="45.7511987" lon="7.4457269"><ele>1061.0</ele><time>2026-04-15T13:21:10.96Z</time></trkpt><trkpt lat="45.7512803" lon="7.4457293"><ele>1063.0</ele><time>2026-04-15T13:21:13.96Z</time></trkpt><trkpt lat="45.7513603" lon="7.4457427"><ele>1065.0</ele><time>2026-04-15T13:21:17.016Z</time></trkpt><trkpt lat="45.7514369" lon="7.4457575"><ele>1067.0</ele><time>2026-04-15T13:21:19.955Z</time></trkpt><trkpt lat="45.7515118" lon="7.4457876"><ele>1069.0</ele><time>2026-04-15T13:21:22.953Z</time></trkpt><trkpt lat="45.7515815" lon="7.4458168"><ele>1071.0</ele><time>2026-04-15T13:21:26.031Z</time></trkpt><trkpt lat="45.7516563" lon="7.4458523"><ele>1071.0</ele><time>2026-04-15T13:21:28.955Z</time></trkpt><trkpt lat="45.7517271" lon="7.4458885"><ele>1071.0</ele><time>2026-04-15T13:21:31.951Z</time></trkpt><trkpt lat="45.7517998" lon="7.4459405"><ele>1071.0</ele><time>2026-04-15T13:21:34.951Z</time></trkpt><trkpt lat="45.7518715" lon="7.4459924"><ele>1071.0</ele><time>2026-04-15T13:21:37.951Z</time></trkpt><trkpt lat="45.7519389" lon="7.446046"><ele>1071.0</ele><time>2026-04-15T13:21:40.957Z</time></trkpt><trkpt lat="45.7519997" lon="7.4460949"><ele>1071.0</ele><time>2026-04-15T13:21:43.954Z</time></trkpt><trkpt lat="45.7520677" lon="7.4461411"><ele>1072.2857142857142</ele><time>2026-04-15T13:21:47.036Z</time></trkpt><trkpt lat="45.7521371" lon="7.4461695"><ele>1073.5714285714284</ele><time>2026-04-15T13:21:49.968Z</time></trkpt><trkpt lat="45.7522099" lon="7.4461783"><ele>1074.857142857143</ele><time>2026-04-15T13:21:52.964Z</time></trkpt><trkpt lat="45.7522801" lon="7.4461586"><ele>1076.142857142857</ele><time>2026-04-15T13:21:55.967Z</time></trkpt><trkpt lat="45.752356" lon="7.4461188"><ele>1077.4285714285713</ele><time>2026-04-15T13:21:59.032Z</time></trkpt><trkpt lat="45.7524227" lon="7.4460571"><ele>1078.7142857142858</ele><time>2026-04-15T13:22:01.956Z</time></trkpt><trkpt lat="45.75249" lon="7.4460183"><ele>1080.0</ele><time>2026-04-15T13:22:04.961Z</time></trkpt><trkpt lat="45.7525557" lon="7.445968"><ele>1080.0</ele><time>2026-04-15T13:22:08.031Z</time></trkpt><trkpt lat="45.7526273" lon="7.4459159"><ele>1080.0</ele><time>2026-04-15T13:22:10.955Z</time></trkpt><trkpt lat="45.7526999" lon="7.4458623"><ele>1080.0</ele><time>2026-04-15T13:22:14.034Z</time></trkpt><trkpt lat="45.7527809" lon="7.4458232"><ele>1080.0</ele><time>2026-04-15T13:22:16.958Z</time></trkpt><trkpt lat="45.7528668" lon="7.4457976"><ele>1080.0</ele><time>2026-04-15T13:22:19.954Z</time></trkpt><trkpt lat="45.7529484" lon="7.445774"><ele>1080.0</ele><time>2026-04-15T13:22:22.957Z</time></trkpt><trkpt lat="45.7530278" lon="7.4457738"><ele>1080.1666666666667</ele><time>2026-04-15T13:22:25.953Z</time></trkpt><trkpt lat="45.7531083" lon="7.4457988"><ele>1080.3333333333333</ele><time>2026-04-15T13:22:28.955Z</time></trkpt><trkpt lat="45.7531919" lon="7.4458456"><ele>1080.5</ele><time>2026-04-15T13:22:31.955Z</time></trkpt><trkpt lat="45.7532766" lon="7.4458607"><ele>1080.6666666666665</ele><time>2026-04-15T13:22:34.958Z</time></trkpt><trkpt lat="45.7533651" lon="7.4458563"><ele>1080.8333333333333</ele><time>2026-04-15T13:22:38.03Z</time></trkpt><trkpt lat="45.7534367" lon="7.4458282"><ele>1081.0</ele><time>2026-04-15T13:22:40.954Z</time></trkpt><trkpt lat="45.7535085" lon="7.4457756"><ele>1082.7142857142856</ele><time>2026-04-15T13:22:43.955Z</time></trkpt><trkpt lat="45.7535749" lon="7.445711"><ele>1084.4285714285713</ele><time>2026-04-15T13:22:46.989Z</time></trkpt><trkpt lat="45.7536417" lon="7.4456899"><ele>1086.142857142857</ele><time>2026-04-15T13:22:49.951Z</time></trkpt><trkpt lat="45.7537087" lon="7.4456593"><ele>1087.8571428571427</ele><time>2026-04-15T13:22:52.96Z</time></trkpt><trkpt lat="45.7537763" lon="7.4456277"><ele>1089.5714285714284</ele><time>2026-04-15T13:22:56.956Z</time></trkpt><trkpt lat="45.7538346" lon="7.4455878"><ele>1091.2857142857142</ele><time>2026-04-15T13:23:00.961Z</time></trkpt><trkpt lat="45.7539095" lon="7.4455684"><ele>1093.0</ele><time>2026-04-15T13:23:05.965Z</time></trkpt><trkpt lat="45.753982" lon="7.4455565"><ele>1093.0</ele><time>2026-04-15T13:23:09.948Z</time></trkpt><trkpt lat="45.7540528" lon="7.4455601"><ele>1093.0</ele><time>2026-04-15T13:23:13.951Z</time></trkpt><trkpt lat="45.7541262" lon="7.4455867"><ele>1093.0</ele><time>2026-04-15T13:23:18.039Z</time></trkpt><trkpt lat="45.7541972" lon="7.4456117"><ele>1093.0</ele><time>2026-04-15T13:23:21.956Z</time></trkpt><trkpt lat="45.7542705" lon="7.4456345"><ele>1093.0</ele><time>2026-04-15T13:23:25.964Z</time></trkpt><trkpt lat="45.7543417" lon="7.4456589"><ele>1093.0</ele><time>2026-04-15T13:23:29.962Z</time></trkpt><trkpt lat="45.7544163" lon="7.4456839"><ele>1093.0</ele><time>2026-04-15T13:23:34.957Z</time></trkpt><trkpt lat="45.7544865" lon="7.445722"><ele>1095.5714285714287</ele><time>2026-04-15T13:23:39.956Z</time></trkpt><trkpt lat="45.7545433" lon="7.4457689"><ele>1098.142857142857</ele><time>2026-04-15T13:23:44.035Z</time></trkpt><trkpt lat="45.7546054" lon="7.4458163"><ele>1100.7142857142858</ele><time>2026-04-15T13:23:48.964Z</time></trkpt><trkpt lat="45.7546716" lon="7.44585"><ele>1103.2857142857142</ele><time>2026-04-15T13:23:53.995Z</time></trkpt><trkpt lat="45.7547398" lon="7.4458666"><ele>1105.857142857143</ele><time>2026-04-15T13:23:58.963Z</time></trkpt><trkpt lat="45.7548125" lon="7.4458846"><ele>1108.4285714285716</ele><time>2026-04-15T13:24:03.955Z</time></trkpt><trkpt lat="45.7548874" lon="7.4459123"><ele>1111.0</ele><time>2026-04-15T13:24:08.954Z</time></trkpt><trkpt lat="45.7549545" lon="7.4459437"><ele>1111.0</ele><time>2026-04-15T13:24:14.018Z</time></trkpt><trkpt lat="45.7550267" lon="7.4459838"><ele>1111.0</ele><time>2026-04-15T13:24:18.962Z</time></trkpt><trkpt lat="45.7550868" lon="7.4460124"><ele>1111.0</ele><time>2026-04-15T13:24:22.963Z</time></trkpt><trkpt lat="45.7551608" lon="7.4460023"><ele>1111.0</ele><time>2026-04-15T13:24:27.962Z</time></trkpt><trkpt lat="45.7552337" lon="7.4459691"><ele>1111.0</ele><time>2026-04-15T13:24:32.992Z</time></trkpt><trkpt lat="45.7553017" lon="7.4459498"><ele>1111.0</ele><time>2026-04-15T13:24:37.956Z</time></trkpt><trkpt lat="45.7553683" lon="7.445946"><ele>1111.0</ele><time>2026-04-15T13:24:42.959Z</time></trkpt><trkpt lat="45.7554352" lon="7.4459281"><ele>1113.4285714285716</ele><time>2026-04-15T13:24:47.957Z</time></trkpt><trkpt lat="45.7555025" lon="7.4458958"><ele>1115.857142857143</ele><time>2026-04-15T13:24:53.956Z</time></trkpt><trkpt lat="45.7555612" lon="7.4458566"><ele>1118.2857142857142</ele><time>2026-04-15T13:24:58.961Z</time></trkpt><trkpt lat="45.7556282" lon="7.4457966"><ele>1120.7142857142858</ele><time>2026-04-15T13:25:03.96Z</time></trkpt><trkpt lat="45.7556786" lon="7.4457206"><ele>1123.142857142857</ele><time>2026-04-15T13:25:08.954Z</time></trkpt><trkpt lat="45.7557318" lon="7.4456567"><ele>1125.5714285714287</ele><time>2026-04-15T13:25:13.961Z</time></trkpt><trkpt lat="45.7557862" lon="7.4455991"><ele>1128.0</ele><time>2026-04-15T13:25:18.032Z</time></trkpt><trkpt lat="45.7558469" lon="7.4455592"><ele>1128.0</ele><time>2026-04-15T13:25:21.956Z</time></trkpt><trkpt lat="45.7559069" lon="7.4455102"><ele>1128.0</ele><time>2026-04-15T13:25:26.951Z</time></trkpt><trkpt lat="45.7559687" lon="7.4454724"><ele>1128.0</ele><time>2026-04-15T13:25:30.953Z</time></trkpt><trkpt lat="45.7560324" lon="7.445433"><ele>1128.0</ele><time>2026-04-15T13:25:34.958Z</time></trkpt><trkpt lat="45.7560888" lon="7.445392"><ele>1128.0</ele><time>2026-04-15T13:25:38.959Z</time></trkpt><trkpt lat="45.7561541" lon="7.4453459"><ele>1128.0</ele><time>2026-04-15T13:25:42.96Z</time></trkpt><trkpt lat="45.756219" lon="7.4453122"><ele>1128.0</ele><time>2026-04-15T13:25:46.955Z</time></trkpt><trkpt lat="45.7562914" lon="7.4452749"><ele>1130.7142857142858</ele><time>2026-04-15T13:25:51.958Z</time></trkpt><trkpt lat="45.7563611" lon="7.4452376"><ele>1133.4285714285713</ele><time>2026-04-15T13:25:56.962Z</time></trkpt><trkpt lat="45.7564322" lon="7.4452035"><ele>1136.142857142857</ele><time>2026-04-15T13:26:01.958Z</time></trkpt><trkpt lat="45.7565048" lon="7.4451804"><ele>1138.857142857143</ele><time>2026-04-15T13:26:06.959Z</time></trkpt><trkpt lat="45.7565844" lon="7.4451794"><ele>1141.5714285714287</ele><time>2026-04-15T13:26:11.951Z</time></trkpt><trkpt lat="45.7566586" lon="7.4451904"><ele>1144.2857142857142</ele><time>2026-04-15T13:26:15.959Z</time></trkpt><trkpt lat="45.7567268" lon="7.4452035"><ele>1147.0</ele><time>2026-04-15T13:26:19.953Z</time></trkpt><trkpt lat="45.7567939" lon="7.4452257"><ele>1147.0</ele><time>2026-04-15T13:26:23.948Z</time></trkpt><trkpt lat="45.7568585" lon="7.4452578"><ele>1147.0</ele><time>2026-04-15T13:26:27.959Z</time></trkpt><trkpt lat="45.7569234" lon="7.445289"><ele>1147.0</ele><time>2026-04-15T13:26:31.989Z</time></trkpt><trkpt lat="45.7569899" lon="7.4453127"><ele>1147.0</ele><time>2026-04-15T13:26:35.955Z</time></trkpt><trkpt lat="45.757055" lon="7.4453474"><ele>1147.0</ele><time>2026-04-15T13:26:39.956Z</time></trkpt><trkpt lat="45.7571197" lon="7.4453923"><ele>1147.0</ele><time>2026-04-15T13:26:43.956Z</time></trkpt><trkpt lat="45.7571879" lon="7.4454296"><ele>1147.0</ele><time>2026-04-15T13:26:47.957Z</time></trkpt><trkpt lat="45.7572583" lon="7.4454487"><ele>1146.2857142857142</ele><time>2026-04-15T13:26:51.959Z</time></trkpt><trkpt lat="45.7573271" lon="7.4454643"><ele>1145.5714285714287</ele><time>2026-04-15T13:26:55.952Z</time></trkpt><trkpt lat="45.7573934" lon="7.4454688"><ele>1144.857142857143</ele><time>2026-04-15T13:26:59.957Z</time></trkpt><trkpt lat="45.7574565" lon="7.4454801"><ele>1144.142857142857</ele><time>2026-04-15T13:27:03.957Z</time></trkpt><trkpt lat="45.7575225" lon="7.4454971"><ele>1143.4285714285713</ele><time>2026-04-15T13:27:07.958Z</time></trkpt><trkpt lat="45.7575828" lon="7.4455351"><ele>1142.7142857142858</ele><time>2026-04-15T13:27:11.952Z</time></trkpt><trkpt lat="45.7576535" lon="7.4455847"><ele>1142.0</ele><time>2026-04-15T13:27:16.958Z</time></trkpt><trkpt lat="45.757725" lon="7.4456285"><ele>1144.142857142857</ele><time>2026-04-15T13:27:21.961Z</time></trkpt><trkpt lat="45.7577816" lon="7.4457032"><ele>1146.2857142857142</ele><time>2026-04-15T13:27:26.957Z</time></trkpt><trkpt lat="45.7578427" lon="7.4457381"><ele>1148.4285714285713</ele><time>2026-04-15T13:27:30.957Z</time></trkpt><trkpt lat="45.7578978" lon="7.4458137"><ele>1150.5714285714284</ele><time>2026-04-15T13:27:34.956Z</time></trkpt><trkpt lat="45.7579444" lon="7.4459129"><ele>1152.7142857142856</ele><time>2026-04-15T13:27:38.958Z</time></trkpt><trkpt lat="45.7579962" lon="7.4459816"><ele>1154.857142857143</ele><time>2026-04-15T13:27:41.952Z</time></trkpt><trkpt lat="45.7580474" lon="7.4460483"><ele>1157.0</ele><time>2026-04-15T13:27:44.96Z</time></trkpt><trkpt lat="45.7581052" lon="7.4461036"><ele>1157.0</ele><time>2026-04-15T13:27:47.956Z</time></trkpt><trkpt lat="45.7581612" lon="7.4461555"><ele>1157.0</ele><time>2026-04-15T13:27:50.956Z</time></trkpt><trkpt lat="45.7582191" lon="7.4462025"><ele>1157.0</ele><time>2026-04-15T13:27:53.96Z</time></trkpt><trkpt lat="45.7582689" lon="7.4462609"><ele>1157.0</ele><time>2026-04-15T13:27:56.959Z</time></trkpt><trkpt lat="45.7583394" lon="7.4463164"><ele>1157.0</ele><time>2026-04-15T13:28:00.95Z</time></trkpt><trkpt lat="45.7584166" lon="7.446356"><ele>1157.0</ele><time>2026-04-15T13:28:04.954Z</time></trkpt><trkpt lat="45.758483" lon="7.4463484"><ele>1157.0</ele><time>2026-04-15T13:28:07.959Z</time></trkpt><trkpt lat="45.7585476" lon="7.4463454"><ele>1158.0</ele><time>2026-04-15T13:28:10.953Z</time></trkpt><trkpt lat="45.7586128" lon="7.4463508"><ele>1159.0</ele><time>2026-04-15T13:28:13.957Z</time></trkpt><trkpt lat="45.7586797" lon="7.4463661"><ele>1160.0</ele><time>2026-04-15T13:28:16.95Z</time></trkpt><trkpt lat="45.7587416" lon="7.4464061"><ele>1161.0</ele><time>2026-04-15T13:28:19.961Z</time></trkpt><trkpt lat="45.7588135" lon="7.4464662"><ele>1162.0</ele><time>2026-04-15T13:28:23.957Z</time></trkpt><trkpt lat="45.7588731" lon="7.4465529"><ele>1163.0</ele><time>2026-04-15T13:28:27.956Z</time></trkpt><trkpt lat="45.7589358" lon="7.4466264"><ele>1163.0</ele><time>2026-04-15T13:28:31.944Z</time></trkpt><trkpt lat="45.7589811" lon="7.4466951"><ele>1163.0</ele><time>2026-04-15T13:28:34.957Z</time></trkpt><trkpt lat="45.7590232" lon="7.4467655"><ele>1163.0</ele><time>2026-04-15T13:28:37.954Z</time></trkpt><trkpt lat="45.7590645" lon="7.4468486"><ele>1163.0</ele><time>2026-04-15T13:28:40.965Z</time></trkpt><trkpt lat="45.7591003" lon="7.4469266"><ele>1163.0</ele><time>2026-04-15T13:28:43.957Z</time></trkpt><trkpt lat="45.759151" lon="7.4470118"><ele>1163.0</ele><time>2026-04-15T13:28:47.955Z</time></trkpt><trkpt lat="45.7591823" lon="7.4470909"><ele>1163.0</ele><time>2026-04-15T13:28:51.957Z</time></trkpt><trkpt lat="45.7592305" lon="7.4471697"><ele>1163.0</ele><time>2026-04-15T13:28:56.955Z</time></trkpt><trkpt lat="45.7592471" lon="7.4470737"><ele>1163.0</ele><time>2026-04-15T13:29:02.959Z</time></trkpt><trkpt lat="45.7592367" lon="7.4469819"><ele>1163.0</ele><time>2026-04-15T13:29:06.958Z</time></trkpt><trkpt lat="45.759223" lon="7.4468776"><ele>1163.0</ele><time>2026-04-15T13:29:11.956Z</time></trkpt><trkpt lat="45.759207" lon="7.4467807"><ele>1163.0</ele><time>2026-04-15T13:29:15.959Z</time></trkpt><trkpt lat="45.7591963" lon="7.4466817"><ele>1163.0</ele><time>2026-04-15T13:29:19.962Z</time></trkpt><trkpt lat="45.7591792" lon="7.4465756"><ele>1163.0</ele><time>2026-04-15T13:29:23.96Z</time></trkpt><trkpt lat="45.7591682" lon="7.4464769"><ele>1163.0</ele><time>2026-04-15T13:29:27.96Z</time></trkpt><trkpt lat="45.7591535" lon="7.4463762"><ele>1163.0</ele><time>2026-04-15T13:29:31.955Z</time></trkpt><trkpt lat="45.759125" lon="7.4462928"><ele>1163.0</ele><time>2026-04-15T13:29:35.955Z</time></trkpt><trkpt lat="45.7590902" lon="7.4462172"><ele>1163.0</ele><time>2026-04-15T13:29:39.955Z</time></trkpt><trkpt lat="45.7590419" lon="7.4461282"><ele>1163.0</ele><time>2026-04-15T13:29:44.951Z</time></trkpt><trkpt lat="45.7589901" lon="7.4460445"><ele>1163.0</ele><time>2026-04-15T13:29:48.957Z</time></trkpt><trkpt lat="45.7589499" lon="7.4459627"><ele>1163.0</ele><time>2026-04-15T13:29:52.964Z</time></trkpt><trkpt lat="45.7589048" lon="7.4458846"><ele>1165.5714285714287</ele><time>2026-04-15T13:29:56.955Z</time></trkpt><trkpt lat="45.7588609" lon="7.4458062"><ele>1168.142857142857</ele><time>2026-04-15T13:30:00.953Z</time></trkpt><trkpt lat="45.7588108" lon="7.4457287"><ele>1170.7142857142858</ele><time>2026-04-15T13:30:04.955Z</time></trkpt><trkpt lat="45.7587627" lon="7.4456489"><ele>1173.2857142857142</ele><time>2026-04-15T13:30:08.956Z</time></trkpt><trkpt lat="45.7587198" lon="7.4455697"><ele>1175.857142857143</ele><time>2026-04-15T13:30:12.959Z</time></trkpt><trkpt lat="45.7586872" lon="7.4454902"><ele>1178.4285714285716</ele><time>2026-04-15T13:30:16.963Z</time></trkpt><trkpt lat="45.7586594" lon="7.4453949"><ele>1181.0</ele><time>2026-04-15T13:30:20.956Z</time></trkpt><trkpt lat="45.7586356" lon="7.4452884"><ele>1180.6666666666667</ele><time>2026-04-15T13:30:24.959Z</time></trkpt><trkpt lat="45.758612" lon="7.4451828"><ele>1180.3333333333335</ele><time>2026-04-15T13:30:28.955Z</time></trkpt><trkpt lat="45.7585987" lon="7.4450731"><ele>1180.0</ele><time>2026-04-15T13:30:32.944Z</time></trkpt><trkpt lat="45.7585626" lon="7.4449783"><ele>1179.6666666666667</ele><time>2026-04-15T13:30:36.958Z</time></trkpt><trkpt lat="45.7585066" lon="7.4449065"><ele>1179.3333333333333</ele><time>2026-04-15T13:30:40.953Z</time></trkpt><trkpt lat="45.758436" lon="7.4448657"><ele>1179.0</ele><time>2026-04-15T13:30:44.955Z</time></trkpt><trkpt lat="45.7583696" lon="7.4448331"><ele>1178.9999999999998</ele><time>2026-04-15T13:30:49.029Z</time></trkpt><trkpt lat="45.7583011" lon="7.4448076"><ele>1179.0</ele><time>2026-04-15T13:30:52.948Z</time></trkpt><trkpt lat="45.7582323" lon="7.4447812"><ele>1179.0</ele><time>2026-04-15T13:30:57.031Z</time></trkpt><trkpt lat="45.7581621" lon="7.4447457"><ele>1179.0</ele><time>2026-04-15T13:31:00.953Z</time></trkpt><trkpt lat="45.7580965" lon="7.4447217"><ele>1179.0</ele><time>2026-04-15T13:31:04.957Z</time></trkpt><trkpt lat="45.7580249" lon="7.4446845"><ele>1178.9999999999998</ele><time>2026-04-15T13:31:09.034Z</time></trkpt><trkpt lat="45.7579488" lon="7.4446677"><ele>1179.0</ele><time>2026-04-15T13:31:12.944Z</time></trkpt><trkpt lat="45.7578711" lon="7.4446397"><ele>1181.2857142857142</ele><time>2026-04-15T13:31:16.943Z</time></trkpt><trkpt lat="45.7578093" lon="7.4446132"><ele>1183.5714285714284</ele><time>2026-04-15T13:31:19.944Z</time></trkpt><trkpt lat="45.7577416" lon="7.4445633"><ele>1185.8571428571427</ele><time>2026-04-15T13:31:23.946Z</time></trkpt><trkpt lat="45.75767" lon="7.444517"><ele>1188.142857142857</ele><time>2026-04-15T13:31:27.947Z</time></trkpt><trkpt lat="45.7576024" lon="7.444461"><ele>1190.4285714285716</ele><time>2026-04-15T13:31:31.949Z</time></trkpt><trkpt lat="45.7575362" lon="7.4444041"><ele>1192.7142857142856</ele><time>2026-04-15T13:31:35.951Z</time></trkpt><trkpt lat="45.7574776" lon="7.4443399"><ele>1195.0</ele><time>2026-04-15T13:31:39.949Z</time></trkpt><trkpt lat="45.7574199" lon="7.4442681"><ele>1195.0</ele><time>2026-04-15T13:31:43.953Z</time></trkpt><trkpt lat="45.7573599" lon="7.4442003"><ele>1195.0</ele><time>2026-04-15T13:31:48.055Z</time></trkpt><trkpt lat="45.7573011" lon="7.4441376"><ele>1195.0</ele><time>2026-04-15T13:31:51.962Z</time></trkpt><trkpt lat="45.757257" lon="7.4440688"><ele>1195.0</ele><time>2026-04-15T13:31:55.953Z</time></trkpt><trkpt lat="45.7572109" lon="7.4439906"><ele>1195.0</ele><time>2026-04-15T13:31:59.951Z</time></trkpt><trkpt lat="45.7571639" lon="7.4438973"><ele>1195.0</ele><time>2026-04-15T13:32:04.052Z</time></trkpt><trkpt lat="45.7571159" lon="7.4438147"><ele>1195.0</ele><time>2026-04-15T13:32:08.065Z</time></trkpt><trkpt lat="45.7570568" lon="7.443756"><ele>1196.2857142857142</ele><time>2026-04-15T13:32:12.072Z</time></trkpt><trkpt lat="45.7569853" lon="7.4437208"><ele>1197.5714285714287</ele><time>2026-04-15T13:32:16.005Z</time></trkpt><trkpt lat="45.7569204" lon="7.4436659"><ele>1198.857142857143</ele><time>2026-04-15T13:32:20.005Z</time></trkpt><trkpt lat="45.7568678" lon="7.4435976"><ele>1200.142857142857</ele><time>2026-04-15T13:32:24.085Z</time></trkpt><trkpt lat="45.7568172" lon="7.4435092"><ele>1201.4285714285716</ele><time>2026-04-15T13:32:28.081Z</time></trkpt><trkpt lat="45.7567823" lon="7.4434252"><ele>1202.7142857142858</ele><time>2026-04-15T13:32:32.085Z</time></trkpt><trkpt lat="45.7567437" lon="7.4433313"><ele>1204.0</ele><time>2026-04-15T13:32:36.081Z</time></trkpt><trkpt lat="45.7567041" lon="7.4432377"><ele>1204.0</ele><time>2026-04-15T13:32:40.082Z</time></trkpt><trkpt lat="45.7566731" lon="7.4431464"><ele>1204.0</ele><time>2026-04-15T13:32:44.082Z</time></trkpt><trkpt lat="45.7566571" lon="7.4430372"><ele>1204.0</ele><time>2026-04-15T13:32:48.087Z</time></trkpt><trkpt lat="45.7566527" lon="7.4429291"><ele>1204.0</ele><time>2026-04-15T13:32:51.955Z</time></trkpt><trkpt lat="45.7566432" lon="7.4428175"><ele>1204.0</ele><time>2026-04-15T13:32:55.953Z</time></trkpt><trkpt lat="45.7566281" lon="7.4427071"><ele>1204.0</ele><time>2026-04-15T13:32:59.956Z</time></trkpt><trkpt lat="45.7565965" lon="7.4426051"><ele>1207.6666666666665</ele><time>2026-04-15T13:33:04.032Z</time></trkpt><trkpt lat="45.756545" lon="7.4425171"><ele>1211.3333333333333</ele><time>2026-04-15T13:33:07.961Z</time></trkpt><trkpt lat="45.7564805" lon="7.4424592"><ele>1215.0</ele><time>2026-04-15T13:33:11.956Z</time></trkpt><trkpt lat="45.7564093" lon="7.4424118"><ele>1218.6666666666667</ele><time>2026-04-15T13:33:15.956Z</time></trkpt><trkpt lat="45.7563363" lon="7.4423948"><ele>1222.3333333333335</ele><time>2026-04-15T13:33:19.956Z</time></trkpt><trkpt lat="45.7562595" lon="7.4423881"><ele>1226.0</ele><time>2026-04-15T13:33:23.96Z</time></trkpt><trkpt lat="45.7561782" lon="7.4423922"><ele>1226.0</ele><time>2026-04-15T13:33:27.96Z</time></trkpt><trkpt lat="45.7561012" lon="7.4423772"><ele>1226.0</ele><time>2026-04-15T13:33:31.949Z</time></trkpt><trkpt lat="45.7560461" lon="7.4423068"><ele>1226.0</ele><time>2026-04-15T13:33:35.955Z</time></trkpt><trkpt lat="45.7560281" lon="7.4422073"><ele>1226.0</ele><time>2026-04-15T13:33:39.957Z</time></trkpt><trkpt lat="45.7560208" lon="7.4421034"><ele>1226.0</ele><time>2026-04-15T13:33:43.96Z</time></trkpt><trkpt lat="45.7560203" lon="7.4419901"><ele>1226.0</ele><time>2026-04-15T13:33:47.968Z</time></trkpt><trkpt lat="45.7560057" lon="7.4418721"><ele>1225.3333333333335</ele><time>2026-04-15T13:33:51.959Z</time></trkpt><trkpt lat="45.7559849" lon="7.4417641"><ele>1224.6666666666667</ele><time>2026-04-15T13:33:55.96Z</time></trkpt><trkpt lat="45.7559589" lon="7.4416531"><ele>1224.0</ele><time>2026-04-15T13:33:59.956Z</time></trkpt><trkpt lat="45.7559348" lon="7.4415456"><ele>1223.3333333333333</ele><time>2026-04-15T13:34:03.963Z</time></trkpt><trkpt lat="45.7559141" lon="7.4414383"><ele>1222.6666666666665</ele><time>2026-04-15T13:34:07.963Z</time></trkpt><trkpt lat="45.7558878" lon="7.4413431"><ele>1222.0</ele><time>2026-04-15T13:34:10.952Z</time></trkpt><trkpt lat="45.7558649" lon="7.4412562"><ele>1224.1428571428573</ele><time>2026-04-15T13:34:13.963Z</time></trkpt><trkpt lat="45.7558405" lon="7.441165"><ele>1226.2857142857142</ele><time>2026-04-15T13:34:17.962Z</time></trkpt><trkpt lat="45.7558181" lon="7.4410766"><ele>1228.4285714285716</ele><time>2026-04-15T13:34:20.962Z</time></trkpt><trkpt lat="45.7557979" lon="7.4409809"><ele>1230.5714285714287</ele><time>2026-04-15T13:34:23.967Z</time></trkpt><trkpt lat="45.7557774" lon="7.4408894"><ele>1232.7142857142858</ele><time>2026-04-15T13:34:26.959Z</time></trkpt><trkpt lat="45.7557566" lon="7.4407812"><ele>1234.857142857143</ele><time>2026-04-15T13:34:29.96Z</time></trkpt><trkpt lat="45.755744" lon="7.4406781"><ele>1237.0</ele><time>2026-04-15T13:34:32.958Z</time></trkpt><trkpt lat="45.7557338" lon="7.4405776"><ele>1237.0</ele><time>2026-04-15T13:34:35.953Z</time></trkpt><trkpt lat="45.7557153" lon="7.4404771"><ele>1237.0</ele><time>2026-04-15T13:34:38.954Z</time></trkpt><trkpt lat="45.7556952" lon="7.4403755"><ele>1237.0</ele><time>2026-04-15T13:34:41.961Z</time></trkpt><trkpt lat="45.755684" lon="7.4402658"><ele>1237.0</ele><time>2026-04-15T13:34:44.96Z</time></trkpt><trkpt lat="45.7556652" lon="7.440154"><ele>1237.0</ele><time>2026-04-15T13:34:47.96Z</time></trkpt><trkpt lat="45.7556412" lon="7.4400508"><ele>1237.0</ele><time>2026-04-15T13:34:50.949Z</time></trkpt><trkpt lat="45.7556183" lon="7.4399467"><ele>1238.8333333333333</ele><time>2026-04-15T13:34:53.96Z</time></trkpt><trkpt lat="45.7555901" lon="7.4398358"><ele>1240.6666666666665</ele><time>2026-04-15T13:34:56.961Z</time></trkpt><trkpt lat="45.7555681" lon="7.4397289"><ele>1242.5</ele><time>2026-04-15T13:34:59.959Z</time></trkpt><trkpt lat="45.7555347" lon="7.4396163"><ele>1244.3333333333333</ele><time>2026-04-15T13:35:02.956Z</time></trkpt><trkpt lat="45.7555167" lon="7.4395121"><ele>1246.1666666666667</ele><time>2026-04-15T13:35:05.96Z</time></trkpt><trkpt lat="45.7555199" lon="7.4394066"><ele>1248.0</ele><time>2026-04-15T13:35:08.953Z</time></trkpt><trkpt lat="45.7555174" lon="7.4392995"><ele>1249.5714285714287</ele><time>2026-04-15T13:35:11.953Z</time></trkpt><trkpt lat="45.7555189" lon="7.4392054"><ele>1251.142857142857</ele><time>2026-04-15T13:35:14.961Z</time></trkpt><trkpt lat="45.7555126" lon="7.4391055"><ele>1252.7142857142858</ele><time>2026-04-15T13:35:17.966Z</time></trkpt><trkpt lat="45.7555051" lon="7.439008"><ele>1254.2857142857142</ele><time>2026-04-15T13:35:20.975Z</time></trkpt><trkpt lat="45.7554725" lon="7.4389127"><ele>1255.857142857143</ele><time>2026-04-15T13:35:23.959Z</time></trkpt><trkpt lat="45.7554371" lon="7.4388202"><ele>1257.4285714285713</ele><time>2026-04-15T13:35:26.956Z</time></trkpt><trkpt lat="45.7554113" lon="7.4387285"><ele>1259.0</ele><time>2026-04-15T13:35:29.963Z</time></trkpt><trkpt lat="45.7553984" lon="7.4386252"><ele>1260.5</ele><time>2026-04-15T13:35:32.957Z</time></trkpt><trkpt lat="45.7553975" lon="7.438502"><ele>1262.0</ele><time>2026-04-15T13:35:36.961Z</time></trkpt><trkpt lat="45.7553913" lon="7.4383956"><ele>1263.5</ele><time>2026-04-15T13:35:40.948Z</time></trkpt><trkpt lat="45.7553812" lon="7.4382782"><ele>1265.0</ele><time>2026-04-15T13:35:44.953Z</time></trkpt><trkpt lat="45.7553702" lon="7.4381536"><ele>1266.5</ele><time>2026-04-15T13:35:48.956Z</time></trkpt><trkpt lat="45.7553538" lon="7.4380632"><ele>1268.0</ele><time>2026-04-15T13:35:51.957Z</time></trkpt><trkpt lat="45.7553425" lon="7.437968"><ele>1269.5714285714287</ele><time>2026-04-15T13:35:54.959Z</time></trkpt><trkpt lat="45.7553402" lon="7.4378749"><ele>1271.142857142857</ele><time>2026-04-15T13:35:57.956Z</time></trkpt><trkpt lat="45.755336" lon="7.4377845"><ele>1272.7142857142858</ele><time>2026-04-15T13:36:00.957Z</time></trkpt><trkpt lat="45.7553301" lon="7.4376918"><ele>1274.2857142857142</ele><time>2026-04-15T13:36:03.96Z</time></trkpt><trkpt lat="45.7553251" lon="7.437595"><ele>1275.857142857143</ele><time>2026-04-15T13:36:06.96Z</time></trkpt><trkpt lat="45.7553105" lon="7.4374774"><ele>1277.4285714285713</ele><time>2026-04-15T13:36:10.963Z</time></trkpt><trkpt lat="45.7553156" lon="7.4373774"><ele>1279.0</ele><time>2026-04-15T13:36:13.954Z</time></trkpt><trkpt lat="45.7553185" lon="7.4372806"><ele>1279.0</ele><time>2026-04-15T13:36:17.062Z</time></trkpt><trkpt lat="45.7553209" lon="7.4371874"><ele>1279.0</ele><time>2026-04-15T13:36:19.957Z</time></trkpt><trkpt lat="45.755313" lon="7.4370932"><ele>1279.0</ele><time>2026-04-15T13:36:22.966Z</time></trkpt><trkpt lat="45.755291" lon="7.4370007"><ele>1279.0</ele><time>2026-04-15T13:36:25.956Z</time></trkpt><trkpt lat="45.7552686" lon="7.4369083"><ele>1279.0</ele><time>2026-04-15T13:36:28.961Z</time></trkpt><trkpt lat="45.7552399" lon="7.4368205"><ele>1279.0</ele><time>2026-04-15T13:36:31.957Z</time></trkpt><trkpt lat="45.7552227" lon="7.4367274"><ele>1279.0</ele><time>2026-04-15T13:36:34.956Z</time></trkpt><trkpt lat="45.7552212" lon="7.4366264"><ele>1278.4285714285713</ele><time>2026-04-15T13:36:37.955Z</time></trkpt><trkpt lat="45.7552359" lon="7.4365247"><ele>1277.857142857143</ele><time>2026-04-15T13:36:40.96Z</time></trkpt><trkpt lat="45.7552523" lon="7.4364333"><ele>1277.2857142857142</ele><time>2026-04-15T13:36:43.957Z</time></trkpt><trkpt lat="45.7552718" lon="7.4363305"><ele>1276.7142857142858</ele><time>2026-04-15T13:36:46.958Z</time></trkpt><trkpt lat="45.7552807" lon="7.4362356"><ele>1276.142857142857</ele><time>2026-04-15T13:36:49.957Z</time></trkpt><trkpt lat="45.7552915" lon="7.4361453"><ele>1275.5714285714287</ele><time>2026-04-15T13:36:52.968Z</time></trkpt><trkpt lat="45.7553034" lon="7.4360227"><ele>1275.0</ele><time>2026-04-15T13:36:56.96Z</time></trkpt><trkpt lat="45.7553189" lon="7.4359294"><ele>1274.7142857142858</ele><time>2026-04-15T13:36:59.959Z</time></trkpt><trkpt lat="45.7553448" lon="7.4358412"><ele>1274.4285714285713</ele><time>2026-04-15T13:37:02.956Z</time></trkpt><trkpt lat="45.7553754" lon="7.4357609"><ele>1274.142857142857</ele><time>2026-04-15T13:37:05.957Z</time></trkpt><trkpt lat="45.7554169" lon="7.4356623"><ele>1273.857142857143</ele><time>2026-04-15T13:37:09.953Z</time></trkpt><trkpt lat="45.7554459" lon="7.4355736"><ele>1273.5714285714287</ele><time>2026-04-15T13:37:13.027Z</time></trkpt><trkpt lat="45.7554777" lon="7.4354901"><ele>1273.2857142857142</ele><time>2026-04-15T13:37:15.956Z</time></trkpt><trkpt lat="45.7555028" lon="7.4354065"><ele>1273.0</ele><time>2026-04-15T13:37:19.039Z</time></trkpt><trkpt lat="45.7555313" lon="7.4353169"><ele>1272.2857142857142</ele><time>2026-04-15T13:37:21.957Z</time></trkpt><trkpt lat="45.7555587" lon="7.4352225"><ele>1271.5714285714287</ele><time>2026-04-15T13:37:24.954Z</time></trkpt><trkpt lat="45.7555872" lon="7.4351332"><ele>1270.857142857143</ele><time>2026-04-15T13:37:27.955Z</time></trkpt><trkpt lat="45.7556119" lon="7.4350417"><ele>1270.142857142857</ele><time>2026-04-15T13:37:30.95Z</time></trkpt><trkpt lat="45.7556438" lon="7.4349546"><ele>1269.4285714285713</ele><time>2026-04-15T13:37:33.954Z</time></trkpt><trkpt lat="45.7556637" lon="7.4348634"><ele>1268.7142857142858</ele><time>2026-04-15T13:37:37.07Z</time></trkpt><trkpt lat="45.7556787" lon="7.4347729"><ele>1268.0</ele><time>2026-04-15T13:37:39.959Z</time></trkpt><trkpt lat="45.7556952" lon="7.4346832"><ele>1267.4285714285716</ele><time>2026-04-15T13:37:42.958Z</time></trkpt><trkpt lat="45.7557135" lon="7.4345934"><ele>1266.857142857143</ele><time>2026-04-15T13:37:45.953Z</time></trkpt><trkpt lat="45.7557475" lon="7.4345051"><ele>1266.2857142857142</ele><time>2026-04-15T13:37:48.957Z</time></trkpt><trkpt lat="45.7557929" lon="7.4344198"><ele>1265.7142857142858</ele><time>2026-04-15T13:37:51.955Z</time></trkpt><trkpt lat="45.7558353" lon="7.4343287"><ele>1265.142857142857</ele><time>2026-04-15T13:37:54.961Z</time></trkpt><trkpt lat="45.7558707" lon="7.4342389"><ele>1264.5714285714287</ele><time>2026-04-15T13:37:58.018Z</time></trkpt><trkpt lat="45.7558964" lon="7.4341393"><ele>1264.0</ele><time>2026-04-15T13:38:00.959Z</time></trkpt><trkpt lat="45.7559357" lon="7.4340515"><ele>1264.0000000000002</ele><time>2026-04-15T13:38:03.953Z</time></trkpt><trkpt lat="45.75597" lon="7.4339442"><ele>1264.0</ele><time>2026-04-15T13:38:08.959Z</time></trkpt><trkpt lat="45.7559982" lon="7.4338515"><ele>1264.0</ele><time>2026-04-15T13:38:11.965Z</time></trkpt><trkpt lat="45.7560303" lon="7.4337527"><ele>1264.0</ele><time>2026-04-15T13:38:14.959Z</time></trkpt><trkpt lat="45.7560588" lon="7.433657"><ele>1264.0</ele><time>2026-04-15T13:38:17.956Z</time></trkpt><trkpt lat="45.756094" lon="7.4335699"><ele>1264.0000000000002</ele><time>2026-04-15T13:38:20.961Z</time></trkpt><trkpt lat="45.7561296" lon="7.4334807"><ele>1264.0</ele><time>2026-04-15T13:38:23.959Z</time></trkpt><trkpt lat="45.75616" lon="7.4333866"><ele>1268.1666666666665</ele><time>2026-04-15T13:38:26.957Z</time></trkpt><trkpt lat="45.7561884" lon="7.4332843"><ele>1272.3333333333333</ele><time>2026-04-15T13:38:29.962Z</time></trkpt><trkpt lat="45.7562208" lon="7.4331821"><ele>1276.5</ele><time>2026-04-15T13:38:32.953Z</time></trkpt><trkpt lat="45.7562487" lon="7.4330841"><ele>1280.6666666666667</ele><time>2026-04-15T13:38:35.958Z</time></trkpt><trkpt lat="45.756276" lon="7.4329894"><ele>1284.8333333333335</ele><time>2026-04-15T13:38:38.952Z</time></trkpt><trkpt lat="45.7563087" lon="7.4328924"><ele>1289.0</ele><time>2026-04-15T13:38:41.95Z</time></trkpt><trkpt lat="45.7563367" lon="7.4327916"><ele>1289.0</ele><time>2026-04-15T13:38:44.962Z</time></trkpt><trkpt lat="45.7563671" lon="7.4326957"><ele>1289.0</ele><time>2026-04-15T13:38:47.953Z</time></trkpt><trkpt lat="45.7563933" lon="7.4325934"><ele>1289.0</ele><time>2026-04-15T13:38:50.958Z</time></trkpt><trkpt lat="45.756409" lon="7.4324907"><ele>1289.0</ele><time>2026-04-15T13:38:53.951Z</time></trkpt><trkpt lat="45.7564249" lon="7.4323837"><ele>1289.0</ele><time>2026-04-15T13:38:56.961Z</time></trkpt><trkpt lat="45.7564405" lon="7.4322777"><ele>1289.0</ele><time>2026-04-15T13:38:59.955Z</time></trkpt><trkpt lat="45.7564588" lon="7.4321799"><ele>1289.0</ele><time>2026-04-15T13:39:02.95Z</time></trkpt><trkpt lat="45.7564767" lon="7.4320832"><ele>1288.142857142857</ele><time>2026-04-15T13:39:05.964Z</time></trkpt><trkpt lat="45.7564927" lon="7.4319835"><ele>1287.2857142857142</ele><time>2026-04-15T13:39:08.962Z</time></trkpt><trkpt lat="45.7565059" lon="7.4318752"><ele>1286.4285714285716</ele><time>2026-04-15T13:39:11.953Z</time></trkpt><trkpt lat="45.7565339" lon="7.4317772"><ele>1285.5714285714284</ele><time>2026-04-15T13:39:14.96Z</time></trkpt><trkpt lat="45.756565" lon="7.4316766"><ele>1284.7142857142856</ele><time>2026-04-15T13:39:17.954Z</time></trkpt><trkpt lat="45.7565858" lon="7.431572"><ele>1283.857142857143</ele><time>2026-04-15T13:39:20.955Z</time></trkpt><trkpt lat="45.7566021" lon="7.4314697"><ele>1283.0</ele><time>2026-04-15T13:39:23.958Z</time></trkpt><trkpt lat="45.7566155" lon="7.4313729"><ele>1282.0</ele><time>2026-04-15T13:39:26.959Z</time></trkpt><trkpt lat="45.7566305" lon="7.431277"><ele>1281.0</ele><time>2026-04-15T13:39:29.957Z</time></trkpt><trkpt lat="45.7566517" lon="7.4311863"><ele>1280.0</ele><time>2026-04-15T13:39:32.957Z</time></trkpt><trkpt lat="45.7566749" lon="7.4310944"><ele>1279.0</ele><time>2026-04-15T13:39:35.954Z</time></trkpt><trkpt lat="45.7566984" lon="7.4309986"><ele>1278.0</ele><time>2026-04-15T13:39:39.013Z</time></trkpt><trkpt lat="45.7567262" lon="7.4309023"><ele>1277.0</ele><time>2026-04-15T13:39:41.979Z</time></trkpt><trkpt lat="45.7567619" lon="7.4308131"><ele>1276.0</ele><time>2026-04-15T13:39:44.955Z</time></trkpt><trkpt lat="45.7568084" lon="7.4307338"><ele>1276.0</ele><time>2026-04-15T13:39:47.956Z</time></trkpt><trkpt lat="45.7568611" lon="7.4306746"><ele>1276.0</ele><time>2026-04-15T13:39:50.967Z</time></trkpt><trkpt lat="45.7569316" lon="7.430651"><ele>1276.0</ele><time>2026-04-15T13:39:53.955Z</time></trkpt><trkpt lat="45.7570198" lon="7.4306585"><ele>1276.0</ele><time>2026-04-15T13:39:57.961Z</time></trkpt><trkpt lat="45.7570881" lon="7.4306935"><ele>1276.0</ele><time>2026-04-15T13:40:01.029Z</time></trkpt><trkpt lat="45.7571517" lon="7.4307136"><ele>1276.0</ele><time>2026-04-15T13:40:03.967Z</time></trkpt><trkpt lat="45.7572199" lon="7.4307338"><ele>1276.0</ele><time>2026-04-15T13:40:06.991Z</time></trkpt><trkpt lat="45.7572948" lon="7.4307512"><ele>1279.142857142857</ele><time>2026-04-15T13:40:09.95Z</time></trkpt><trkpt lat="45.7573717" lon="7.4307629"><ele>1282.2857142857142</ele><time>2026-04-15T13:40:12.954Z</time></trkpt><trkpt lat="45.757446" lon="7.4307699"><ele>1285.4285714285713</ele><time>2026-04-15T13:40:15.956Z</time></trkpt><trkpt lat="45.757517" lon="7.4307534"><ele>1288.5714285714284</ele><time>2026-04-15T13:40:18.974Z</time></trkpt><trkpt lat="45.7575821" lon="7.4307037"><ele>1291.7142857142858</ele><time>2026-04-15T13:40:21.97Z</time></trkpt><trkpt lat="45.7576393" lon="7.4306349"><ele>1294.8571428571427</ele><time>2026-04-15T13:40:24.963Z</time></trkpt><trkpt lat="45.7576926" lon="7.4305648"><ele>1298.0</ele><time>2026-04-15T13:40:28.021Z</time></trkpt><trkpt lat="45.7577472" lon="7.4304948"><ele>1301.2857142857142</ele><time>2026-04-15T13:40:30.97Z</time></trkpt><trkpt lat="45.7577835" lon="7.43041"><ele>1304.5714285714284</ele><time>2026-04-15T13:40:33.972Z</time></trkpt><trkpt lat="45.757807" lon="7.43032"><ele>1307.8571428571427</ele><time>2026-04-15T13:40:37.976Z</time></trkpt><trkpt lat="45.7577921" lon="7.4302191"><ele>1311.142857142857</ele><time>2026-04-15T13:40:40.958Z</time></trkpt><trkpt lat="45.7578022" lon="7.4301129"><ele>1314.4285714285716</ele><time>2026-04-15T13:40:43.97Z</time></trkpt><trkpt lat="45.7578286" lon="7.4300117"><ele>1317.7142857142856</ele><time>2026-04-15T13:40:47.026Z</time></trkpt><trkpt lat="45.7578485" lon="7.4299152"><ele>1321.0</ele><time>2026-04-15T13:40:49.962Z</time></trkpt><trkpt lat="45.7578743" lon="7.4298196"><ele>1321.0</ele><time>2026-04-15T13:40:52.966Z</time></trkpt><trkpt lat="45.7578983" lon="7.4297285"><ele>1321.0</ele><time>2026-04-15T13:40:55.959Z</time></trkpt><trkpt lat="45.7579298" lon="7.4296372"><ele>1321.0</ele><time>2026-04-15T13:40:59.066Z</time></trkpt><trkpt lat="45.7579667" lon="7.4295467"><ele>1321.0</ele><time>2026-04-15T13:41:02.045Z</time></trkpt><trkpt lat="45.757993" lon="7.4294478"><ele>1321.0</ele><time>2026-04-15T13:41:04.956Z</time></trkpt><trkpt lat="45.7580176" lon="7.4293496"><ele>1321.0</ele><time>2026-04-15T13:41:07.959Z</time></trkpt><trkpt lat="45.7580425" lon="7.429246"><ele>1321.0</ele><time>2026-04-15T13:41:10.958Z</time></trkpt><trkpt lat="45.7580537" lon="7.4291384"><ele>1320.6666666666665</ele><time>2026-04-15T13:41:13.959Z</time></trkpt><trkpt lat="45.7580622" lon="7.4290389"><ele>1320.3333333333333</ele><time>2026-04-15T13:41:16.955Z</time></trkpt><trkpt lat="45.7580822" lon="7.4289398"><ele>1320.0</ele><time>2026-04-15T13:41:19.993Z</time></trkpt><trkpt lat="45.7581055" lon="7.4288146"><ele>1319.6666666666667</ele><time>2026-04-15T13:41:23.967Z</time></trkpt><trkpt lat="45.7581181" lon="7.4287097"><ele>1319.3333333333335</ele><time>2026-04-15T13:41:26.973Z</time></trkpt><trkpt lat="45.7581368" lon="7.4286026"><ele>1319.0</ele><time>2026-04-15T13:41:29.959Z</time></trkpt><trkpt lat="45.7581519" lon="7.428494"><ele>1318.5714285714284</ele><time>2026-04-15T13:41:32.962Z</time></trkpt><trkpt lat="45.7581653" lon="7.4283887"><ele>1318.142857142857</ele><time>2026-04-15T13:41:35.961Z</time></trkpt><trkpt lat="45.7581824" lon="7.4282911"><ele>1317.7142857142858</ele><time>2026-04-15T13:41:38.963Z</time></trkpt><trkpt lat="45.7581996" lon="7.4281982"><ele>1317.2857142857142</ele><time>2026-04-15T13:41:41.947Z</time></trkpt><trkpt lat="45.758231" lon="7.4281196"><ele>1316.857142857143</ele><time>2026-04-15T13:41:44.952Z</time></trkpt><trkpt lat="45.758284" lon="7.4280303"><ele>1316.4285714285713</ele><time>2026-04-15T13:41:49.029Z</time></trkpt><trkpt lat="45.7583503" lon="7.4279648"><ele>1316.0</ele><time>2026-04-15T13:41:52.96Z</time></trkpt><trkpt lat="45.7584319" lon="7.4279709"><ele>1316.0</ele><time>2026-04-15T13:41:57.029Z</time></trkpt><trkpt lat="45.7584809" lon="7.4280373"><ele>1316.0</ele><time>2026-04-15T13:41:59.963Z</time></trkpt><trkpt lat="45.7584945" lon="7.428133"><ele>1316.0</ele><time>2026-04-15T13:42:03.045Z</time></trkpt><trkpt lat="45.7584948" lon="7.4282356"><ele>1316.0</ele><time>2026-04-15T13:42:05.971Z</time></trkpt><trkpt lat="45.7584957" lon="7.4283288"><ele>1316.0</ele><time>2026-04-15T13:42:08.984Z</time></trkpt><trkpt lat="45.7584842" lon="7.4284192"><ele>1316.0</ele><time>2026-04-15T13:42:11.997Z</time></trkpt><trkpt lat="45.7584741" lon="7.4285103"><ele>1316.0</ele><time>2026-04-15T13:42:14.963Z</time></trkpt><trkpt lat="45.7584624" lon="7.4286287"><ele>1316.0</ele><time>2026-04-15T13:42:18.964Z</time></trkpt><trkpt lat="45.7584511" lon="7.4287497"><ele>1316.0</ele><time>2026-04-15T13:42:22.961Z</time></trkpt><trkpt lat="45.7584488" lon="7.4288419"><ele>1316.0</ele><time>2026-04-15T13:42:25.953Z</time></trkpt><trkpt lat="45.7584777" lon="7.4289369"><ele>1316.0</ele><time>2026-04-15T13:42:28.962Z</time></trkpt><trkpt lat="45.7585021" lon="7.4290278"><ele>1316.0</ele><time>2026-04-15T13:42:31.959Z</time></trkpt><trkpt lat="45.7585114" lon="7.4291227"><ele>1316.0</ele><time>2026-04-15T13:42:34.96Z</time></trkpt><trkpt lat="45.7585386" lon="7.4292063"><ele>1316.0</ele><time>2026-04-15T13:42:37.956Z</time></trkpt><trkpt lat="45.7585547" lon="7.4292974"><ele>1320.5714285714287</ele><time>2026-04-15T13:42:40.971Z</time></trkpt><trkpt lat="45.7585732" lon="7.4294095"><ele>1325.142857142857</ele><time>2026-04-15T13:42:44.965Z</time></trkpt><trkpt lat="45.758604" lon="7.4295258"><ele>1329.7142857142858</ele><time>2026-04-15T13:42:48.974Z</time></trkpt><trkpt lat="45.7586164" lon="7.4296393"><ele>1334.2857142857142</ele><time>2026-04-15T13:42:52.966Z</time></trkpt><trkpt lat="45.7586335" lon="7.429728"><ele>1338.857142857143</ele><time>2026-04-15T13:42:55.967Z</time></trkpt><trkpt lat="45.7586547" lon="7.4298139"><ele>1343.4285714285716</ele><time>2026-04-15T13:42:58.969Z</time></trkpt><trkpt lat="45.7586735" lon="7.4299009"><ele>1348.0</ele><time>2026-04-15T13:43:01.965Z</time></trkpt><trkpt lat="45.758702" lon="7.4299834"><ele>1348.4285714285716</ele><time>2026-04-15T13:43:04.967Z</time></trkpt><trkpt lat="45.7587278" lon="7.430067"><ele>1348.857142857143</ele><time>2026-04-15T13:43:07.967Z</time></trkpt><trkpt lat="45.7587562" lon="7.4301797"><ele>1349.2857142857142</ele><time>2026-04-15T13:43:12.033Z</time></trkpt><trkpt lat="45.7587714" lon="7.4302681"><ele>1349.7142857142858</ele><time>2026-04-15T13:43:14.956Z</time></trkpt><trkpt lat="45.7587873" lon="7.4303566"><ele>1350.142857142857</ele><time>2026-04-15T13:43:17.955Z</time></trkpt><trkpt lat="45.7588009" lon="7.4304467"><ele>1350.5714285714287</ele><time>2026-04-15T13:43:20.953Z</time></trkpt><trkpt lat="45.7588198" lon="7.4305405"><ele>1351.0</ele><time>2026-04-15T13:43:23.96Z</time></trkpt><trkpt lat="45.7588272" lon="7.4306352"><ele>1351.7142857142858</ele><time>2026-04-15T13:43:26.963Z</time></trkpt><trkpt lat="45.7588373" lon="7.4307568"><ele>1352.4285714285716</ele><time>2026-04-15T13:43:30.959Z</time></trkpt><trkpt lat="45.7588447" lon="7.4308515"><ele>1353.142857142857</ele><time>2026-04-15T13:43:33.961Z</time></trkpt><trkpt lat="45.758848" lon="7.4309488"><ele>1353.857142857143</ele><time>2026-04-15T13:43:36.959Z</time></trkpt><trkpt lat="45.7588502" lon="7.4310426"><ele>1354.5714285714287</ele><time>2026-04-15T13:43:39.968Z</time></trkpt><trkpt lat="45.7588561" lon="7.4311384"><ele>1355.2857142857142</ele><time>2026-04-15T13:43:43.027Z</time></trkpt><trkpt lat="45.7588606" lon="7.4312386"><ele>1356.0</ele><time>2026-04-15T13:43:45.952Z</time></trkpt><trkpt lat="45.7588587" lon="7.4313297"><ele>1357.0</ele><time>2026-04-15T13:43:48.958Z</time></trkpt><trkpt lat="45.7588498" lon="7.4314312"><ele>1358.0</ele><time>2026-04-15T13:43:52.013Z</time></trkpt><trkpt lat="45.7588411" lon="7.4315301"><ele>1359.0</ele><time>2026-04-15T13:43:54.957Z</time></trkpt><trkpt lat="45.758834" lon="7.4316301"><ele>1360.0</ele><time>2026-04-15T13:43:57.958Z</time></trkpt><trkpt lat="45.7588366" lon="7.4317357"><ele>1361.0</ele><time>2026-04-15T13:44:00.956Z</time></trkpt><trkpt lat="45.7588453" lon="7.4318404"><ele>1362.0</ele><time>2026-04-15T13:44:03.973Z</time></trkpt><trkpt lat="45.7588348" lon="7.4319424"><ele>1363.0</ele><time>2026-04-15T13:44:06.956Z</time></trkpt><trkpt lat="45.7588087" lon="7.432041"><ele>1363.0</ele><time>2026-04-15T13:44:09.964Z</time></trkpt><trkpt lat="45.7587758" lon="7.4321303"><ele>1363.0</ele><time>2026-04-15T13:44:13.035Z</time></trkpt><trkpt lat="45.7587511" lon="7.4322176"><ele>1363.0</ele><time>2026-04-15T13:44:15.957Z</time></trkpt><trkpt lat="45.7587475" lon="7.4323132"><ele>1363.0</ele><time>2026-04-15T13:44:18.957Z</time></trkpt><trkpt lat="45.7587495" lon="7.4324115"><ele>1363.0</ele><time>2026-04-15T13:44:22.042Z</time></trkpt><trkpt lat="45.7587601" lon="7.4325097"><ele>1363.0</ele><time>2026-04-15T13:44:24.967Z</time></trkpt><trkpt lat="45.7587714" lon="7.4326066"><ele>1363.0</ele><time>2026-04-15T13:44:27.963Z</time></trkpt><trkpt lat="45.7587814" lon="7.4327044"><ele>1364.0</ele><time>2026-04-15T13:44:31.025Z</time></trkpt><trkpt lat="45.758794" lon="7.4328039"><ele>1365.0</ele><time>2026-04-15T13:44:33.961Z</time></trkpt><trkpt lat="45.7588046" lon="7.4328941"><ele>1366.0</ele><time>2026-04-15T13:44:36.961Z</time></trkpt><trkpt lat="45.7588204" lon="7.4329869"><ele>1367.0</ele><time>2026-04-15T13:44:39.961Z</time></trkpt><trkpt lat="45.758829" lon="7.433084"><ele>1368.0</ele><time>2026-04-15T13:44:43.025Z</time></trkpt><trkpt lat="45.7588523" lon="7.4331794"><ele>1369.0</ele><time>2026-04-15T13:44:45.958Z</time></trkpt><trkpt lat="45.7588761" lon="7.4332646"><ele>1370.0</ele><time>2026-04-15T13:44:48.961Z</time></trkpt><trkpt lat="45.7589003" lon="7.433357"><ele>1370.4285714285713</ele><time>2026-04-15T13:44:52.042Z</time></trkpt><trkpt lat="45.7589101" lon="7.4334462"><ele>1370.857142857143</ele><time>2026-04-15T13:44:54.964Z</time></trkpt><trkpt lat="45.7588943" lon="7.4335425"><ele>1371.2857142857142</ele><time>2026-04-15T13:44:57.951Z</time></trkpt><trkpt lat="45.7588708" lon="7.4336369"><ele>1371.7142857142858</ele><time>2026-04-15T13:45:00.944Z</time></trkpt><trkpt lat="45.7588453" lon="7.4337319"><ele>1372.142857142857</ele><time>2026-04-15T13:45:04.046Z</time></trkpt><trkpt lat="45.7588282" lon="7.4338257"><ele>1372.5714285714287</ele><time>2026-04-15T13:45:06.966Z</time></trkpt><trkpt lat="45.7588282" lon="7.433924"><ele>1373.0</ele><time>2026-04-15T13:45:09.954Z</time></trkpt><trkpt lat="45.7588749" lon="7.433989"><ele>1373.0</ele><time>2026-04-15T13:45:12.956Z</time></trkpt><trkpt lat="45.7589471" lon="7.4339679"><ele>1373.0</ele><time>2026-04-15T13:45:15.952Z</time></trkpt><trkpt lat="45.7590106" lon="7.433931"><ele>1373.0</ele><time>2026-04-15T13:45:18.956Z</time></trkpt><trkpt lat="45.7590676" lon="7.433892"><ele>1373.0</ele><time>2026-04-15T13:45:21.956Z</time></trkpt><trkpt lat="45.7591272" lon="7.4338379"><ele>1373.0</ele><time>2026-04-15T13:45:24.97Z</time></trkpt><trkpt lat="45.7591742" lon="7.4337627"><ele>1373.0</ele><time>2026-04-15T13:45:27.965Z</time></trkpt><trkpt lat="45.7592016" lon="7.4336756"><ele>1373.0</ele><time>2026-04-15T13:45:30.975Z</time></trkpt><trkpt lat="45.759221" lon="7.4335864"><ele>1373.0</ele><time>2026-04-15T13:45:34.032Z</time></trkpt><trkpt lat="45.7592711" lon="7.4335156"><ele>1373.0</ele><time>2026-04-15T13:45:36.956Z</time></trkpt><trkpt lat="45.7593371" lon="7.4334696"><ele>1373.0</ele><time>2026-04-15T13:45:39.961Z</time></trkpt><trkpt lat="45.7593996" lon="7.4334263"><ele>1373.0</ele><time>2026-04-15T13:45:42.991Z</time></trkpt><trkpt lat="45.7594594" lon="7.4333781"><ele>1373.0</ele><time>2026-04-15T13:45:45.959Z</time></trkpt><trkpt lat="45.7595169" lon="7.4333304"><ele>1373.0</ele><time>2026-04-15T13:45:48.964Z</time></trkpt><trkpt lat="45.759569" lon="7.4332771"><ele>1373.0</ele><time>2026-04-15T13:45:51.962Z</time></trkpt><trkpt lat="45.7596253" lon="7.4332206"><ele>1374.7142857142858</ele><time>2026-04-15T13:45:54.952Z</time></trkpt><trkpt lat="45.7596901" lon="7.4331794"><ele>1376.4285714285713</ele><time>2026-04-15T13:45:57.954Z</time></trkpt><trkpt lat="45.759753" lon="7.4331356"><ele>1378.142857142857</ele><time>2026-04-15T13:46:00.936Z</time></trkpt><trkpt lat="45.7598142" lon="7.4331048"><ele>1379.857142857143</ele><time>2026-04-15T13:46:02.952Z</time></trkpt><trkpt lat="45.7598898" lon="7.4330573"><ele>1381.5714285714287</ele><time>2026-04-15T13:46:05.953Z</time></trkpt><trkpt lat="45.7599555" lon="7.4329988"><ele>1383.2857142857142</ele><time>2026-04-15T13:46:09.956Z</time></trkpt><trkpt lat="45.7599854" lon="7.432889"><ele>1385.0</ele><time>2026-04-15T13:46:13.947Z</time></trkpt><trkpt lat="45.7599911" lon="7.432799"><ele>1385.0</ele><time>2026-04-15T13:46:15.954Z</time></trkpt><trkpt lat="45.7599944" lon="7.4326714"><ele>1385.0</ele><time>2026-04-15T13:46:17.957Z</time></trkpt><trkpt lat="45.7600027" lon="7.4325443"><ele>1385.0</ele><time>2026-04-15T13:46:19.938Z</time></trkpt><trkpt lat="45.7600393" lon="7.4324531"><ele>1385.0</ele><time>2026-04-15T13:46:21.967Z</time></trkpt><trkpt lat="45.7600727" lon="7.4323472"><ele>1385.0</ele><time>2026-04-15T13:46:24.952Z</time></trkpt><trkpt lat="45.7600876" lon="7.4322368"><ele>1385.0</ele><time>2026-04-15T13:46:27.946Z</time></trkpt><trkpt lat="45.7600937" lon="7.4321278"><ele>1385.142857142857</ele><time>2026-04-15T13:46:31.038Z</time></trkpt><trkpt lat="45.7600926" lon="7.4320189"><ele>1385.2857142857142</ele><time>2026-04-15T13:46:33.955Z</time></trkpt><trkpt lat="45.7600929" lon="7.4319131"><ele>1385.4285714285716</ele><time>2026-04-15T13:46:37.071Z</time></trkpt><trkpt lat="45.7600755" lon="7.4318248"><ele>1385.5714285714284</ele><time>2026-04-15T13:46:38.962Z</time></trkpt><trkpt lat="45.7600635" lon="7.4317141"><ele>1385.7142857142858</ele><time>2026-04-15T13:46:41.95Z</time></trkpt><trkpt lat="45.7600744" lon="7.4316026"><ele>1385.857142857143</ele><time>2026-04-15T13:46:44.957Z</time></trkpt><trkpt lat="45.7600967" lon="7.4314958"><ele>1386.0</ele><time>2026-04-15T13:46:47.955Z</time></trkpt><trkpt lat="45.7601156" lon="7.4313987"><ele>1385.6</ele><time>2026-04-15T13:46:51.025Z</time></trkpt><trkpt lat="45.7601403" lon="7.4312818"><ele>1385.1999999999998</ele><time>2026-04-15T13:46:53.958Z</time></trkpt><trkpt lat="45.7601613" lon="7.4311766"><ele>1384.8000000000002</ele><time>2026-04-15T13:46:55.955Z</time></trkpt><trkpt lat="45.7601996" lon="7.4310561"><ele>1384.4</ele><time>2026-04-15T13:46:57.976Z</time></trkpt><trkpt lat="45.7602322" lon="7.4309131"><ele>1384.0</ele><time>2026-04-15T13:46:59.955Z</time></trkpt><trkpt lat="45.7602535" lon="7.4307779"><ele>1387.0</ele><time>2026-04-15T13:47:02.014Z</time></trkpt><trkpt lat="45.7602579" lon="7.4306551"><ele>1390.0</ele><time>2026-04-15T13:47:03.961Z</time></trkpt><trkpt lat="45.7602639" lon="7.4305613"><ele>1393.0</ele><time>2026-04-15T13:47:05.958Z</time></trkpt><trkpt lat="45.7602663" lon="7.4304539"><ele>1396.0</ele><time>2026-04-15T13:47:08.955Z</time></trkpt><trkpt lat="45.760267" lon="7.4303536"><ele>1399.0</ele><time>2026-04-15T13:47:11.95Z</time></trkpt><trkpt lat="45.760258" lon="7.4302418"><ele>1402.0</ele><time>2026-04-15T13:47:14.956Z</time></trkpt><trkpt lat="45.7602642" lon="7.4301384"><ele>1405.0</ele><time>2026-04-15T13:47:18.951Z</time></trkpt><trkpt lat="45.760255" lon="7.4300333"><ele>1405.0</ele><time>2026-04-15T13:47:21.947Z</time></trkpt><trkpt lat="45.760254" lon="7.4299295"><ele>1405.0</ele><time>2026-04-15T13:47:23.952Z</time></trkpt><trkpt lat="45.7602602" lon="7.4298203"><ele>1405.0</ele><time>2026-04-15T13:47:26.946Z</time></trkpt><trkpt lat="45.7602745" lon="7.4297263"><ele>1405.0</ele><time>2026-04-15T13:47:29.953Z</time></trkpt><trkpt lat="45.760305" lon="7.4296288"><ele>1405.0</ele><time>2026-04-15T13:47:32.947Z</time></trkpt><trkpt lat="45.7603328" lon="7.4295298"><ele>1405.0</ele><time>2026-04-15T13:47:35.947Z</time></trkpt><trkpt lat="45.7603611" lon="7.4294458"><ele>1405.0</ele><time>2026-04-15T13:47:38.948Z</time></trkpt><trkpt lat="45.7603789" lon="7.429346"><ele>1405.142857142857</ele><time>2026-04-15T13:49:12.956Z</time></trkpt><trkpt lat="45.7604034" lon="7.4292583"><ele>1405.2857142857144</ele><time>2026-04-15T13:49:15.957Z</time></trkpt><trkpt lat="45.760423" lon="7.4291713"><ele>1405.4285714285716</ele><time>2026-04-15T13:49:18.955Z</time></trkpt><trkpt lat="45.7604355" lon="7.4290754"><ele>1405.5714285714284</ele><time>2026-04-15T13:49:21.959Z</time></trkpt><trkpt lat="45.7604504" lon="7.428984"><ele>1405.7142857142858</ele><time>2026-04-15T13:49:24.955Z</time></trkpt><trkpt lat="45.760458" lon="7.4288788"><ele>1405.857142857143</ele><time>2026-04-15T13:49:27.957Z</time></trkpt><trkpt lat="45.7604738" lon="7.4287746"><ele>1406.0</ele><time>2026-04-15T13:49:30.99Z</time></trkpt><trkpt lat="45.7604914" lon="7.4286644"><ele>1405.5714285714284</ele><time>2026-04-15T13:49:33.951Z</time></trkpt><trkpt lat="45.7605051" lon="7.4285614"><ele>1405.142857142857</ele><time>2026-04-15T13:49:36.957Z</time></trkpt><trkpt lat="45.7605216" lon="7.4284611"><ele>1404.7142857142858</ele><time>2026-04-15T13:49:39.957Z</time></trkpt><trkpt lat="45.760526" lon="7.4283581"><ele>1404.2857142857142</ele><time>2026-04-15T13:49:42.958Z</time></trkpt><trkpt lat="45.7605197" lon="7.4282663"><ele>1403.857142857143</ele><time>2026-04-15T13:49:45.955Z</time></trkpt><trkpt lat="45.760529" lon="7.428176"><ele>1403.4285714285713</ele><time>2026-04-15T13:49:48.954Z</time></trkpt><trkpt lat="45.7605566" lon="7.4280907"><ele>1403.0</ele><time>2026-04-15T13:49:51.96Z</time></trkpt><trkpt lat="45.7605905" lon="7.4279817"><ele>1403.2857142857142</ele><time>2026-04-15T13:49:55.957Z</time></trkpt><trkpt lat="45.7606273" lon="7.4278924"><ele>1403.5714285714284</ele><time>2026-04-15T13:49:58.949Z</time></trkpt><trkpt lat="45.7606555" lon="7.4278054"><ele>1403.8571428571427</ele><time>2026-04-15T13:50:01.955Z</time></trkpt><trkpt lat="45.7606885" lon="7.4277189"><ele>1404.142857142857</ele><time>2026-04-15T13:50:04.963Z</time></trkpt><trkpt lat="45.7607265" lon="7.4276372"><ele>1404.4285714285716</ele><time>2026-04-15T13:50:07.965Z</time></trkpt><trkpt lat="45.7607595" lon="7.4275576"><ele>1404.7142857142856</ele><time>2026-04-15T13:50:10.969Z</time></trkpt><trkpt lat="45.760803" lon="7.4274895"><ele>1405.0</ele><time>2026-04-15T13:50:13.971Z</time></trkpt><trkpt lat="45.7608486" lon="7.427427"><ele>1405.0</ele><time>2026-04-15T13:50:16.971Z</time></trkpt><trkpt lat="45.7608974" lon="7.4273658"><ele>1405.0</ele><time>2026-04-15T13:50:19.97Z</time></trkpt><trkpt lat="45.7609529" lon="7.4273008"><ele>1405.0</ele><time>2026-04-15T13:50:23.03Z</time></trkpt><trkpt lat="45.761005" lon="7.4272497"><ele>1405.0</ele><time>2026-04-15T13:50:25.949Z</time></trkpt><trkpt lat="45.761063" lon="7.4271922"><ele>1405.0</ele><time>2026-04-15T13:50:28.956Z</time></trkpt><trkpt lat="45.7611143" lon="7.427138"><ele>1405.0</ele><time>2026-04-15T13:50:32.03Z</time></trkpt><trkpt lat="45.7611599" lon="7.4270627"><ele>1405.0</ele><time>2026-04-15T13:50:34.961Z</time></trkpt><trkpt lat="45.7611989" lon="7.4269547"><ele>1408.4285714285713</ele><time>2026-04-15T13:50:38.959Z</time></trkpt><trkpt lat="45.7612103" lon="7.426859"><ele>1411.857142857143</ele><time>2026-04-15T13:50:41.96Z</time></trkpt><trkpt lat="45.7612133" lon="7.4267567"><ele>1415.2857142857142</ele><time>2026-04-15T13:50:44.959Z</time></trkpt><trkpt lat="45.7612043" lon="7.4266666"><ele>1418.7142857142858</ele><time>2026-04-15T13:50:47.958Z</time></trkpt><trkpt lat="45.7611912" lon="7.4265779"><ele>1422.142857142857</ele><time>2026-04-15T13:50:51.033Z</time></trkpt><trkpt lat="45.7611831" lon="7.4264861"><ele>1425.5714285714287</ele><time>2026-04-15T13:50:53.955Z</time></trkpt><trkpt lat="45.7611873" lon="7.4263769"><ele>1429.0</ele><time>2026-04-15T13:50:56.953Z</time></trkpt><trkpt lat="45.761197" lon="7.4262852"><ele>1429.0</ele><time>2026-04-15T13:50:59.955Z</time></trkpt><trkpt lat="45.7612036" lon="7.4261839"><ele>1429.0</ele><time>2026-04-15T13:51:02.954Z</time></trkpt><trkpt lat="45.7612175" lon="7.4260914"><ele>1429.0</ele><time>2026-04-15T13:51:05.956Z</time></trkpt><trkpt lat="45.7612346" lon="7.4259983"><ele>1429.0</ele><time>2026-04-15T13:51:08.95Z</time></trkpt><trkpt lat="45.7612474" lon="7.4258972"><ele>1429.0</ele><time>2026-04-15T13:51:12.037Z</time></trkpt><trkpt lat="45.7612584" lon="7.4257954"><ele>1429.0</ele><time>2026-04-15T13:51:14.958Z</time></trkpt><trkpt lat="45.7612647" lon="7.4256977"><ele>1429.0</ele><time>2026-04-15T13:51:17.957Z</time></trkpt><trkpt lat="45.7612645" lon="7.4255986"><ele>1429.0</ele><time>2026-04-15T13:51:20.955Z</time></trkpt><trkpt lat="45.7612525" lon="7.4254996"><ele>1429.0</ele><time>2026-04-15T13:51:23.95Z</time></trkpt><trkpt lat="45.7612339" lon="7.4254056"><ele>1429.0</ele><time>2026-04-15T13:51:26.954Z</time></trkpt><trkpt lat="45.7612085" lon="7.4253173"><ele>1429.0</ele><time>2026-04-15T13:51:29.958Z</time></trkpt><trkpt lat="45.7611951" lon="7.4252228"><ele>1429.0</ele><time>2026-04-15T13:51:33.047Z</time></trkpt><trkpt lat="45.7611887" lon="7.4251154"><ele>1429.0</ele><time>2026-04-15T13:51:35.964Z</time></trkpt><trkpt lat="45.7611946" lon="7.4250113"><ele>1429.0</ele><time>2026-04-15T13:51:38.963Z</time></trkpt><trkpt lat="45.7612151" lon="7.4249063"><ele>1429.2857142857142</ele><time>2026-04-15T13:51:41.958Z</time></trkpt><trkpt lat="45.7612318" lon="7.4248103"><ele>1429.5714285714284</ele><time>2026-04-15T13:51:44.948Z</time></trkpt><trkpt lat="45.7612553" lon="7.4246961"><ele>1429.8571428571427</ele><time>2026-04-15T13:51:48.954Z</time></trkpt><trkpt lat="45.7612603" lon="7.4246028"><ele>1430.142857142857</ele><time>2026-04-15T13:51:51.952Z</time></trkpt><trkpt lat="45.7612745" lon="7.4245131"><ele>1430.4285714285713</ele><time>2026-04-15T13:51:54.961Z</time></trkpt><trkpt lat="45.7612869" lon="7.4244231"><ele>1430.7142857142856</ele><time>2026-04-15T13:51:57.965Z</time></trkpt><trkpt lat="45.7613027" lon="7.42433"><ele>1431.0</ele><time>2026-04-15T13:52:00.956Z</time></trkpt><trkpt lat="45.76132" lon="7.424234"><ele>1430.9999999999998</ele><time>2026-04-15T13:52:04.047Z</time></trkpt><trkpt lat="45.7613359" lon="7.4241466"><ele>1431.0</ele><time>2026-04-15T13:52:06.96Z</time></trkpt><trkpt lat="45.7613545" lon="7.4240576"><ele>1431.0</ele><time>2026-04-15T13:52:09.969Z</time></trkpt><trkpt lat="45.7613728" lon="7.4239649"><ele>1431.0</ele><time>2026-04-15T13:52:13.036Z</time></trkpt><trkpt lat="45.7613895" lon="7.4238677"><ele>1431.0</ele><time>2026-04-15T13:52:15.957Z</time></trkpt><trkpt lat="45.7614105" lon="7.4237805"><ele>1430.9999999999998</ele><time>2026-04-15T13:52:19.064Z</time></trkpt><trkpt lat="45.7614299" lon="7.4236933"><ele>1431.0</ele><time>2026-04-15T13:52:21.955Z</time></trkpt><trkpt lat="45.7614495" lon="7.4236011"><ele>1430.4285714285713</ele><time>2026-04-15T13:52:24.945Z</time></trkpt><trkpt lat="45.761473" lon="7.4235087"><ele>1429.857142857143</ele><time>2026-04-15T13:52:27.947Z</time></trkpt><trkpt lat="45.7614925" lon="7.4234214"><ele>1429.2857142857142</ele><time>2026-04-15T13:52:30.961Z</time></trkpt><trkpt lat="45.7615167" lon="7.4233347"><ele>1428.7142857142858</ele><time>2026-04-15T13:52:33.949Z</time></trkpt><trkpt lat="45.7615433" lon="7.4232509"><ele>1428.142857142857</ele><time>2026-04-15T13:52:36.948Z</time></trkpt><trkpt lat="45.7615731" lon="7.4231456"><ele>1427.5714285714284</ele><time>2026-04-15T13:52:40.955Z</time></trkpt><trkpt lat="45.7616137" lon="7.4230394"><ele>1427.0</ele><time>2026-04-15T13:52:44.951Z</time></trkpt><trkpt lat="45.7616479" lon="7.4229382"><ele>1425.7142857142858</ele><time>2026-04-15T13:52:48.948Z</time></trkpt><trkpt lat="45.7616851" lon="7.4228368"><ele>1424.4285714285716</ele><time>2026-04-15T13:52:52.947Z</time></trkpt><trkpt lat="45.7617107" lon="7.4227523"><ele>1423.1428571428573</ele><time>2026-04-15T13:52:55.944Z</time></trkpt><trkpt lat="45.7617442" lon="7.4226432"><ele>1421.857142857143</ele><time>2026-04-15T13:52:59.95Z</time></trkpt><trkpt lat="45.7617691" lon="7.4225574"><ele>1420.5714285714287</ele><time>2026-04-15T13:53:02.994Z</time></trkpt><trkpt lat="45.7617995" lon="7.4224736"><ele>1419.2857142857144</ele><time>2026-04-15T13:53:05.947Z</time></trkpt><trkpt lat="45.7618284" lon="7.4223612"><ele>1418.0</ele><time>2026-04-15T13:53:09.943Z</time></trkpt><trkpt lat="45.7618492" lon="7.4222755"><ele>1422.5714285714287</ele><time>2026-04-15T13:53:12.945Z</time></trkpt><trkpt lat="45.7618859" lon="7.4221706"><ele>1427.142857142857</ele><time>2026-04-15T13:53:16.953Z</time></trkpt><trkpt lat="45.7619297" lon="7.422095"><ele>1431.7142857142858</ele><time>2026-04-15T13:53:19.948Z</time></trkpt><trkpt lat="45.7619847" lon="7.4220069"><ele>1436.2857142857142</ele><time>2026-04-15T13:53:23.954Z</time></trkpt><trkpt lat="45.762029" lon="7.4219396"><ele>1440.857142857143</ele><time>2026-04-15T13:53:26.948Z</time></trkpt><trkpt lat="45.7620782" lon="7.4218678"><ele>1445.4285714285716</ele><time>2026-04-15T13:53:30.949Z</time></trkpt><trkpt lat="45.7621204" lon="7.4217955"><ele>1450.0</ele><time>2026-04-15T13:53:34.946Z</time></trkpt><trkpt lat="45.7621577" lon="7.4217115"><ele>1450.0</ele><time>2026-04-15T13:53:38.946Z</time></trkpt><trkpt lat="45.7621921" lon="7.4216111"><ele>1450.0</ele><time>2026-04-15T13:53:43.948Z</time></trkpt><trkpt lat="45.7622175" lon="7.421503"><ele>1450.0</ele><time>2026-04-15T13:53:48.951Z</time></trkpt><trkpt lat="45.7622272" lon="7.4214109"><ele>1450.0</ele><time>2026-04-15T13:53:52.949Z</time></trkpt><trkpt lat="45.7622505" lon="7.4213149"><ele>1450.0</ele><time>2026-04-15T13:53:56.976Z</time></trkpt><trkpt lat="45.7622856" lon="7.4212223"><ele>1450.0</ele><time>2026-04-15T13:54:00.971Z</time></trkpt><trkpt lat="45.7623145" lon="7.4211346"><ele>1450.0</ele><time>2026-04-15T13:54:04.975Z</time></trkpt><trkpt lat="45.762348" lon="7.4210345"><ele>1449.857142857143</ele><time>2026-04-15T13:54:08.97Z</time></trkpt><trkpt lat="45.7623799" lon="7.420942"><ele>1449.7142857142858</ele><time>2026-04-15T13:54:13.029Z</time></trkpt><trkpt lat="45.7624073" lon="7.4208497"><ele>1449.5714285714284</ele><time>2026-04-15T13:54:16.947Z</time></trkpt><trkpt lat="45.7624335" lon="7.4207432"><ele>1449.4285714285716</ele><time>2026-04-15T13:54:20.955Z</time></trkpt><trkpt lat="45.762451" lon="7.4206499"><ele>1449.2857142857142</ele><time>2026-04-15T13:54:24.95Z</time></trkpt><trkpt lat="45.7624579" lon="7.4205533"><ele>1449.142857142857</ele><time>2026-04-15T13:54:28.961Z</time></trkpt><trkpt lat="45.7624633" lon="7.4204483"><ele>1449.0</ele><time>2026-04-15T13:54:33.035Z</time></trkpt><trkpt lat="45.7624719" lon="7.4203524"><ele>1449.2857142857142</ele><time>2026-04-15T13:54:36.956Z</time></trkpt><trkpt lat="45.7624905" lon="7.4202457"><ele>1449.5714285714284</ele><time>2026-04-15T13:54:41.027Z</time></trkpt><trkpt lat="45.7625006" lon="7.420146"><ele>1449.857142857143</ele><time>2026-04-15T13:54:44.954Z</time></trkpt><trkpt lat="45.7625022" lon="7.420044"><ele>1450.142857142857</ele><time>2026-04-15T13:54:48.963Z</time></trkpt><trkpt lat="45.7624957" lon="7.4199395"><ele>1450.4285714285713</ele><time>2026-04-15T13:54:52.986Z</time></trkpt><trkpt lat="45.7624943" lon="7.4198352"><ele>1450.7142857142858</ele><time>2026-04-15T13:54:56.956Z</time></trkpt><trkpt lat="45.7624887" lon="7.4197388"><ele>1451.0</ele><time>2026-04-15T13:55:00.955Z</time></trkpt><trkpt lat="45.7624884" lon="7.4196319"><ele>1452.5714285714287</ele><time>2026-04-15T13:55:04.947Z</time></trkpt><trkpt lat="45.7624784" lon="7.4195301"><ele>1454.142857142857</ele><time>2026-04-15T13:55:08.96Z</time></trkpt><trkpt lat="45.7624664" lon="7.419434"><ele>1455.7142857142858</ele><time>2026-04-15T13:55:12.998Z</time></trkpt><trkpt lat="45.7624609" lon="7.4193217"><ele>1457.2857142857142</ele><time>2026-04-15T13:55:17.953Z</time></trkpt><trkpt lat="45.762446" lon="7.4192232"><ele>1458.8571428571427</ele><time>2026-04-15T13:55:21.947Z</time></trkpt><trkpt lat="45.7624409" lon="7.4191331"><ele>1460.4285714285713</ele><time>2026-04-15T13:55:25.954Z</time></trkpt><trkpt lat="45.7624322" lon="7.4190403"><ele>1462.0</ele><time>2026-04-15T13:55:29.94Z</time></trkpt><trkpt lat="45.7624156" lon="7.4189528"><ele>1462.0</ele><time>2026-04-15T13:55:33.953Z</time></trkpt><trkpt lat="45.7623951" lon="7.4188567"><ele>1462.0</ele><time>2026-04-15T13:55:37.951Z</time></trkpt><trkpt lat="45.7623675" lon="7.4187671"><ele>1462.0</ele><time>2026-04-15T13:55:41.948Z</time></trkpt><trkpt lat="45.7623323" lon="7.4186802"><ele>1462.0</ele><time>2026-04-15T13:55:45.95Z</time></trkpt><trkpt lat="45.762297" lon="7.4185804"><ele>1462.0</ele><time>2026-04-15T13:55:50.957Z</time></trkpt><trkpt lat="45.7622691" lon="7.418499"><ele>1462.0</ele><time>2026-04-15T13:55:54.952Z</time></trkpt><trkpt lat="45.7622338" lon="7.4184063"><ele>1462.0</ele><time>2026-04-15T13:55:58.955Z</time></trkpt><trkpt lat="45.7622052" lon="7.4183133"><ele>1464.0</ele><time>2026-04-15T13:56:02.955Z</time></trkpt><trkpt lat="45.7621771" lon="7.4182071"><ele>1466.0</ele><time>2026-04-15T13:56:07.949Z</time></trkpt><trkpt lat="45.7621577" lon="7.4181171"><ele>1468.0</ele><time>2026-04-15T13:56:11.951Z</time></trkpt><trkpt lat="45.7621402" lon="7.4180176"><ele>1470.0</ele><time>2026-04-15T13:56:15.954Z</time></trkpt><trkpt lat="45.7621269" lon="7.4179228"><ele>1472.0</ele><time>2026-04-15T13:56:19.956Z</time></trkpt><trkpt lat="45.7621131" lon="7.4178245"><ele>1474.0</ele><time>2026-04-15T13:56:23.954Z</time></trkpt><trkpt lat="45.7620955" lon="7.4177214"><ele>1476.0</ele><time>2026-04-15T13:56:28.049Z</time></trkpt><trkpt lat="45.7620734" lon="7.4176291"><ele>1478.5714285714284</ele><time>2026-04-15T13:56:31.959Z</time></trkpt><trkpt lat="45.7620441" lon="7.4175339"><ele>1481.142857142857</ele><time>2026-04-15T13:56:35.953Z</time></trkpt><trkpt lat="45.7620292" lon="7.4174419"><ele>1483.7142857142858</ele><time>2026-04-15T13:56:39.946Z</time></trkpt><trkpt lat="45.762007" lon="7.4173521"><ele>1486.2857142857142</ele><time>2026-04-15T13:56:43.952Z</time></trkpt><trkpt lat="45.7619908" lon="7.4172484"><ele>1488.857142857143</ele><time>2026-04-15T13:56:48.038Z</time></trkpt><trkpt lat="45.7619666" lon="7.4171532"><ele>1491.4285714285713</ele><time>2026-04-15T13:56:51.95Z</time></trkpt><trkpt lat="45.7619437" lon="7.4170646"><ele>1494.0</ele><time>2026-04-15T13:56:55.947Z</time></trkpt><trkpt lat="45.7619113" lon="7.4169814"><ele>1496.8571428571427</ele><time>2026-04-15T13:56:59.965Z</time></trkpt><trkpt lat="45.761891" lon="7.4168899"><ele>1499.7142857142858</ele><time>2026-04-15T13:57:03.961Z</time></trkpt><trkpt lat="45.7618813" lon="7.4167915"><ele>1502.5714285714284</ele><time>2026-04-15T13:57:07.961Z</time></trkpt><trkpt lat="45.7618881" lon="7.416693"><ele>1505.4285714285713</ele><time>2026-04-15T13:57:11.96Z</time></trkpt><trkpt lat="45.761891" lon="7.4165916"><ele>1508.2857142857142</ele><time>2026-04-15T13:57:15.96Z</time></trkpt><trkpt lat="45.7618891" lon="7.4164902"><ele>1511.142857142857</ele><time>2026-04-15T13:57:19.962Z</time></trkpt><trkpt lat="45.7618818" lon="7.4163821"><ele>1514.0</ele><time>2026-04-15T13:57:23.959Z</time></trkpt><trkpt lat="45.7618805" lon="7.4162815"><ele>1515.0</ele><time>2026-04-15T13:57:28.031Z</time></trkpt><trkpt lat="45.7618688" lon="7.4161793"><ele>1516.0</ele><time>2026-04-15T13:57:31.948Z</time></trkpt><trkpt lat="45.7618619" lon="7.4160779"><ele>1517.0</ele><time>2026-04-15T13:57:35.95Z</time></trkpt><trkpt lat="45.7618541" lon="7.4159665"><ele>1518.0</ele><time>2026-04-15T13:57:39.964Z</time></trkpt><trkpt lat="45.7618491" lon="7.4158588"><ele>1519.0</ele><time>2026-04-15T13:57:43.963Z</time></trkpt><trkpt lat="45.7618539" lon="7.4157545"><ele>1520.0</ele><time>2026-04-15T13:57:48.028Z</time></trkpt><trkpt lat="45.7618732" lon="7.4156524"><ele>1521.0</ele><time>2026-04-15T13:57:51.954Z</time></trkpt><trkpt lat="45.7619043" lon="7.4155472"><ele>1519.3333333333333</ele><time>2026-04-15T13:57:55.949Z</time></trkpt><trkpt lat="45.7619356" lon="7.4154498"><ele>1517.6666666666667</ele><time>2026-04-15T13:57:59.96Z</time></trkpt><trkpt lat="45.7619595" lon="7.4153464"><ele>1516.0</ele><time>2026-04-15T13:58:03.956Z</time></trkpt><trkpt lat="45.761991" lon="7.4152481"><ele>1514.3333333333335</ele><time>2026-04-15T13:58:08.04Z</time></trkpt><trkpt lat="45.7620148" lon="7.415143"><ele>1512.6666666666667</ele><time>2026-04-15T13:58:11.967Z</time></trkpt><trkpt lat="45.7620434" lon="7.4150425"><ele>1511.0</ele><time>2026-04-15T13:58:15.952Z</time></trkpt><trkpt lat="45.7620852" lon="7.4149486"><ele>1511.0</ele><time>2026-04-15T13:58:19.959Z</time></trkpt><trkpt lat="45.7621375" lon="7.4148672"><ele>1511.0</ele><time>2026-04-15T13:58:23.954Z</time></trkpt><trkpt lat="45.7621825" lon="7.4148019"><ele>1511.0</ele><time>2026-04-15T13:58:26.952Z</time></trkpt><trkpt lat="45.7622349" lon="7.414716"><ele>1511.0</ele><time>2026-04-15T13:58:30.957Z</time></trkpt><trkpt lat="45.7622859" lon="7.4146369"><ele>1511.0</ele><time>2026-04-15T13:58:34.95Z</time></trkpt><trkpt lat="45.7623425" lon="7.4145607"><ele>1511.0</ele><time>2026-04-15T13:58:38.948Z</time></trkpt><trkpt lat="45.762396" lon="7.4144761"><ele>1508.4285714285713</ele><time>2026-04-15T13:58:42.947Z</time></trkpt><trkpt lat="45.7624451" lon="7.4144015"><ele>1505.8571428571427</ele><time>2026-04-15T13:58:46.947Z</time></trkpt><trkpt lat="45.7624935" lon="7.4143155"><ele>1503.2857142857142</ele><time>2026-04-15T13:58:50.96Z</time></trkpt><trkpt lat="45.7625297" lon="7.4142329"><ele>1500.7142857142858</ele><time>2026-04-15T13:58:54.954Z</time></trkpt><trkpt lat="45.7625648" lon="7.4141411"><ele>1498.142857142857</ele><time>2026-04-15T13:58:58.955Z</time></trkpt><trkpt lat="45.7626108" lon="7.4140489"><ele>1495.5714285714287</ele><time>2026-04-15T13:59:02.954Z</time></trkpt><trkpt lat="45.7626738" lon="7.4139788"><ele>1493.0</ele><time>2026-04-15T13:59:06.953Z</time></trkpt><trkpt lat="45.7627376" lon="7.4139189"><ele>1496.857142857143</ele><time>2026-04-15T13:59:10.963Z</time></trkpt><trkpt lat="45.7628068" lon="7.4138916"><ele>1500.7142857142856</ele><time>2026-04-15T13:59:14.952Z</time></trkpt><trkpt lat="45.7628651" lon="7.4138509"><ele>1504.5714285714284</ele><time>2026-04-15T13:59:18.956Z</time></trkpt><trkpt lat="45.7629396" lon="7.413807"><ele>1508.4285714285716</ele><time>2026-04-15T13:59:22.955Z</time></trkpt><trkpt lat="45.7629999" lon="7.4137344"><ele>1512.2857142857142</ele><time>2026-04-15T13:59:26.96Z</time></trkpt><trkpt lat="45.7630406" lon="7.4136492"><ele>1516.142857142857</ele><time>2026-04-15T13:59:30.96Z</time></trkpt><trkpt lat="45.7630585" lon="7.4135432"><ele>1520.0</ele><time>2026-04-15T13:59:35.96Z</time></trkpt><trkpt lat="45.76309" lon="7.4134531"><ele>1520.0</ele><time>2026-04-15T13:59:39.953Z</time></trkpt><trkpt lat="45.763139" lon="7.4133822"><ele>1520.0</ele><time>2026-04-15T13:59:43.962Z</time></trkpt><trkpt lat="45.763185" lon="7.4133151"><ele>1520.0</ele><time>2026-04-15T13:59:47.958Z</time></trkpt><trkpt lat="45.76322" lon="7.4132285"><ele>1520.0</ele><time>2026-04-15T13:59:51.962Z</time></trkpt><trkpt lat="45.7632428" lon="7.4131358"><ele>1520.0</ele><time>2026-04-15T13:59:55.956Z</time></trkpt><trkpt lat="45.7632622" lon="7.413038"><ele>1520.0</ele><time>2026-04-15T13:59:59.96Z</time></trkpt><trkpt lat="45.763299" lon="7.4129502"><ele>1520.0</ele><time>2026-04-15T14:00:04.027Z</time></trkpt><trkpt lat="45.7633394" lon="7.4128678"><ele>1517.3333333333335</ele><time>2026-04-15T14:00:07.947Z</time></trkpt><trkpt lat="45.7633928" lon="7.4127969"><ele>1514.6666666666667</ele><time>2026-04-15T14:00:11.968Z</time></trkpt><trkpt lat="45.7634399" lon="7.4127258"><ele>1512.0</ele><time>2026-04-15T14:00:15.952Z</time></trkpt><trkpt lat="45.7634998" lon="7.4126585"><ele>1509.3333333333333</ele><time>2026-04-15T14:00:19.957Z</time></trkpt><trkpt lat="45.7635556" lon="7.4126016"><ele>1506.6666666666665</ele><time>2026-04-15T14:00:24.065Z</time></trkpt><trkpt lat="45.7636364" lon="7.4125308"><ele>1504.0</ele><time>2026-04-15T14:00:28.949Z</time></trkpt><trkpt lat="45.7636898" lon="7.4124541"><ele>1510.2857142857142</ele><time>2026-04-15T14:00:32.946Z</time></trkpt><trkpt lat="45.7637258" lon="7.412373"><ele>1516.5714285714284</ele><time>2026-04-15T14:00:37.03Z</time></trkpt><trkpt lat="45.7637307" lon="7.4122696"><ele>1522.857142857143</ele><time>2026-04-15T14:00:40.953Z</time></trkpt><trkpt lat="45.7637651" lon="7.4121834"><ele>1529.142857142857</ele><time>2026-04-15T14:00:44.956Z</time></trkpt><trkpt lat="45.763826" lon="7.4122373"><ele>1535.4285714285716</ele><time>2026-04-15T14:00:49.952Z</time></trkpt><trkpt lat="45.7638099" lon="7.4123277"><ele>1541.7142857142858</ele><time>2026-04-15T14:00:53.963Z</time></trkpt><trkpt lat="45.7637963" lon="7.412423"><ele>1548.0</ele><time>2026-04-15T14:00:58.025Z</time></trkpt><trkpt lat="45.7637806" lon="7.4125185"><ele>1548.0</ele><time>2026-04-15T14:01:01.958Z</time></trkpt><trkpt lat="45.763756" lon="7.4126114"><ele>1548.0</ele><time>2026-04-15T14:01:05.963Z</time></trkpt><trkpt lat="45.7637226" lon="7.412706"><ele>1548.0</ele><time>2026-04-15T14:01:09.956Z</time></trkpt><trkpt lat="45.763677" lon="7.4127919"><ele>1548.0</ele><time>2026-04-15T14:01:13.953Z</time></trkpt><trkpt lat="45.7636302" lon="7.4128687"><ele>1548.0</ele><time>2026-04-15T14:01:18.033Z</time></trkpt><trkpt lat="45.7635824" lon="7.4129459"><ele>1548.0</ele><time>2026-04-15T14:01:21.948Z</time></trkpt><trkpt lat="45.7635633" lon="7.4130342"><ele>1548.0</ele><time>2026-04-15T14:01:25.952Z</time></trkpt><trkpt lat="45.763613" lon="7.413102"><ele>1548.0</ele><time>2026-04-15T14:01:29.958Z</time></trkpt><trkpt lat="45.7636749" lon="7.4130603"><ele>1548.0</ele><time>2026-04-15T14:01:33.961Z</time></trkpt><trkpt lat="45.7637156" lon="7.4129822"><ele>1548.0</ele><time>2026-04-15T14:01:38.032Z</time></trkpt><trkpt lat="45.7637665" lon="7.4128998"><ele>1548.0</ele><time>2026-04-15T14:01:41.956Z</time></trkpt><trkpt lat="45.7638216" lon="7.4128212"><ele>1548.0</ele><time>2026-04-15T14:01:45.954Z</time></trkpt><trkpt lat="45.7638824" lon="7.4127556"><ele>1548.0</ele><time>2026-04-15T14:01:49.964Z</time></trkpt><trkpt lat="45.7639291" lon="7.4126916"><ele>1548.0</ele><time>2026-04-15T14:01:53.962Z</time></trkpt><trkpt lat="45.7639837" lon="7.4125991"><ele>1548.0</ele><time>2026-04-15T14:01:58.033Z</time></trkpt><trkpt lat="45.7640203" lon="7.4124968"><ele>1548.0</ele><time>2026-04-15T14:02:01.955Z</time></trkpt><trkpt lat="45.7640427" lon="7.4123868"><ele>1548.0</ele><time>2026-04-15T14:02:05.958Z</time></trkpt><trkpt lat="45.7640608" lon="7.4122695"><ele>1548.0</ele><time>2026-04-15T14:02:09.955Z</time></trkpt><trkpt lat="45.7640674" lon="7.4121765"><ele>1548.0</ele><time>2026-04-15T14:02:12.953Z</time></trkpt><trkpt lat="45.7640475" lon="7.4120793"><ele>1548.0</ele><time>2026-04-15T14:02:15.958Z</time></trkpt><trkpt lat="45.7640231" lon="7.4119904"><ele>1548.0</ele><time>2026-04-15T14:02:18.957Z</time></trkpt><trkpt lat="45.7639876" lon="7.4118849"><ele>1547.6666666666667</ele><time>2026-04-15T14:02:22.959Z</time></trkpt><trkpt lat="45.7639645" lon="7.4117714"><ele>1547.3333333333335</ele><time>2026-04-15T14:02:26.952Z</time></trkpt><trkpt lat="45.763961" lon="7.4116808"><ele>1547.0</ele><time>2026-04-15T14:02:29.948Z</time></trkpt><trkpt lat="45.763964" lon="7.4115732"><ele>1546.6666666666667</ele><time>2026-04-15T14:02:33.955Z</time></trkpt><trkpt lat="45.7639696" lon="7.4114554"><ele>1546.3333333333335</ele><time>2026-04-15T14:02:38.028Z</time></trkpt><trkpt lat="45.7639534" lon="7.4113561"><ele>1546.0</ele><time>2026-04-15T14:02:40.957Z</time></trkpt><trkpt lat="45.7639173" lon="7.4112572"><ele>1547.2857142857142</ele><time>2026-04-15T14:02:43.958Z</time></trkpt><trkpt lat="45.7638685" lon="7.4111664"><ele>1548.5714285714284</ele><time>2026-04-15T14:02:46.962Z</time></trkpt><trkpt lat="45.7638189" lon="7.4110785"><ele>1549.857142857143</ele><time>2026-04-15T14:02:49.961Z</time></trkpt><trkpt lat="45.7637651" lon="7.4109976"><ele>1551.142857142857</ele><time>2026-04-15T14:02:52.959Z</time></trkpt><trkpt lat="45.763714" lon="7.4109404"><ele>1552.4285714285716</ele><time>2026-04-15T14:02:55.961Z</time></trkpt><trkpt lat="45.7636757" lon="7.4108518"><ele>1553.7142857142858</ele><time>2026-04-15T14:02:59.954Z</time></trkpt><trkpt lat="45.7636682" lon="7.4107547"><ele>1555.0</ele><time>2026-04-15T14:03:02.961Z</time></trkpt><trkpt lat="45.7636866" lon="7.4106645"><ele>1555.0</ele><time>2026-04-15T14:03:05.957Z</time></trkpt><trkpt lat="45.7637228" lon="7.4105756"><ele>1555.0</ele><time>2026-04-15T14:03:08.963Z</time></trkpt><trkpt lat="45.7637575" lon="7.4104988"><ele>1555.0</ele><time>2026-04-15T14:03:11.958Z</time></trkpt><trkpt lat="45.7638041" lon="7.4104268"><ele>1555.0</ele><time>2026-04-15T14:03:14.965Z</time></trkpt><trkpt lat="45.7638659" lon="7.4103812"><ele>1555.0</ele><time>2026-04-15T14:03:18.042Z</time></trkpt><trkpt lat="45.7639313" lon="7.4103374"><ele>1555.0</ele><time>2026-04-15T14:03:20.958Z</time></trkpt><trkpt lat="45.7639942" lon="7.4102814"><ele>1555.0</ele><time>2026-04-15T14:03:23.954Z</time></trkpt><trkpt lat="45.7640407" lon="7.4102139"><ele>1553.142857142857</ele><time>2026-04-15T14:03:26.952Z</time></trkpt><trkpt lat="45.7640747" lon="7.4101285"><ele>1551.2857142857142</ele><time>2026-04-15T14:03:29.955Z</time></trkpt><trkpt lat="45.7641084" lon="7.4100342"><ele>1549.4285714285716</ele><time>2026-04-15T14:03:33.957Z</time></trkpt><trkpt lat="45.7640907" lon="7.4099428"><ele>1547.5714285714284</ele><time>2026-04-15T14:13:42.937Z</time></trkpt><trkpt lat="45.7641477" lon="7.4099937"><ele>1545.7142857142856</ele><time>2026-04-15T14:21:22.947Z</time></trkpt><trkpt lat="45.7642152" lon="7.4100167"><ele>1543.857142857143</ele><time>2026-04-15T14:21:26.945Z</time></trkpt><trkpt lat="45.7642911" lon="7.410007"><ele>1542.0</ele><time>2026-04-15T14:21:29.942Z</time></trkpt><trkpt lat="45.7643606" lon="7.4099643"><ele>1541.6666666666667</ele><time>2026-04-15T14:21:32.946Z</time></trkpt><trkpt lat="45.7644411" lon="7.409916"><ele>1541.3333333333335</ele><time>2026-04-15T14:21:35.948Z</time></trkpt><trkpt lat="45.7645148" lon="7.4098478"><ele>1541.0</ele><time>2026-04-15T14:21:38.944Z</time></trkpt><trkpt lat="45.7645799" lon="7.409765"><ele>1540.6666666666667</ele><time>2026-04-15T14:21:41.947Z</time></trkpt><trkpt lat="45.7646281" lon="7.4096882"><ele>1540.3333333333335</ele><time>2026-04-15T14:21:45.94Z</time></trkpt><trkpt lat="45.7646864" lon="7.4096136"><ele>1540.0</ele><time>2026-04-15T14:21:50.951Z</time></trkpt><trkpt lat="45.764754" lon="7.4095452"><ele>1540.0000000000002</ele><time>2026-04-15T14:21:54.945Z</time></trkpt><trkpt lat="45.7648178" lon="7.4094771"><ele>1540.0</ele><time>2026-04-15T14:21:57.943Z</time></trkpt><trkpt lat="45.7648909" lon="7.4093945"><ele>1540.0</ele><time>2026-04-15T14:22:00.945Z</time></trkpt><trkpt lat="45.7649426" lon="7.4093318"><ele>1540.0</ele><time>2026-04-15T14:22:02.957Z</time></trkpt><trkpt lat="45.7649956" lon="7.4092748"><ele>1540.0000000000002</ele><time>2026-04-15T14:22:04.952Z</time></trkpt><trkpt lat="45.7650623" lon="7.4091854"><ele>1540.0</ele><time>2026-04-15T14:22:08.008Z</time></trkpt><trkpt lat="45.7651227" lon="7.4090924"><ele>1540.0</ele><time>2026-04-15T14:22:10.958Z</time></trkpt><trkpt lat="45.7651694" lon="7.4090165"><ele>1540.0</ele><time>2026-04-15T14:22:12.952Z</time></trkpt><trkpt lat="45.765212" lon="7.4089353"><ele>1540.0</ele><time>2026-04-15T14:22:14.957Z</time></trkpt><trkpt lat="45.7652537" lon="7.4088572"><ele>1540.0</ele><time>2026-04-15T14:22:16.947Z</time></trkpt><trkpt lat="45.765318" lon="7.4087528"><ele>1540.0</ele><time>2026-04-15T14:22:19.949Z</time></trkpt><trkpt lat="45.7653705" lon="7.4086848"><ele>1540.0</ele><time>2026-04-15T14:22:21.95Z</time></trkpt><trkpt lat="45.7654209" lon="7.4086215"><ele>1540.0</ele><time>2026-04-15T14:22:23.951Z</time></trkpt><trkpt lat="45.7654712" lon="7.4085464"><ele>1542.142857142857</ele><time>2026-04-15T14:22:25.954Z</time></trkpt><trkpt lat="45.7655226" lon="7.4084831"><ele>1544.2857142857142</ele><time>2026-04-15T14:22:28.044Z</time></trkpt><trkpt lat="45.7655725" lon="7.4084208"><ele>1546.4285714285716</ele><time>2026-04-15T14:22:29.94Z</time></trkpt><trkpt lat="45.7656262" lon="7.4083544"><ele>1548.5714285714284</ele><time>2026-04-15T14:22:31.952Z</time></trkpt><trkpt lat="45.7656809" lon="7.4082902"><ele>1550.7142857142858</ele><time>2026-04-15T14:22:33.951Z</time></trkpt><trkpt lat="45.7657317" lon="7.4082224"><ele>1552.857142857143</ele><time>2026-04-15T14:22:35.956Z</time></trkpt><trkpt lat="45.7657867" lon="7.4081564"><ele>1555.0</ele><time>2026-04-15T14:22:37.992Z</time></trkpt><trkpt lat="45.7658463" lon="7.4080999"><ele>1555.0</ele><time>2026-04-15T14:22:39.951Z</time></trkpt><trkpt lat="45.7659018" lon="7.4080314"><ele>1555.0</ele><time>2026-04-15T14:22:41.956Z</time></trkpt><trkpt lat="45.7659473" lon="7.4079571"><ele>1555.0</ele><time>2026-04-15T14:22:43.952Z</time></trkpt><trkpt lat="45.7659924" lon="7.4078792"><ele>1555.0</ele><time>2026-04-15T14:22:45.95Z</time></trkpt><trkpt lat="45.7660347" lon="7.4077986"><ele>1555.0</ele><time>2026-04-15T14:22:47.959Z</time></trkpt><trkpt lat="45.7660803" lon="7.4077259"><ele>1555.0</ele><time>2026-04-15T14:22:49.958Z</time></trkpt><trkpt lat="45.7661241" lon="7.4076549"><ele>1555.0</ele><time>2026-04-15T14:22:51.947Z</time></trkpt><trkpt lat="45.7661853" lon="7.4075599"><ele>1556.6666666666667</ele><time>2026-04-15T14:22:54.945Z</time></trkpt><trkpt lat="45.7662565" lon="7.4074989"><ele>1558.3333333333335</ele><time>2026-04-15T14:22:57.948Z</time></trkpt><trkpt lat="45.7663126" lon="7.4074308"><ele>1560.0</ele><time>2026-04-15T14:23:00.949Z</time></trkpt><trkpt lat="45.7663785" lon="7.4073716"><ele>1561.6666666666665</ele><time>2026-04-15T14:23:03.953Z</time></trkpt><trkpt lat="45.7664415" lon="7.4073146"><ele>1563.3333333333333</ele><time>2026-04-15T14:23:06.956Z</time></trkpt><trkpt lat="45.7665059" lon="7.4072809"><ele>1565.0</ele><time>2026-04-15T14:23:09.945Z</time></trkpt><trkpt lat="45.7665768" lon="7.407255"><ele>1564.9999999999998</ele><time>2026-04-15T14:23:12.951Z</time></trkpt><trkpt lat="45.7666466" lon="7.407233"><ele>1565.0</ele><time>2026-04-15T14:23:15.95Z</time></trkpt><trkpt lat="45.766709" lon="7.4071986"><ele>1565.0</ele><time>2026-04-15T14:23:18.963Z</time></trkpt><trkpt lat="45.7667815" lon="7.4071461"><ele>1565.0</ele><time>2026-04-15T14:23:22.951Z</time></trkpt><trkpt lat="45.766849" lon="7.4070832"><ele>1564.9999999999998</ele><time>2026-04-15T14:23:26.951Z</time></trkpt><trkpt lat="45.7669195" lon="7.4070261"><ele>1565.0</ele><time>2026-04-15T14:23:30.957Z</time></trkpt><trkpt lat="45.7669946" lon="7.4069738"><ele>1565.4999999999998</ele><time>2026-04-15T14:23:34.953Z</time></trkpt><trkpt lat="45.7670692" lon="7.4069457"><ele>1566.0</ele><time>2026-04-15T14:23:38.95Z</time></trkpt><trkpt lat="45.7671477" lon="7.4069282"><ele>1566.5</ele><time>2026-04-15T14:23:42.984Z</time></trkpt><trkpt lat="45.767221" lon="7.4069035"><ele>1567.0</ele><time>2026-04-15T14:23:46.947Z</time></trkpt><trkpt lat="45.7672792" lon="7.4068382"><ele>1567.4999999999998</ele><time>2026-04-15T14:23:50.945Z</time></trkpt><trkpt lat="45.7673282" lon="7.4067531"><ele>1568.0</ele><time>2026-04-15T14:23:54.952Z</time></trkpt><trkpt lat="45.7673634" lon="7.4066465"><ele>1568.0</ele><time>2026-04-15T14:23:58.952Z</time></trkpt><trkpt lat="45.7673986" lon="7.4065682"><ele>1568.0</ele><time>2026-04-15T14:24:01.949Z</time></trkpt><trkpt lat="45.7674633" lon="7.4064979"><ele>1568.0</ele><time>2026-04-15T14:24:05.952Z</time></trkpt><trkpt lat="45.7675311" lon="7.4064331"><ele>1568.0</ele><time>2026-04-15T14:24:09.945Z</time></trkpt><trkpt lat="45.7675923" lon="7.4063553"><ele>1568.0</ele><time>2026-04-15T14:24:13.949Z</time></trkpt><trkpt lat="45.7676273" lon="7.4062778"><ele>1568.0</ele><time>2026-04-15T14:24:16.957Z</time></trkpt><trkpt lat="45.7676602" lon="7.4061965"><ele>1568.0</ele><time>2026-04-15T14:24:19.946Z</time></trkpt><trkpt lat="45.7677163" lon="7.4061348"><ele>1569.6666666666665</ele><time>2026-04-15T14:24:23.025Z</time></trkpt><trkpt lat="45.7677906" lon="7.4060719"><ele>1571.3333333333333</ele><time>2026-04-15T14:24:25.955Z</time></trkpt><trkpt lat="45.7678666" lon="7.4060072"><ele>1573.0</ele><time>2026-04-15T14:24:28.947Z</time></trkpt><trkpt lat="45.7679289" lon="7.4059217"><ele>1574.6666666666665</ele><time>2026-04-15T14:24:32.013Z</time></trkpt><trkpt lat="45.7679998" lon="7.4058503"><ele>1576.3333333333333</ele><time>2026-04-15T14:24:34.954Z</time></trkpt><trkpt lat="45.7680777" lon="7.4058011"><ele>1578.0</ele><time>2026-04-15T14:24:37.947Z</time></trkpt><trkpt lat="45.7681413" lon="7.4057391"><ele>1578.0</ele><time>2026-04-15T14:24:40.959Z</time></trkpt><trkpt lat="45.7682106" lon="7.4056731"><ele>1578.0</ele><time>2026-04-15T14:24:44.961Z</time></trkpt><trkpt lat="45.7682703" lon="7.4056112"><ele>1578.0</ele><time>2026-04-15T14:24:48.957Z</time></trkpt><trkpt lat="45.7683433" lon="7.4055568"><ele>1578.0</ele><time>2026-04-15T14:24:53.022Z</time></trkpt><trkpt lat="45.7684086" lon="7.4055094"><ele>1578.0</ele><time>2026-04-15T14:24:56.958Z</time></trkpt><trkpt lat="45.7684717" lon="7.4054636"><ele>1578.0</ele><time>2026-04-15T14:25:00.962Z</time></trkpt><trkpt lat="45.7685419" lon="7.4054198"><ele>1578.5</ele><time>2026-04-15T14:25:04.96Z</time></trkpt><trkpt lat="45.7686065" lon="7.405368"><ele>1579.0</ele><time>2026-04-15T14:25:08.955Z</time></trkpt><trkpt lat="45.7686662" lon="7.4053119"><ele>1579.5</ele><time>2026-04-15T14:25:12.956Z</time></trkpt><trkpt lat="45.7687199" lon="7.4052448"><ele>1580.0</ele><time>2026-04-15T14:25:17.04Z</time></trkpt><trkpt lat="45.7687876" lon="7.4051996"><ele>1580.5</ele><time>2026-04-15T14:25:20.966Z</time></trkpt><trkpt lat="45.7688599" lon="7.4051504"><ele>1581.0</ele><time>2026-04-15T14:25:25.041Z</time></trkpt><trkpt lat="45.7689344" lon="7.4051091"><ele>1581.0</ele><time>2026-04-15T14:25:28.973Z</time></trkpt><trkpt lat="45.7690086" lon="7.4050634"><ele>1581.0</ele><time>2026-04-15T14:25:32.971Z</time></trkpt><trkpt lat="45.7690806" lon="7.4050168"><ele>1581.0</ele><time>2026-04-15T14:25:37.028Z</time></trkpt><trkpt lat="45.7691477" lon="7.4049749"><ele>1581.0</ele><time>2026-04-15T14:25:40.97Z</time></trkpt><trkpt lat="45.7692241" lon="7.4049551"><ele>1581.0</ele><time>2026-04-15T14:25:44.97Z</time></trkpt><trkpt lat="45.7692945" lon="7.4049311"><ele>1581.0</ele><time>2026-04-15T14:25:48.955Z</time></trkpt><trkpt lat="45.7693658" lon="7.4049225"><ele>1586.0</ele><time>2026-04-15T14:25:52.962Z</time></trkpt><trkpt lat="45.7694434" lon="7.4049176"><ele>1591.0</ele><time>2026-04-15T14:25:57.021Z</time></trkpt><trkpt lat="45.7695118" lon="7.4049155"><ele>1596.0</ele><time>2026-04-15T14:26:00.958Z</time></trkpt><trkpt lat="45.7695845" lon="7.4048988"><ele>1601.0</ele><time>2026-04-15T14:26:04.956Z</time></trkpt><trkpt lat="45.7696541" lon="7.4048926"><ele>1606.0</ele><time>2026-04-15T14:26:08.951Z</time></trkpt><trkpt lat="45.7697312" lon="7.4048575"><ele>1611.0</ele><time>2026-04-15T14:26:12.966Z</time></trkpt><trkpt lat="45.7698047" lon="7.404814"><ele>1611.0</ele><time>2026-04-15T14:26:17.027Z</time></trkpt><trkpt lat="45.7698758" lon="7.4047875"><ele>1611.0</ele><time>2026-04-15T14:26:20.965Z</time></trkpt><trkpt lat="45.769946" lon="7.4048184"><ele>1611.0</ele><time>2026-04-15T14:26:24.959Z</time></trkpt><trkpt lat="45.770024" lon="7.4048416"><ele>1611.0</ele><time>2026-04-15T14:26:28.96Z</time></trkpt><trkpt lat="45.7700977" lon="7.404836"><ele>1611.0</ele><time>2026-04-15T14:26:32.961Z</time></trkpt><trkpt lat="45.7701608" lon="7.4047804"><ele>1611.0</ele><time>2026-04-15T14:26:38.034Z</time></trkpt><trkpt lat="45.7702042" lon="7.4047052"><ele>1611.0</ele><time>2026-04-15T14:26:41.95Z</time></trkpt><trkpt lat="45.7702523" lon="7.4046282"><ele>1613.1666666666667</ele><time>2026-04-15T14:26:45.951Z</time></trkpt><trkpt lat="45.7703029" lon="7.4045454"><ele>1615.3333333333335</ele><time>2026-04-15T14:26:49.953Z</time></trkpt><trkpt lat="45.770345" lon="7.4044465"><ele>1617.5</ele><time>2026-04-15T14:26:53.958Z</time></trkpt><trkpt lat="45.77039" lon="7.4043574"><ele>1619.6666666666667</ele><time>2026-04-15T14:26:57.955Z</time></trkpt><trkpt lat="45.7704447" lon="7.4042732"><ele>1621.8333333333335</ele><time>2026-04-15T14:27:01.956Z</time></trkpt><trkpt lat="45.7704947" lon="7.4041967"><ele>1624.0</ele><time>2026-04-15T14:27:05.954Z</time></trkpt><trkpt lat="45.7705279" lon="7.4041137"><ele>1624.0</ele><time>2026-04-15T14:27:09.951Z</time></trkpt><trkpt lat="45.7705458" lon="7.4040131"><ele>1624.0</ele><time>2026-04-15T14:27:13.957Z</time></trkpt><trkpt lat="45.7705654" lon="7.4039047"><ele>1624.0</ele><time>2026-04-15T14:27:17.959Z</time></trkpt><trkpt lat="45.7705927" lon="7.4038138"><ele>1624.0</ele><time>2026-04-15T14:27:21.951Z</time></trkpt><trkpt lat="45.7706298" lon="7.4037279"><ele>1624.0</ele><time>2026-04-15T14:27:25.975Z</time></trkpt><trkpt lat="45.770663" lon="7.4036258"><ele>1624.0</ele><time>2026-04-15T14:27:29.955Z</time></trkpt><trkpt lat="45.7706918" lon="7.4035342"><ele>1624.0</ele><time>2026-04-15T14:27:33.953Z</time></trkpt><trkpt lat="45.7707279" lon="7.4034394"><ele>1622.2857142857142</ele><time>2026-04-15T14:27:38.031Z</time></trkpt><trkpt lat="45.7707604" lon="7.4033508"><ele>1620.5714285714284</ele><time>2026-04-15T14:27:41.958Z</time></trkpt><trkpt lat="45.7707999" lon="7.4032638"><ele>1618.857142857143</ele><time>2026-04-15T14:27:45.953Z</time></trkpt><trkpt lat="45.7708361" lon="7.403178"><ele>1617.142857142857</ele><time>2026-04-15T14:27:49.949Z</time></trkpt><trkpt lat="45.7708879" lon="7.4031097"><ele>1615.4285714285713</ele><time>2026-04-15T14:27:53.949Z</time></trkpt><trkpt lat="45.7709428" lon="7.4030488"><ele>1613.7142857142858</ele><time>2026-04-15T14:27:57.961Z</time></trkpt><trkpt lat="45.7709918" lon="7.4029825"><ele>1612.0</ele><time>2026-04-15T14:28:01.953Z</time></trkpt><trkpt lat="45.7710469" lon="7.4029206"><ele>1612.0</ele><time>2026-04-15T14:28:05.946Z</time></trkpt><trkpt lat="45.7711078" lon="7.4028795"><ele>1612.0</ele><time>2026-04-15T14:28:09.949Z</time></trkpt><trkpt lat="45.7711776" lon="7.402851"><ele>1612.0</ele><time>2026-04-15T14:28:14.947Z</time></trkpt><trkpt lat="45.7712419" lon="7.4028105"><ele>1612.0</ele><time>2026-04-15T14:28:18.96Z</time></trkpt><trkpt lat="45.7712964" lon="7.4027479"><ele>1612.0</ele><time>2026-04-15T14:28:23.016Z</time></trkpt><trkpt lat="45.7713615" lon="7.4027009"><ele>1612.0</ele><time>2026-04-15T14:28:26.949Z</time></trkpt><trkpt lat="45.7714406" lon="7.4026886"><ele>1612.0</ele><time>2026-04-15T14:28:30.964Z</time></trkpt><trkpt lat="45.7715065" lon="7.4026972"><ele>1612.0000000000002</ele><time>2026-04-15T14:28:33.957Z</time></trkpt><trkpt lat="45.7715772" lon="7.402721"><ele>1612.0</ele><time>2026-04-15T14:28:37.975Z</time></trkpt><trkpt lat="45.7716608" lon="7.4027228"><ele>1612.0</ele><time>2026-04-15T14:28:43.029Z</time></trkpt><trkpt lat="45.7717252" lon="7.4027121"><ele>1612.0</ele><time>2026-04-15T14:28:45.952Z</time></trkpt><trkpt lat="45.7718068" lon="7.4026959"><ele>1612.0000000000002</ele><time>2026-04-15T14:28:49.953Z</time></trkpt><trkpt lat="45.7718689" lon="7.4026769"><ele>1612.0</ele><time>2026-04-15T14:28:53.027Z</time></trkpt><trkpt lat="45.7719514" lon="7.4026567"><ele>1612.5000000000002</ele><time>2026-04-15T14:28:56.957Z</time></trkpt><trkpt lat="45.7720347" lon="7.4026406"><ele>1613.0</ele><time>2026-04-15T14:29:00.956Z</time></trkpt><trkpt lat="45.7721033" lon="7.4026447"><ele>1613.5</ele><time>2026-04-15T14:29:03.946Z</time></trkpt><trkpt lat="45.7721705" lon="7.4026636"><ele>1614.0</ele><time>2026-04-15T14:29:06.95Z</time></trkpt><trkpt lat="45.7722423" lon="7.4026905"><ele>1614.5000000000002</ele><time>2026-04-15T14:29:10.946Z</time></trkpt><trkpt lat="45.7723226" lon="7.4027261"><ele>1615.0</ele><time>2026-04-15T14:29:14.949Z</time></trkpt><trkpt lat="45.7723917" lon="7.4027538"><ele>1615.0000000000002</ele><time>2026-04-15T14:29:18.964Z</time></trkpt><trkpt lat="45.7724721" lon="7.40278"><ele>1615.0</ele><time>2026-04-15T14:29:22.964Z</time></trkpt><trkpt lat="45.7725397" lon="7.4028008"><ele>1615.0</ele><time>2026-04-15T14:29:26.022Z</time></trkpt><trkpt lat="45.7726206" lon="7.4028114"><ele>1615.0</ele><time>2026-04-15T14:29:29.954Z</time></trkpt><trkpt lat="45.7726993" lon="7.4028379"><ele>1615.0000000000002</ele><time>2026-04-15T14:29:33.954Z</time></trkpt><trkpt lat="45.7727728" lon="7.4028865"><ele>1615.0</ele><time>2026-04-15T14:29:37.96Z</time></trkpt><trkpt lat="45.7728337" lon="7.4029435"><ele>1619.5000000000002</ele><time>2026-04-15T14:29:41.959Z</time></trkpt><trkpt lat="45.7728851" lon="7.4030255"><ele>1624.0</ele><time>2026-04-15T14:29:47.043Z</time></trkpt><trkpt lat="45.7729343" lon="7.4031031"><ele>1628.5</ele><time>2026-04-15T14:29:50.959Z</time></trkpt><trkpt lat="45.7729975" lon="7.4031714"><ele>1633.0</ele><time>2026-04-15T14:29:54.957Z</time></trkpt><trkpt lat="45.7730735" lon="7.4032305"><ele>1637.5000000000002</ele><time>2026-04-15T14:29:59.951Z</time></trkpt><trkpt lat="45.773136" lon="7.4032726"><ele>1642.0</ele><time>2026-04-15T14:30:03.955Z</time></trkpt><trkpt lat="45.7731951" lon="7.4033159"><ele>1642.0000000000002</ele><time>2026-04-15T14:30:06.952Z</time></trkpt><trkpt lat="45.7732622" lon="7.4033684"><ele>1642.0</ele><time>2026-04-15T14:30:10.949Z</time></trkpt><trkpt lat="45.7733285" lon="7.403411"><ele>1642.0</ele><time>2026-04-15T14:30:14.96Z</time></trkpt><trkpt lat="45.7733995" lon="7.4034601"><ele>1642.0</ele><time>2026-04-15T14:30:18.96Z</time></trkpt><trkpt lat="45.7734696" lon="7.4035056"><ele>1642.0</ele><time>2026-04-15T14:30:22.951Z</time></trkpt><trkpt lat="45.7735301" lon="7.4035361"><ele>1642.0000000000002</ele><time>2026-04-15T14:30:25.992Z</time></trkpt><trkpt lat="45.7735955" lon="7.4035501"><ele>1642.0</ele><time>2026-04-15T14:30:29.954Z</time></trkpt><trkpt lat="45.7736645" lon="7.4035661"><ele>1640.0000000000002</ele><time>2026-04-15T14:30:33.955Z</time></trkpt><trkpt lat="45.7737378" lon="7.403589"><ele>1638.0</ele><time>2026-04-15T14:30:37.978Z</time></trkpt><trkpt lat="45.7738056" lon="7.4036176"><ele>1636.0</ele><time>2026-04-15T14:30:41.952Z</time></trkpt><trkpt lat="45.7738705" lon="7.4036503"><ele>1634.0</ele><time>2026-04-15T14:30:45.953Z</time></trkpt><trkpt lat="45.7739435" lon="7.4036974"><ele>1632.0</ele><time>2026-04-15T14:30:50.033Z</time></trkpt><trkpt lat="45.7740165" lon="7.4037445"><ele>1630.0000000000002</ele><time>2026-04-15T14:30:53.963Z</time></trkpt><trkpt lat="45.7740741" lon="7.403787"><ele>1628.0</ele><time>2026-04-15T14:30:57.963Z</time></trkpt><trkpt lat="45.7741284" lon="7.4038558"><ele>1629.5714285714287</ele><time>2026-04-15T14:31:02.963Z</time></trkpt><trkpt lat="45.7741857" lon="7.403932"><ele>1631.142857142857</ele><time>2026-04-15T14:31:07.031Z</time></trkpt><trkpt lat="45.7742265" lon="7.4040081"><ele>1632.7142857142858</ele><time>2026-04-15T14:31:10.955Z</time></trkpt><trkpt lat="45.7742697" lon="7.4040954"><ele>1634.2857142857142</ele><time>2026-04-15T14:31:14.952Z</time></trkpt><trkpt lat="45.7742951" lon="7.404199"><ele>1635.857142857143</ele><time>2026-04-15T14:31:19.952Z</time></trkpt><trkpt lat="45.7743386" lon="7.4042799"><ele>1637.4285714285716</ele><time>2026-04-15T14:31:23.952Z</time></trkpt><trkpt lat="45.7743901" lon="7.4043613"><ele>1639.0</ele><time>2026-04-15T14:31:27.954Z</time></trkpt><trkpt lat="45.774447" lon="7.4044145"><ele>1639.0000000000002</ele><time>2026-04-15T14:31:32.04Z</time></trkpt><trkpt lat="45.77451" lon="7.4044371"><ele>1639.0</ele><time>2026-04-15T14:31:35.947Z</time></trkpt><trkpt lat="45.774591" lon="7.404471"><ele>1639.0</ele><time>2026-04-15T14:31:39.953Z</time></trkpt><trkpt lat="45.7746491" lon="7.4045356"><ele>1639.0</ele><time>2026-04-15T14:31:42.95Z</time></trkpt><trkpt lat="45.7747002" lon="7.4046097"><ele>1639.0000000000002</ele><time>2026-04-15T14:31:46.942Z</time></trkpt><trkpt lat="45.7747541" lon="7.4047028"><ele>1639.0</ele><time>2026-04-15T14:31:49.938Z</time></trkpt><trkpt lat="45.7748122" lon="7.4047809"><ele>1643.6666666666667</ele><time>2026-04-15T14:31:53.944Z</time></trkpt><trkpt lat="45.7748663" lon="7.4048512"><ele>1648.3333333333335</ele><time>2026-04-15T14:31:57.947Z</time></trkpt><trkpt lat="45.7749188" lon="7.404923"><ele>1653.0</ele><time>2026-04-15T14:32:00.937Z</time></trkpt><trkpt lat="45.7749784" lon="7.4049719"><ele>1657.6666666666665</ele><time>2026-04-15T14:32:04.951Z</time></trkpt><trkpt lat="45.7750636" lon="7.4049758"><ele>1662.3333333333333</ele><time>2026-04-15T14:32:10.951Z</time></trkpt><trkpt lat="45.7751262" lon="7.4050165"><ele>1667.0</ele><time>2026-04-15T14:32:15.947Z</time></trkpt><trkpt lat="45.7752056" lon="7.4050621"><ele>1667.5714285714287</ele><time>2026-04-15T14:32:19.94Z</time></trkpt><trkpt lat="45.7752733" lon="7.4051073"><ele>1668.1428571428573</ele><time>2026-04-15T14:32:23.951Z</time></trkpt><trkpt lat="45.7753371" lon="7.4051431"><ele>1668.7142857142858</ele><time>2026-04-15T14:32:27.939Z</time></trkpt><trkpt lat="45.7753947" lon="7.4051879"><ele>1669.2857142857142</ele><time>2026-04-15T14:32:32.945Z</time></trkpt><trkpt lat="45.7754606" lon="7.4052123"><ele>1669.857142857143</ele><time>2026-04-15T14:32:37.946Z</time></trkpt><trkpt lat="45.7755346" lon="7.4051975"><ele>1670.4285714285713</ele><time>2026-04-15T14:32:42.951Z</time></trkpt><trkpt lat="45.7756103" lon="7.4051993"><ele>1671.0</ele><time>2026-04-15T14:32:47.952Z</time></trkpt><trkpt lat="45.7756593" lon="7.4051391"><ele>1671.0</ele><time>2026-04-15T14:32:52.945Z</time></trkpt><trkpt lat="45.7757059" lon="7.4050597"><ele>1671.0</ele><time>2026-04-15T14:32:56.952Z</time></trkpt><trkpt lat="45.7757408" lon="7.4049843"><ele>1671.0</ele><time>2026-04-15T14:33:00.951Z</time></trkpt><trkpt lat="45.7757727" lon="7.4048987"><ele>1671.0</ele><time>2026-04-15T14:33:04.952Z</time></trkpt><trkpt lat="45.7758298" lon="7.4048313"><ele>1671.0</ele><time>2026-04-15T14:33:09.948Z</time></trkpt><trkpt lat="45.7758814" lon="7.4047564"><ele>1671.0</ele><time>2026-04-15T14:33:13.951Z</time></trkpt><trkpt lat="45.7759201" lon="7.4046561"><ele>1671.0</ele><time>2026-04-15T14:33:17.946Z</time></trkpt><trkpt lat="45.7759635" lon="7.404564"><ele>1668.0</ele><time>2026-04-15T14:33:21.946Z</time></trkpt><trkpt lat="45.7760041" lon="7.4044798"><ele>1665.0</ele><time>2026-04-15T14:33:25.947Z</time></trkpt><trkpt lat="45.7760605" lon="7.404406"><ele>1662.0</ele><time>2026-04-15T14:33:29.946Z</time></trkpt><trkpt lat="45.7761144" lon="7.4043321"><ele>1659.0</ele><time>2026-04-15T14:33:33.944Z</time></trkpt><trkpt lat="45.7761691" lon="7.4042508"><ele>1656.0</ele><time>2026-04-15T14:33:37.949Z</time></trkpt><trkpt lat="45.7762175" lon="7.4041767"><ele>1653.0</ele><time>2026-04-15T14:33:41.949Z</time></trkpt><trkpt lat="45.776258" lon="7.4041017"><ele>1650.0</ele><time>2026-04-15T14:33:45.945Z</time></trkpt><trkpt lat="45.7762932" lon="7.4040242"><ele>1652.7142857142856</ele><time>2026-04-15T14:33:49.949Z</time></trkpt><trkpt lat="45.7763232" lon="7.4039358"><ele>1655.4285714285716</ele><time>2026-04-15T14:33:53.947Z</time></trkpt><trkpt lat="45.7763542" lon="7.4038449"><ele>1658.142857142857</ele><time>2026-04-15T14:33:57.955Z</time></trkpt><trkpt lat="45.7763815" lon="7.4037472"><ele>1660.8571428571427</ele><time>2026-04-15T14:34:01.95Z</time></trkpt><trkpt lat="45.776433" lon="7.4036618"><ele>1663.5714285714284</ele><time>2026-04-15T14:34:06.949Z</time></trkpt><trkpt lat="45.7764915" lon="7.4035863"><ele>1666.2857142857142</ele><time>2026-04-15T14:34:11.948Z</time></trkpt><trkpt lat="45.7765489" lon="7.4035467"><ele>1669.0</ele><time>2026-04-15T14:34:15.951Z</time></trkpt><trkpt lat="45.7766112" lon="7.4035091"><ele>1668.9999999999998</ele><time>2026-04-15T14:34:19.95Z</time></trkpt><trkpt lat="45.7766746" lon="7.403461"><ele>1669.0</ele><time>2026-04-15T14:34:24.947Z</time></trkpt><trkpt lat="45.7767297" lon="7.4034032"><ele>1669.0</ele><time>2026-04-15T14:34:28.946Z</time></trkpt><trkpt lat="45.7767915" lon="7.4033374"><ele>1669.0</ele><time>2026-04-15T14:34:33.954Z</time></trkpt><trkpt lat="45.7768418" lon="7.4032748"><ele>1669.0</ele><time>2026-04-15T14:34:37.946Z</time></trkpt><trkpt lat="45.7769026" lon="7.4032071"><ele>1668.9999999999998</ele><time>2026-04-15T14:34:42.947Z</time></trkpt><trkpt lat="45.7769626" lon="7.4031514"><ele>1669.0</ele><time>2026-04-15T14:34:47.953Z</time></trkpt><trkpt lat="45.7770272" lon="7.4031525"><ele>1668.9999999999998</ele><time>2026-04-15T14:35:33.951Z</time></trkpt><trkpt lat="45.7769668" lon="7.403124"><ele>1669.0</ele><time>2026-04-15T14:38:12.944Z</time></trkpt><trkpt lat="45.7769057" lon="7.4031507"><ele>1669.0</ele><time>2026-04-15T14:38:15.942Z</time></trkpt><trkpt lat="45.7768245" lon="7.4031866"><ele>1669.0</ele><time>2026-04-15T14:38:19.942Z</time></trkpt><trkpt lat="45.7767697" lon="7.4032498"><ele>1669.0</ele><time>2026-04-15T14:38:22.941Z</time></trkpt><trkpt lat="45.7767206" lon="7.4033098"><ele>1668.9999999999998</ele><time>2026-04-15T14:38:25.943Z</time></trkpt><trkpt lat="45.776664" lon="7.4033688"><ele>1669.0</ele><time>2026-04-15T14:38:28.953Z</time></trkpt><trkpt lat="45.776605" lon="7.4034295"><ele>1669.0000000000002</ele><time>2026-04-15T14:38:31.954Z</time></trkpt><trkpt lat="45.7765452" lon="7.403485"><ele>1669.0</ele><time>2026-04-15T14:38:34.971Z</time></trkpt><trkpt lat="45.7764732" lon="7.4035275"><ele>1669.0</ele><time>2026-04-15T14:38:37.955Z</time></trkpt><trkpt lat="45.7764087" lon="7.4035902"><ele>1669.0</ele><time>2026-04-15T14:38:40.949Z</time></trkpt><trkpt lat="45.7763501" lon="7.4036676"><ele>1669.0000000000002</ele><time>2026-04-15T14:38:43.954Z</time></trkpt><trkpt lat="45.7763084" lon="7.4037757"><ele>1669.0</ele><time>2026-04-15T14:38:47.027Z</time></trkpt><trkpt lat="45.7762845" lon="7.4038934"><ele>1666.2857142857142</ele><time>2026-04-15T14:38:49.946Z</time></trkpt><trkpt lat="45.7762402" lon="7.4040041"><ele>1663.5714285714284</ele><time>2026-04-15T14:38:52.945Z</time></trkpt><trkpt lat="45.7761986" lon="7.4040968"><ele>1660.8571428571427</ele><time>2026-04-15T14:38:55.944Z</time></trkpt><trkpt lat="45.7761567" lon="7.4041673"><ele>1658.142857142857</ele><time>2026-04-15T14:38:58.944Z</time></trkpt><trkpt lat="45.7761088" lon="7.4042309"><ele>1655.4285714285716</ele><time>2026-04-15T14:39:01.947Z</time></trkpt><trkpt lat="45.7760548" lon="7.4043048"><ele>1652.7142857142856</ele><time>2026-04-15T14:39:04.939Z</time></trkpt><trkpt lat="45.776006" lon="7.404376"><ele>1650.0</ele><time>2026-04-15T14:39:08.015Z</time></trkpt><trkpt lat="45.7759644" lon="7.4044674"><ele>1650.0</ele><time>2026-04-15T14:39:10.95Z</time></trkpt><trkpt lat="45.77593" lon="7.4045669"><ele>1650.0</ele><time>2026-04-15T14:39:13.942Z</time></trkpt><trkpt lat="45.7758911" lon="7.4046772"><ele>1650.0</ele><time>2026-04-15T14:39:17.024Z</time></trkpt><trkpt lat="45.7758436" lon="7.404779"><ele>1650.0</ele><time>2026-04-15T14:39:19.949Z</time></trkpt><trkpt lat="45.7757828" lon="7.4048551"><ele>1650.0</ele><time>2026-04-15T14:39:22.944Z</time></trkpt><trkpt lat="45.7757288" lon="7.4049484"><ele>1650.0</ele><time>2026-04-15T14:39:25.946Z</time></trkpt><trkpt lat="45.7756823" lon="7.4050499"><ele>1653.0</ele><time>2026-04-15T14:39:28.939Z</time></trkpt><trkpt lat="45.7756454" lon="7.4051299"><ele>1656.0</ele><time>2026-04-15T14:39:31.942Z</time></trkpt><trkpt lat="45.7755827" lon="7.4051828"><ele>1659.0</ele><time>2026-04-15T14:39:36.94Z</time></trkpt><trkpt lat="45.775519" lon="7.405206"><ele>1662.0</ele><time>2026-04-15T14:39:41.943Z</time></trkpt><trkpt lat="45.7754511" lon="7.405197"><ele>1665.0</ele><time>2026-04-15T14:39:47.943Z</time></trkpt><trkpt lat="45.7753928" lon="7.4051612"><ele>1668.0</ele><time>2026-04-15T14:39:55.027Z</time></trkpt><trkpt lat="45.7753247" lon="7.4051504"><ele>1671.0</ele><time>2026-04-15T14:40:00.941Z</time></trkpt><trkpt lat="45.7752642" lon="7.4051073"><ele>1671.0</ele><time>2026-04-15T14:40:06.948Z</time></trkpt><trkpt lat="45.7752036" lon="7.4050613"><ele>1671.0</ele><time>2026-04-15T14:40:11.939Z</time></trkpt><trkpt lat="45.7751454" lon="7.4049996"><ele>1671.0</ele><time>2026-04-15T14:40:17.946Z</time></trkpt><trkpt lat="45.7750743" lon="7.4049793"><ele>1671.0</ele><time>2026-04-15T14:40:22.949Z</time></trkpt><trkpt lat="45.7750028" lon="7.4049432"><ele>1671.0</ele><time>2026-04-15T14:40:27.004Z</time></trkpt><trkpt lat="45.7749346" lon="7.404903"><ele>1671.0</ele><time>2026-04-15T14:40:29.937Z</time></trkpt><trkpt lat="45.7748697" lon="7.4048671"><ele>1671.0</ele><time>2026-04-15T14:40:32.94Z</time></trkpt><trkpt lat="45.7748159" lon="7.4048037"><ele>1670.3333333333333</ele><time>2026-04-15T14:40:36.94Z</time></trkpt><trkpt lat="45.7747674" lon="7.4047235"><ele>1669.6666666666665</ele><time>2026-04-15T14:40:40.943Z</time></trkpt><trkpt lat="45.7747221" lon="7.4046321"><ele>1669.0</ele><time>2026-04-15T14:40:43.943Z</time></trkpt><trkpt lat="45.77468" lon="7.4045583"><ele>1668.3333333333333</ele><time>2026-04-15T14:40:46.941Z</time></trkpt><trkpt lat="45.7746183" lon="7.4044967"><ele>1667.6666666666665</ele><time>2026-04-15T14:40:49.943Z</time></trkpt><trkpt lat="45.7745307" lon="7.4044664"><ele>1667.0</ele><time>2026-04-15T14:40:52.942Z</time></trkpt><trkpt lat="45.7744555" lon="7.4044209"><ele>1666.2857142857142</ele><time>2026-04-15T14:40:55.944Z</time></trkpt><trkpt lat="45.7743863" lon="7.4043476"><ele>1665.5714285714287</ele><time>2026-04-15T14:40:58.949Z</time></trkpt><trkpt lat="45.7743415" lon="7.404282"><ele>1664.8571428571427</ele><time>2026-04-15T14:41:01.941Z</time></trkpt><trkpt lat="45.7743064" lon="7.4042032"><ele>1664.142857142857</ele><time>2026-04-15T14:41:04.945Z</time></trkpt><trkpt lat="45.7742759" lon="7.4040959"><ele>1663.4285714285713</ele><time>2026-04-15T14:41:08.944Z</time></trkpt><trkpt lat="45.7742376" lon="7.4040022"><ele>1662.7142857142856</ele><time>2026-04-15T14:41:11.945Z</time></trkpt><trkpt lat="45.7741947" lon="7.4039235"><ele>1662.0</ele><time>2026-04-15T14:41:15.021Z</time></trkpt><trkpt lat="45.7741499" lon="7.4038445"><ele>1657.142857142857</ele><time>2026-04-15T14:41:17.948Z</time></trkpt><trkpt lat="45.7740932" lon="7.4037946"><ele>1652.2857142857142</ele><time>2026-04-15T14:41:21.029Z</time></trkpt><trkpt lat="45.7740372" lon="7.4037449"><ele>1647.4285714285716</ele><time>2026-04-15T14:41:23.945Z</time></trkpt><trkpt lat="45.773972" lon="7.4036859"><ele>1642.5714285714284</ele><time>2026-04-15T14:41:26.948Z</time></trkpt><trkpt lat="45.7739095" lon="7.4036379"><ele>1637.7142857142858</ele><time>2026-04-15T14:41:29.945Z</time></trkpt><trkpt lat="45.7738386" lon="7.40359"><ele>1632.857142857143</ele><time>2026-04-15T14:41:32.945Z</time></trkpt><trkpt lat="45.7737797" lon="7.4035196"><ele>1628.0</ele><time>2026-04-15T14:41:34.938Z</time></trkpt><trkpt lat="45.7737215" lon="7.4034649"><ele>1628.0000000000002</ele><time>2026-04-15T14:41:36.941Z</time></trkpt><trkpt lat="45.7736555" lon="7.4034249"><ele>1628.0</ele><time>2026-04-15T14:41:38.946Z</time></trkpt><trkpt lat="45.7735835" lon="7.4034184"><ele>1628.0</ele><time>2026-04-15T14:41:41.95Z</time></trkpt><trkpt lat="45.7735207" lon="7.4034007"><ele>1628.0</ele><time>2026-04-15T14:41:44.956Z</time></trkpt><trkpt lat="45.773445" lon="7.4033809"><ele>1628.0</ele><time>2026-04-15T14:41:47.951Z</time></trkpt><trkpt lat="45.77337" lon="7.4033397"><ele>1628.0000000000002</ele><time>2026-04-15T14:41:51.944Z</time></trkpt><trkpt lat="45.7733205" lon="7.4032824"><ele>1628.0</ele><time>2026-04-15T14:41:54.942Z</time></trkpt><trkpt lat="45.7732593" lon="7.403241"><ele>1630.0000000000002</ele><time>2026-04-15T14:41:57.941Z</time></trkpt><trkpt lat="45.7731974" lon="7.4032175"><ele>1632.0</ele><time>2026-04-15T14:42:00.94Z</time></trkpt><trkpt lat="45.7731235" lon="7.4031855"><ele>1634.0</ele><time>2026-04-15T14:42:04.944Z</time></trkpt><trkpt lat="45.7730561" lon="7.403147"><ele>1636.0</ele><time>2026-04-15T14:42:08.95Z</time></trkpt><trkpt lat="45.7729906" lon="7.4030998"><ele>1638.0</ele><time>2026-04-15T14:42:12.945Z</time></trkpt><trkpt lat="45.7729276" lon="7.4030329"><ele>1640.0000000000002</ele><time>2026-04-15T14:42:15.945Z</time></trkpt><trkpt lat="45.7728706" lon="7.4029478"><ele>1642.0</ele><time>2026-04-15T14:42:18.947Z</time></trkpt><trkpt lat="45.7728156" lon="7.4028737"><ele>1638.1428571428573</ele><time>2026-04-15T14:42:21.943Z</time></trkpt><trkpt lat="45.7727663" lon="7.4028174"><ele>1634.2857142857142</ele><time>2026-04-15T14:42:24.949Z</time></trkpt><trkpt lat="45.7727171" lon="7.402759"><ele>1630.4285714285716</ele><time>2026-04-15T14:42:27.947Z</time></trkpt><trkpt lat="45.7726522" lon="7.4027106"><ele>1626.5714285714287</ele><time>2026-04-15T14:42:30.945Z</time></trkpt><trkpt lat="45.7725861" lon="7.4026943"><ele>1622.7142857142858</ele><time>2026-04-15T14:42:33.943Z</time></trkpt><trkpt lat="45.7725013" lon="7.4026876"><ele>1618.857142857143</ele><time>2026-04-15T14:42:37.949Z</time></trkpt><trkpt lat="45.7724308" lon="7.4026742"><ele>1615.0</ele><time>2026-04-15T14:42:40.941Z</time></trkpt><trkpt lat="45.772361" lon="7.4026421"><ele>1615.0</ele><time>2026-04-15T14:42:43.941Z</time></trkpt><trkpt lat="45.7722927" lon="7.4025998"><ele>1615.0</ele><time>2026-04-15T14:42:46.945Z</time></trkpt><trkpt lat="45.7722266" lon="7.402564"><ele>1615.0</ele><time>2026-04-15T14:42:49.946Z</time></trkpt><trkpt lat="45.7721532" lon="7.4025398"><ele>1615.0</ele><time>2026-04-15T14:42:52.944Z</time></trkpt><trkpt lat="45.772083" lon="7.4025409"><ele>1615.0</ele><time>2026-04-15T14:42:55.943Z</time></trkpt><trkpt lat="45.772014" lon="7.4025683"><ele>1615.0</ele><time>2026-04-15T14:42:58.942Z</time></trkpt><trkpt lat="45.7719396" lon="7.4025905"><ele>1615.0</ele><time>2026-04-15T14:43:01.943Z</time></trkpt><trkpt lat="45.7718566" lon="7.4026038"><ele>1614.5000000000002</ele><time>2026-04-15T14:43:04.945Z</time></trkpt><trkpt lat="45.7717624" lon="7.4026195"><ele>1614.0</ele><time>2026-04-15T14:43:07.945Z</time></trkpt><trkpt lat="45.7716927" lon="7.4026231"><ele>1613.5</ele><time>2026-04-15T14:43:09.948Z</time></trkpt><trkpt lat="45.7716295" lon="7.4026223"><ele>1613.0</ele><time>2026-04-15T14:43:22.947Z</time></trkpt><trkpt lat="45.7715705" lon="7.4025885"><ele>1612.5000000000002</ele><time>2026-04-15T14:43:26.944Z</time></trkpt><trkpt lat="45.7714845" lon="7.4025713"><ele>1612.0</ele><time>2026-04-15T14:43:29.944Z</time></trkpt><trkpt lat="45.7713974" lon="7.4025754"><ele>1612.0000000000002</ele><time>2026-04-15T14:43:32.948Z</time></trkpt><trkpt lat="45.7713147" lon="7.4026079"><ele>1612.0</ele><time>2026-04-15T14:43:35.945Z</time></trkpt><trkpt lat="45.7712572" lon="7.4026523"><ele>1612.0</ele><time>2026-04-15T14:43:37.945Z</time></trkpt><trkpt lat="45.7711833" lon="7.4027163"><ele>1612.0</ele><time>2026-04-15T14:43:40.95Z</time></trkpt><trkpt lat="45.7711233" lon="7.4027473"><ele>1612.0000000000002</ele><time>2026-04-15T14:43:42.947Z</time></trkpt><trkpt lat="45.7710582" lon="7.4027594"><ele>1612.0</ele><time>2026-04-15T14:43:44.949Z</time></trkpt><trkpt lat="45.7709778" lon="7.4028004"><ele>1610.8333333333335</ele><time>2026-04-15T14:43:47.945Z</time></trkpt><trkpt lat="45.7709161" lon="7.4028501"><ele>1609.6666666666667</ele><time>2026-04-15T14:43:50.952Z</time></trkpt><trkpt lat="45.770867" lon="7.4029269"><ele>1608.5</ele><time>2026-04-15T14:43:53.952Z</time></trkpt><trkpt lat="45.7708139" lon="7.4030312"><ele>1607.3333333333335</ele><time>2026-04-15T14:43:56.948Z</time></trkpt><trkpt lat="45.7707755" lon="7.4031085"><ele>1606.1666666666667</ele><time>2026-04-15T14:43:58.946Z</time></trkpt><trkpt lat="45.7707227" lon="7.4032228"><ele>1605.0</ele><time>2026-04-15T14:44:01.945Z</time></trkpt><trkpt lat="45.7706903" lon="7.4033132"><ele>1605.0</ele><time>2026-04-15T14:44:03.946Z</time></trkpt><trkpt lat="45.7706585" lon="7.4033962"><ele>1605.0</ele><time>2026-04-15T14:44:05.948Z</time></trkpt><trkpt lat="45.7706279" lon="7.40348"><ele>1605.0</ele><time>2026-04-15T14:44:07.95Z</time></trkpt><trkpt lat="45.7705986" lon="7.403571"><ele>1605.0</ele><time>2026-04-15T14:44:09.948Z</time></trkpt><trkpt lat="45.7705638" lon="7.4036542"><ele>1605.0</ele><time>2026-04-15T14:44:11.944Z</time></trkpt><trkpt lat="45.7705201" lon="7.4037704"><ele>1605.0</ele><time>2026-04-15T14:44:14.943Z</time></trkpt><trkpt lat="45.7705021" lon="7.4038615"><ele>1605.0</ele><time>2026-04-15T14:44:16.949Z</time></trkpt><trkpt lat="45.7704813" lon="7.4039601"><ele>1608.1666666666667</ele><time>2026-04-15T14:44:18.941Z</time></trkpt><trkpt lat="45.7704625" lon="7.4040679"><ele>1611.3333333333335</ele><time>2026-04-15T14:44:20.945Z</time></trkpt><trkpt lat="45.7704321" lon="7.4041582"><ele>1614.5</ele><time>2026-04-15T14:44:22.943Z</time></trkpt><trkpt lat="45.770375" lon="7.4042246"><ele>1617.6666666666667</ele><time>2026-04-15T14:44:25.946Z</time></trkpt><trkpt lat="45.7703188" lon="7.4043065"><ele>1620.8333333333335</ele><time>2026-04-15T14:44:28.947Z</time></trkpt><trkpt lat="45.7702742" lon="7.4044026"><ele>1624.0</ele><time>2026-04-15T14:44:31.942Z</time></trkpt><trkpt lat="45.7702314" lon="7.4044978"><ele>1621.8333333333335</ele><time>2026-04-15T14:44:34.946Z</time></trkpt><trkpt lat="45.770187" lon="7.4045763"><ele>1619.6666666666667</ele><time>2026-04-15T14:44:37.946Z</time></trkpt><trkpt lat="45.7701315" lon="7.4046485"><ele>1617.5</ele><time>2026-04-15T14:44:40.95Z</time></trkpt><trkpt lat="45.7700775" lon="7.4047296"><ele>1615.3333333333335</ele><time>2026-04-15T14:44:43.944Z</time></trkpt><trkpt lat="45.7699896" lon="7.404731"><ele>1613.1666666666667</ele><time>2026-04-15T14:44:47.947Z</time></trkpt><trkpt lat="45.7699014" lon="7.4046969"><ele>1611.0</ele><time>2026-04-15T14:44:50.95Z</time></trkpt><trkpt lat="45.769824" lon="7.4046864"><ele>1611.0</ele><time>2026-04-15T14:44:53.945Z</time></trkpt><trkpt lat="45.7697455" lon="7.4047309"><ele>1611.0</ele><time>2026-04-15T14:44:56.945Z</time></trkpt><trkpt lat="45.7696738" lon="7.4047725"><ele>1611.0</ele><time>2026-04-15T14:44:59.946Z</time></trkpt><trkpt lat="45.7695997" lon="7.4048044"><ele>1611.0</ele><time>2026-04-15T14:45:02.947Z</time></trkpt><trkpt lat="45.7695204" lon="7.4048102"><ele>1611.0</ele><time>2026-04-15T14:45:05.946Z</time></trkpt><trkpt lat="45.769451" lon="7.4047984"><ele>1611.0</ele><time>2026-04-15T14:45:08.945Z</time></trkpt><trkpt lat="45.7693686" lon="7.4048069"><ele>1606.0</ele><time>2026-04-15T14:45:11.946Z</time></trkpt><trkpt lat="45.7692805" lon="7.4048279"><ele>1601.0</ele><time>2026-04-15T14:45:14.946Z</time></trkpt><trkpt lat="45.7691904" lon="7.4048383"><ele>1596.0</ele><time>2026-04-15T14:45:17.945Z</time></trkpt><trkpt lat="45.7691033" lon="7.4048582"><ele>1591.0</ele><time>2026-04-15T14:45:20.943Z</time></trkpt><trkpt lat="45.7690283" lon="7.4049156"><ele>1586.0</ele><time>2026-04-15T14:45:23.95Z</time></trkpt><trkpt lat="45.7689475" lon="7.4049742"><ele>1581.0</ele><time>2026-04-15T14:45:26.947Z</time></trkpt><trkpt lat="45.7688913" lon="7.4050163"><ele>1581.0</ele><time>2026-04-15T14:45:28.948Z</time></trkpt><trkpt lat="45.7687978" lon="7.4050575"><ele>1581.0</ele><time>2026-04-15T14:45:31.947Z</time></trkpt><trkpt lat="45.7687335" lon="7.4050974"><ele>1581.0</ele><time>2026-04-15T14:45:33.95Z</time></trkpt><trkpt lat="45.7686738" lon="7.4051412"><ele>1581.0</ele><time>2026-04-15T14:45:35.952Z</time></trkpt><trkpt lat="45.76862" lon="7.4051952"><ele>1581.0</ele><time>2026-04-15T14:45:37.947Z</time></trkpt><trkpt lat="45.7685296" lon="7.4052649"><ele>1581.0</ele><time>2026-04-15T14:45:40.948Z</time></trkpt><trkpt lat="45.7684712" lon="7.4053246"><ele>1580.5</ele><time>2026-04-15T14:45:42.958Z</time></trkpt><trkpt lat="45.7684054" lon="7.4053752"><ele>1580.0</ele><time>2026-04-15T14:45:44.95Z</time></trkpt><trkpt lat="45.7683318" lon="7.4054292"><ele>1579.5</ele><time>2026-04-15T14:45:46.948Z</time></trkpt><trkpt lat="45.7682713" lon="7.4054947"><ele>1579.0</ele><time>2026-04-15T14:45:48.95Z</time></trkpt><trkpt lat="45.7682087" lon="7.4055481"><ele>1578.5</ele><time>2026-04-15T14:45:50.945Z</time></trkpt><trkpt lat="45.768151" lon="7.4056096"><ele>1578.0</ele><time>2026-04-15T14:45:52.952Z</time></trkpt><trkpt lat="45.7680835" lon="7.4056881"><ele>1578.0</ele><time>2026-04-15T14:45:54.949Z</time></trkpt><trkpt lat="45.7680101" lon="7.4057542"><ele>1578.0</ele><time>2026-04-15T14:45:56.942Z</time></trkpt><trkpt lat="45.7679276" lon="7.4058109"><ele>1578.0</ele><time>2026-04-15T14:45:58.947Z</time></trkpt><trkpt lat="45.7678506" lon="7.4058842"><ele>1578.0</ele><time>2026-04-15T14:46:00.951Z</time></trkpt><trkpt lat="45.7677923" lon="7.40597"><ele>1578.0</ele><time>2026-04-15T14:46:02.952Z</time></trkpt><trkpt lat="45.7677456" lon="7.4060408"><ele>1578.0</ele><time>2026-04-15T14:46:04.946Z</time></trkpt><trkpt lat="45.7676762" lon="7.4060774"><ele>1576.3333333333333</ele><time>2026-04-15T14:46:07.944Z</time></trkpt><trkpt lat="45.7676212" lon="7.4061614"><ele>1574.6666666666665</ele><time>2026-04-15T14:46:11.948Z</time></trkpt><trkpt lat="45.7675846" lon="7.4062496"><ele>1573.0</ele><time>2026-04-15T14:46:14.947Z</time></trkpt><trkpt lat="45.7675324" lon="7.406333"><ele>1571.3333333333333</ele><time>2026-04-15T14:46:17.948Z</time></trkpt><trkpt lat="45.7674663" lon="7.4063988"><ele>1569.6666666666665</ele><time>2026-04-15T14:46:20.947Z</time></trkpt><trkpt lat="45.7673927" lon="7.4064732"><ele>1568.0</ele><time>2026-04-15T14:46:23.943Z</time></trkpt><trkpt lat="45.7673348" lon="7.4065727"><ele>1567.9999999999998</ele><time>2026-04-15T14:46:26.942Z</time></trkpt><trkpt lat="45.7673023" lon="7.4066502"><ele>1568.0</ele><time>2026-04-15T14:46:28.946Z</time></trkpt><trkpt lat="45.7672679" lon="7.4067586"><ele>1568.0</ele><time>2026-04-15T14:46:31.95Z</time></trkpt><trkpt lat="45.7671931" lon="7.4068383"><ele>1568.0</ele><time>2026-04-15T14:46:34.943Z</time></trkpt><trkpt lat="45.7671184" lon="7.4068696"><ele>1567.9999999999998</ele><time>2026-04-15T14:46:36.945Z</time></trkpt><trkpt lat="45.7670333" lon="7.4069012"><ele>1568.0</ele><time>2026-04-15T14:46:38.942Z</time></trkpt><trkpt lat="45.7669544" lon="7.4069303"><ele>1567.9999999999998</ele><time>2026-04-15T14:46:40.947Z</time></trkpt><trkpt lat="45.7668759" lon="7.4069848"><ele>1568.0</ele><time>2026-04-15T14:46:42.946Z</time></trkpt><trkpt lat="45.7667964" lon="7.4070371"><ele>1568.0</ele><time>2026-04-15T14:46:44.943Z</time></trkpt><trkpt lat="45.7667188" lon="7.4070903"><ele>1568.0</ele><time>2026-04-15T14:46:46.943Z</time></trkpt><trkpt lat="45.7666322" lon="7.4071411"><ele>1567.9999999999998</ele><time>2026-04-15T14:46:48.944Z</time></trkpt><trkpt lat="45.7665442" lon="7.4071836"><ele>1568.0</ele><time>2026-04-15T14:46:50.947Z</time></trkpt><trkpt lat="45.7664566" lon="7.4072213"><ele>1567.4</ele><time>2026-04-15T14:46:52.936Z</time></trkpt><trkpt lat="45.7663827" lon="7.4072696"><ele>1566.8000000000002</ele><time>2026-04-15T14:46:54.944Z</time></trkpt><trkpt lat="45.7663026" lon="7.4073493"><ele>1566.2</ele><time>2026-04-15T14:46:56.94Z</time></trkpt><trkpt lat="45.7662285" lon="7.4074243"><ele>1565.6</ele><time>2026-04-15T14:46:58.945Z</time></trkpt><trkpt lat="45.7661522" lon="7.4075177"><ele>1565.0</ele><time>2026-04-15T14:47:00.947Z</time></trkpt><trkpt lat="45.7660797" lon="7.4076183"><ele>1563.0</ele><time>2026-04-15T14:47:02.946Z</time></trkpt><trkpt lat="45.7660114" lon="7.4077225"><ele>1561.0</ele><time>2026-04-15T14:47:04.965Z</time></trkpt><trkpt lat="45.7659475" lon="7.4078268"><ele>1559.0</ele><time>2026-04-15T14:47:06.954Z</time></trkpt><trkpt lat="45.7658975" lon="7.4079509"><ele>1557.0</ele><time>2026-04-15T14:47:08.958Z</time></trkpt><trkpt lat="45.7658401" lon="7.4080512"><ele>1555.0</ele><time>2026-04-15T14:47:10.95Z</time></trkpt><trkpt lat="45.7657874" lon="7.4081246"><ele>1555.0</ele><time>2026-04-15T14:47:12.95Z</time></trkpt><trkpt lat="45.7657336" lon="7.408179"><ele>1555.0</ele><time>2026-04-15T14:47:14.953Z</time></trkpt><trkpt lat="45.7656685" lon="7.4082552"><ele>1555.0</ele><time>2026-04-15T14:47:18.023Z</time></trkpt><trkpt lat="45.7655989" lon="7.4083403"><ele>1555.0</ele><time>2026-04-15T14:47:20.945Z</time></trkpt><trkpt lat="45.7655503" lon="7.4084017"><ele>1555.0</ele><time>2026-04-15T14:47:22.947Z</time></trkpt><trkpt lat="45.7655" lon="7.4084658"><ele>1555.0</ele><time>2026-04-15T14:47:24.948Z</time></trkpt><trkpt lat="45.7654372" lon="7.4085242"><ele>1555.0</ele><time>2026-04-15T14:47:27.026Z</time></trkpt><trkpt lat="45.7653644" lon="7.40861"><ele>1555.0</ele><time>2026-04-15T14:47:29.952Z</time></trkpt><trkpt lat="45.7653079" lon="7.4086792"><ele>1555.0</ele><time>2026-04-15T14:47:31.952Z</time></trkpt><trkpt lat="45.7652551" lon="7.4087595"><ele>1555.0</ele><time>2026-04-15T14:47:33.949Z</time></trkpt><trkpt lat="45.765206" lon="7.4088338"><ele>1555.0</ele><time>2026-04-15T14:47:35.949Z</time></trkpt><trkpt lat="45.7651643" lon="7.4089176"><ele>1555.0</ele><time>2026-04-15T14:47:38.017Z</time></trkpt><trkpt lat="45.7651135" lon="7.4089973"><ele>1555.0</ele><time>2026-04-15T14:47:39.946Z</time></trkpt><trkpt lat="45.7650694" lon="7.4090755"><ele>1555.0</ele><time>2026-04-15T14:47:41.948Z</time></trkpt><trkpt lat="45.765021" lon="7.4091541"><ele>1552.5000000000002</ele><time>2026-04-15T14:47:43.946Z</time></trkpt><trkpt lat="45.764963" lon="7.4092283"><ele>1550.0</ele><time>2026-04-15T14:47:46.032Z</time></trkpt><trkpt lat="45.7649048" lon="7.409308"><ele>1547.5</ele><time>2026-04-15T14:47:47.948Z</time></trkpt><trkpt lat="45.7648467" lon="7.4093773"><ele>1545.0</ele><time>2026-04-15T14:47:49.946Z</time></trkpt><trkpt lat="45.7647835" lon="7.4094437"><ele>1542.5000000000002</ele><time>2026-04-15T14:47:51.951Z</time></trkpt><trkpt lat="45.7647261" lon="7.4095162"><ele>1540.0</ele><time>2026-04-15T14:47:53.942Z</time></trkpt><trkpt lat="45.7646638" lon="7.4095799"><ele>1540.0</ele><time>2026-04-15T14:47:56.947Z</time></trkpt><trkpt lat="45.7645889" lon="7.4096392"><ele>1540.0</ele><time>2026-04-15T14:48:00.946Z</time></trkpt><trkpt lat="45.7645374" lon="7.4097025"><ele>1540.0</ele><time>2026-04-15T14:48:03.944Z</time></trkpt><trkpt lat="45.7644784" lon="7.4097957"><ele>1540.0</ele><time>2026-04-15T14:48:06.951Z</time></trkpt><trkpt lat="45.764425" lon="7.4098459"><ele>1540.0</ele><time>2026-04-15T14:48:08.944Z</time></trkpt><trkpt lat="45.7643656" lon="7.4098897"><ele>1540.0</ele><time>2026-04-15T14:48:10.95Z</time></trkpt><trkpt lat="45.7643024" lon="7.4099373"><ele>1540.0</ele><time>2026-04-15T14:48:12.947Z</time></trkpt><trkpt lat="45.7642194" lon="7.4099872"><ele>1540.3333333333335</ele><time>2026-04-15T14:48:15.946Z</time></trkpt><trkpt lat="45.7641412" lon="7.4100113"><ele>1540.6666666666667</ele><time>2026-04-15T14:48:18.938Z</time></trkpt><trkpt lat="45.7640644" lon="7.4100552"><ele>1541.0</ele><time>2026-04-15T14:48:21.942Z</time></trkpt><trkpt lat="45.7640056" lon="7.41013"><ele>1541.3333333333335</ele><time>2026-04-15T14:48:24.945Z</time></trkpt><trkpt lat="45.7639466" lon="7.4102198"><ele>1541.6666666666667</ele><time>2026-04-15T14:48:28.031Z</time></trkpt><trkpt lat="45.7638986" lon="7.4102968"><ele>1542.0</ele><time>2026-04-15T14:48:29.95Z</time></trkpt><trkpt lat="45.7638193" lon="7.4103677"><ele>1542.0</ele><time>2026-04-15T14:48:32.955Z</time></trkpt><trkpt lat="45.7637659" lon="7.4104317"><ele>1542.0</ele><time>2026-04-15T14:48:34.956Z</time></trkpt><trkpt lat="45.7637108" lon="7.4105415"><ele>1542.0</ele><time>2026-04-15T14:48:38.013Z</time></trkpt><trkpt lat="45.7636833" lon="7.4106227"><ele>1542.0</ele><time>2026-04-15T14:48:39.953Z</time></trkpt><trkpt lat="45.7636579" lon="7.410711"><ele>1542.0</ele><time>2026-04-15T14:48:41.943Z</time></trkpt><trkpt lat="45.7636468" lon="7.4108069"><ele>1542.0</ele><time>2026-04-15T14:48:43.933Z</time></trkpt><trkpt lat="45.7636546" lon="7.4109021"><ele>1542.0</ele><time>2026-04-15T14:48:45.943Z</time></trkpt><trkpt lat="45.7637096" lon="7.4110194"><ele>1542.5714285714287</ele><time>2026-04-15T14:48:48.938Z</time></trkpt><trkpt lat="45.7637616" lon="7.4110951"><ele>1543.142857142857</ele><time>2026-04-15T14:48:50.935Z</time></trkpt><trkpt lat="45.7638028" lon="7.4111685"><ele>1543.7142857142858</ele><time>2026-04-15T14:48:52.938Z</time></trkpt><trkpt lat="45.7638609" lon="7.4112437"><ele>1544.2857142857142</ele><time>2026-04-15T14:48:54.984Z</time></trkpt><trkpt lat="45.763907" lon="7.4113282"><ele>1544.8571428571427</ele><time>2026-04-15T14:48:56.941Z</time></trkpt><trkpt lat="45.7639265" lon="7.4114509"><ele>1545.4285714285713</ele><time>2026-04-15T14:48:59.944Z</time></trkpt><trkpt lat="45.7639275" lon="7.4115486"><ele>1546.0</ele><time>2026-04-15T14:49:01.944Z</time></trkpt><trkpt lat="45.7639225" lon="7.4116451"><ele>1546.0000000000002</ele><time>2026-04-15T14:49:03.937Z</time></trkpt><trkpt lat="45.7639266" lon="7.411744"><ele>1546.0</ele><time>2026-04-15T14:49:05.936Z</time></trkpt><trkpt lat="45.7639624" lon="7.4118534"><ele>1546.0</ele><time>2026-04-15T14:49:08.017Z</time></trkpt><trkpt lat="45.7640046" lon="7.4119648"><ele>1546.0</ele><time>2026-04-15T14:49:10.937Z</time></trkpt><trkpt lat="45.764026" lon="7.4120608"><ele>1546.0000000000002</ele><time>2026-04-15T14:49:12.938Z</time></trkpt><trkpt lat="45.7640378" lon="7.4121566"><ele>1546.0</ele><time>2026-04-15T14:49:14.933Z</time></trkpt><trkpt lat="45.7640334" lon="7.4122907"><ele>1546.3333333333335</ele><time>2026-04-15T14:49:17.934Z</time></trkpt><trkpt lat="45.7640051" lon="7.412398"><ele>1546.6666666666667</ele><time>2026-04-15T14:49:20.027Z</time></trkpt><trkpt lat="45.7639754" lon="7.4125057"><ele>1547.0</ele><time>2026-04-15T14:49:21.943Z</time></trkpt><trkpt lat="45.7639375" lon="7.4125983"><ele>1547.3333333333335</ele><time>2026-04-15T14:49:23.948Z</time></trkpt><trkpt lat="45.7638911" lon="7.4126748"><ele>1547.6666666666667</ele><time>2026-04-15T14:49:25.945Z</time></trkpt><trkpt lat="45.7638372" lon="7.412748"><ele>1548.0</ele><time>2026-04-15T14:49:27.978Z</time></trkpt><trkpt lat="45.7637859" lon="7.4128272"><ele>1548.0</ele><time>2026-04-15T14:49:29.946Z</time></trkpt><trkpt lat="45.76373" lon="7.4129298"><ele>1548.0</ele><time>2026-04-15T14:49:31.944Z</time></trkpt><trkpt lat="45.7636852" lon="7.4130056"><ele>1548.0</ele><time>2026-04-15T14:49:33.951Z</time></trkpt><trkpt lat="45.7636329" lon="7.4130732"><ele>1548.0</ele><time>2026-04-15T14:49:36.946Z</time></trkpt><trkpt lat="45.7635792" lon="7.4130183"><ele>1548.0</ele><time>2026-04-15T14:49:40.03Z</time></trkpt><trkpt lat="45.7635907" lon="7.4129266"><ele>1548.0</ele><time>2026-04-15T14:49:42.941Z</time></trkpt><trkpt lat="45.7636396" lon="7.4128155"><ele>1548.0</ele><time>2026-04-15T14:49:45.945Z</time></trkpt><trkpt lat="45.7636848" lon="7.4127403"><ele>1548.0</ele><time>2026-04-15T14:49:47.938Z</time></trkpt><trkpt lat="45.7637307" lon="7.4126613"><ele>1548.0</ele><time>2026-04-15T14:49:49.944Z</time></trkpt><trkpt lat="45.7637718" lon="7.41258"><ele>1548.0</ele><time>2026-04-15T14:49:51.94Z</time></trkpt><trkpt lat="45.7638031" lon="7.4124756"><ele>1548.0</ele><time>2026-04-15T14:49:53.947Z</time></trkpt><trkpt lat="45.7638196" lon="7.412373"><ele>1548.0</ele><time>2026-04-15T14:49:55.945Z</time></trkpt><trkpt lat="45.7638349" lon="7.412277"><ele>1548.0</ele><time>2026-04-15T14:49:57.941Z</time></trkpt><trkpt lat="45.7638225" lon="7.4121787"><ele>1548.0</ele><time>2026-04-15T14:50:00.027Z</time></trkpt><trkpt lat="45.7637626" lon="7.4121455"><ele>1548.0</ele><time>2026-04-15T14:50:02.01Z</time></trkpt><trkpt lat="45.7637096" lon="7.4122244"><ele>1548.0</ele><time>2026-04-15T14:50:04.943Z</time></trkpt><trkpt lat="45.7637077" lon="7.4123383"><ele>1548.0</ele><time>2026-04-15T14:50:07.955Z</time></trkpt><trkpt lat="45.7636495" lon="7.4124544"><ele>1548.0</ele><time>2026-04-15T14:50:10.944Z</time></trkpt><trkpt lat="45.7636036" lon="7.4125263"><ele>1548.0</ele><time>2026-04-15T14:50:12.942Z</time></trkpt><trkpt lat="45.7635401" lon="7.4125713"><ele>1543.3333333333333</ele><time>2026-04-15T14:50:14.943Z</time></trkpt><trkpt lat="45.7634739" lon="7.4126191"><ele>1538.6666666666667</ele><time>2026-04-15T14:50:16.943Z</time></trkpt><trkpt lat="45.7634096" lon="7.4126761"><ele>1534.0</ele><time>2026-04-15T14:50:18.94Z</time></trkpt><trkpt lat="45.7633617" lon="7.4127549"><ele>1529.3333333333335</ele><time>2026-04-15T14:50:20.952Z</time></trkpt><trkpt lat="45.7633137" lon="7.412856"><ele>1524.6666666666667</ele><time>2026-04-15T14:50:23.033Z</time></trkpt><trkpt lat="45.7632643" lon="7.4129411"><ele>1520.0</ele><time>2026-04-15T14:50:24.942Z</time></trkpt><trkpt lat="45.7632324" lon="7.4130324"><ele>1520.0</ele><time>2026-04-15T14:50:26.945Z</time></trkpt><trkpt lat="45.7632027" lon="7.4131236"><ele>1520.0</ele><time>2026-04-15T14:50:28.946Z</time></trkpt><trkpt lat="45.7631646" lon="7.4132116"><ele>1520.0</ele><time>2026-04-15T14:50:30.948Z</time></trkpt><trkpt lat="45.7631376" lon="7.413318"><ele>1520.0</ele><time>2026-04-15T14:50:32.943Z</time></trkpt><trkpt lat="45.7630849" lon="7.4134007"><ele>1520.0</ele><time>2026-04-15T14:50:34.945Z</time></trkpt><trkpt lat="45.7630467" lon="7.4135023"><ele>1520.0</ele><time>2026-04-15T14:50:36.941Z</time></trkpt><trkpt lat="45.7630148" lon="7.4135911"><ele>1520.0</ele><time>2026-04-15T14:50:38.946Z</time></trkpt><trkpt lat="45.762989" lon="7.4136828"><ele>1520.0</ele><time>2026-04-15T14:50:40.945Z</time></trkpt><trkpt lat="45.7629487" lon="7.4137783"><ele>1520.0</ele><time>2026-04-15T14:50:42.946Z</time></trkpt><trkpt lat="45.7628989" lon="7.4138372"><ele>1520.0</ele><time>2026-04-15T14:50:45.031Z</time></trkpt><trkpt lat="45.7628364" lon="7.41387"><ele>1520.0</ele><time>2026-04-15T14:50:46.949Z</time></trkpt><trkpt lat="45.7627728" lon="7.4139027"><ele>1520.0</ele><time>2026-04-15T14:50:48.943Z</time></trkpt><trkpt lat="45.7626894" lon="7.4139383"><ele>1520.0</ele><time>2026-04-15T14:50:50.945Z</time></trkpt><trkpt lat="45.7626193" lon="7.4140035"><ele>1515.5</ele><time>2026-04-15T14:50:52.946Z</time></trkpt><trkpt lat="45.7625629" lon="7.4140975"><ele>1511.0</ele><time>2026-04-15T14:50:54.95Z</time></trkpt><trkpt lat="45.7625238" lon="7.4141816"><ele>1506.5</ele><time>2026-04-15T14:50:57.027Z</time></trkpt><trkpt lat="45.7624849" lon="7.4142712"><ele>1502.0</ele><time>2026-04-15T14:50:58.941Z</time></trkpt><trkpt lat="45.7624401" lon="7.4143756"><ele>1497.5</ele><time>2026-04-15T14:51:00.944Z</time></trkpt><trkpt lat="45.7623922" lon="7.4144797"><ele>1493.0</ele><time>2026-04-15T14:51:02.942Z</time></trkpt><trkpt lat="45.7623307" lon="7.4145504"><ele>1493.0</ele><time>2026-04-15T14:51:04.94Z</time></trkpt><trkpt lat="45.7622626" lon="7.4146488"><ele>1493.0</ele><time>2026-04-15T14:51:06.942Z</time></trkpt><trkpt lat="45.7622068" lon="7.4147264"><ele>1493.0</ele><time>2026-04-15T14:51:08.943Z</time></trkpt><trkpt lat="45.762152" lon="7.4148063"><ele>1493.0</ele><time>2026-04-15T14:51:10.942Z</time></trkpt><trkpt lat="45.7620974" lon="7.4149009"><ele>1493.0</ele><time>2026-04-15T14:51:12.948Z</time></trkpt><trkpt lat="45.7620519" lon="7.4149855"><ele>1493.0</ele><time>2026-04-15T14:51:14.947Z</time></trkpt><trkpt lat="45.762024" lon="7.4150812"><ele>1496.0</ele><time>2026-04-15T14:51:16.943Z</time></trkpt><trkpt lat="45.7619945" lon="7.4151915"><ele>1499.0</ele><time>2026-04-15T14:51:18.946Z</time></trkpt><trkpt lat="45.7619652" lon="7.4153078"><ele>1502.0</ele><time>2026-04-15T14:51:21.028Z</time></trkpt><trkpt lat="45.7619375" lon="7.4154258"><ele>1505.0</ele><time>2026-04-15T14:51:22.945Z</time></trkpt><trkpt lat="45.7619034" lon="7.4155429"><ele>1508.0</ele><time>2026-04-15T14:51:24.944Z</time></trkpt><trkpt lat="45.7618705" lon="7.4156681"><ele>1511.0</ele><time>2026-04-15T14:51:26.943Z</time></trkpt><trkpt lat="45.7618468" lon="7.4157899"><ele>1511.5</ele><time>2026-04-15T14:51:28.943Z</time></trkpt><trkpt lat="45.7618434" lon="7.4159115"><ele>1512.0</ele><time>2026-04-15T14:51:30.943Z</time></trkpt><trkpt lat="45.761851" lon="7.4160245"><ele>1512.5</ele><time>2026-04-15T14:51:32.944Z</time></trkpt><trkpt lat="45.7618661" lon="7.4161519"><ele>1513.0</ele><time>2026-04-15T14:51:34.947Z</time></trkpt><trkpt lat="45.7618765" lon="7.4162665"><ele>1513.5</ele><time>2026-04-15T14:51:36.948Z</time></trkpt><trkpt lat="45.7618821" lon="7.4163894"><ele>1514.0</ele><time>2026-04-15T14:51:38.948Z</time></trkpt><trkpt lat="45.761883" lon="7.4165063"><ele>1514.0</ele><time>2026-04-15T14:51:40.947Z</time></trkpt><trkpt lat="45.7618932" lon="7.4166284"><ele>1514.0</ele><time>2026-04-15T14:51:42.946Z</time></trkpt><trkpt lat="45.7618902" lon="7.416733"><ele>1514.0</ele><time>2026-04-15T14:51:44.944Z</time></trkpt><trkpt lat="45.7618855" lon="7.4168468"><ele>1514.0</ele><time>2026-04-15T14:51:46.945Z</time></trkpt><trkpt lat="45.7619015" lon="7.4169686"><ele>1514.0</ele><time>2026-04-15T14:51:48.946Z</time></trkpt><trkpt lat="45.7619287" lon="7.4170874"><ele>1514.0</ele><time>2026-04-15T14:51:50.947Z</time></trkpt><trkpt lat="45.761951" lon="7.4171769"><ele>1510.0</ele><time>2026-04-15T14:51:52.945Z</time></trkpt><trkpt lat="45.7619847" lon="7.4172806"><ele>1506.0</ele><time>2026-04-15T14:51:54.947Z</time></trkpt><trkpt lat="45.7620115" lon="7.4174133"><ele>1502.0</ele><time>2026-04-15T14:51:56.94Z</time></trkpt><trkpt lat="45.762044" lon="7.41755"><ele>1498.0</ele><time>2026-04-15T14:51:58.947Z</time></trkpt><trkpt lat="45.7620813" lon="7.4176844"><ele>1494.0</ele><time>2026-04-15T14:52:00.947Z</time></trkpt><trkpt lat="45.7621119" lon="7.4178211"><ele>1494.0</ele><time>2026-04-15T14:52:02.943Z</time></trkpt><trkpt lat="45.7621344" lon="7.4179511"><ele>1494.0</ele><time>2026-04-15T14:52:04.951Z</time></trkpt><trkpt lat="45.7621572" lon="7.4180759"><ele>1494.0</ele><time>2026-04-15T14:52:06.946Z</time></trkpt><trkpt lat="45.7621789" lon="7.4181918"><ele>1494.0</ele><time>2026-04-15T14:52:08.946Z</time></trkpt><trkpt lat="45.7622061" lon="7.4183125"><ele>1494.0</ele><time>2026-04-15T14:52:10.943Z</time></trkpt><trkpt lat="45.7622415" lon="7.418438"><ele>1491.0</ele><time>2026-04-15T14:52:12.952Z</time></trkpt><trkpt lat="45.762279" lon="7.4185679"><ele>1488.0</ele><time>2026-04-15T14:52:14.944Z</time></trkpt><trkpt lat="45.7623202" lon="7.4186752"><ele>1485.0</ele><time>2026-04-15T14:52:16.947Z</time></trkpt><trkpt lat="45.7623528" lon="7.4187854"><ele>1482.0</ele><time>2026-04-15T14:52:18.945Z</time></trkpt><trkpt lat="45.7623911" lon="7.418896"><ele>1479.0</ele><time>2026-04-15T14:52:20.95Z</time></trkpt><trkpt lat="45.7624121" lon="7.4190129"><ele>1476.0</ele><time>2026-04-15T14:52:22.947Z</time></trkpt><trkpt lat="45.7624366" lon="7.4191413"><ele>1473.1999999999998</ele><time>2026-04-15T14:52:24.942Z</time></trkpt><trkpt lat="45.7624557" lon="7.4193071"><ele>1470.3999999999999</ele><time>2026-04-15T14:52:26.945Z</time></trkpt><trkpt lat="45.7624683" lon="7.4194654"><ele>1467.6</ele><time>2026-04-15T14:52:28.956Z</time></trkpt><trkpt lat="45.7624846" lon="7.4196205"><ele>1464.8</ele><time>2026-04-15T14:52:30.946Z</time></trkpt><trkpt lat="45.7624913" lon="7.4197733"><ele>1462.0</ele><time>2026-04-15T14:52:32.949Z</time></trkpt><trkpt lat="45.7624965" lon="7.4199428"><ele>1459.8</ele><time>2026-04-15T14:52:34.942Z</time></trkpt><trkpt lat="45.7625019" lon="7.4201147"><ele>1457.6</ele><time>2026-04-15T14:52:36.945Z</time></trkpt><trkpt lat="45.7624877" lon="7.4202752"><ele>1455.3999999999999</ele><time>2026-04-15T14:52:38.949Z</time></trkpt><trkpt lat="45.7624602" lon="7.4204223"><ele>1453.1999999999998</ele><time>2026-04-15T14:52:40.943Z</time></trkpt><trkpt lat="45.7624457" lon="7.4205738"><ele>1451.0</ele><time>2026-04-15T14:52:42.947Z</time></trkpt><trkpt lat="45.7624321" lon="7.4207413"><ele>1450.8333333333335</ele><time>2026-04-15T14:52:44.944Z</time></trkpt><trkpt lat="45.7623929" lon="7.4208875"><ele>1450.6666666666667</ele><time>2026-04-15T14:52:46.944Z</time></trkpt><trkpt lat="45.7623623" lon="7.4210132"><ele>1450.5</ele><time>2026-04-15T14:52:48.95Z</time></trkpt><trkpt lat="45.762333" lon="7.4211204"><ele>1450.3333333333333</ele><time>2026-04-15T14:52:50.94Z</time></trkpt><trkpt lat="45.7623053" lon="7.4212125"><ele>1450.1666666666665</ele><time>2026-04-15T14:52:53.944Z</time></trkpt><trkpt lat="45.7622721" lon="7.4212978"><ele>1450.0</ele><time>2026-04-15T14:53:21.946Z</time></trkpt><trkpt lat="45.7622279" lon="7.4214236"><ele>1450.0</ele><time>2026-04-15T14:53:24.944Z</time></trkpt><trkpt lat="45.7622056" lon="7.4215257"><ele>1450.0</ele><time>2026-04-15T14:53:26.948Z</time></trkpt><trkpt lat="45.7621947" lon="7.42163"><ele>1450.0</ele><time>2026-04-15T14:53:28.947Z</time></trkpt><trkpt lat="45.7621565" lon="7.4217329"><ele>1450.0</ele><time>2026-04-15T14:53:30.944Z</time></trkpt><trkpt lat="45.7620979" lon="7.4218267"><ele>1450.0</ele><time>2026-04-15T14:53:32.947Z</time></trkpt><trkpt lat="45.7620497" lon="7.4219112"><ele>1450.0</ele><time>2026-04-15T14:53:34.946Z</time></trkpt><trkpt lat="45.7619885" lon="7.4220077"><ele>1450.0</ele><time>2026-04-15T14:53:36.947Z</time></trkpt><trkpt lat="45.7619274" lon="7.4220962"><ele>1450.0</ele><time>2026-04-15T14:53:38.95Z</time></trkpt><trkpt lat="45.7618788" lon="7.4222017"><ele>1450.0</ele><time>2026-04-15T14:53:40.942Z</time></trkpt><trkpt lat="45.7618409" lon="7.4223367"><ele>1450.0</ele><time>2026-04-15T14:53:42.944Z</time></trkpt><trkpt lat="45.7618033" lon="7.4224796"><ele>1450.0</ele><time>2026-04-15T14:53:44.948Z</time></trkpt><trkpt lat="45.7617678" lon="7.4226119"><ele>1445.4</ele><time>2026-04-15T14:53:46.944Z</time></trkpt><trkpt lat="45.7617304" lon="7.4227415"><ele>1440.8</ele><time>2026-04-15T14:53:48.944Z</time></trkpt><trkpt lat="45.7616942" lon="7.4228524"><ele>1436.1999999999998</ele><time>2026-04-15T14:53:50.953Z</time></trkpt><trkpt lat="45.7616531" lon="7.4229792"><ele>1431.6</ele><time>2026-04-15T14:53:52.945Z</time></trkpt><trkpt lat="45.761615" lon="7.4231101"><ele>1427.0</ele><time>2026-04-15T14:53:54.949Z</time></trkpt><trkpt lat="45.7615762" lon="7.4232337"><ele>1427.0</ele><time>2026-04-15T14:53:56.943Z</time></trkpt><trkpt lat="45.7615335" lon="7.4233537"><ele>1427.0</ele><time>2026-04-15T14:53:58.948Z</time></trkpt><trkpt lat="45.7614865" lon="7.4234931"><ele>1427.0</ele><time>2026-04-15T14:54:00.945Z</time></trkpt><trkpt lat="45.7614464" lon="7.4236409"><ele>1427.0</ele><time>2026-04-15T14:54:02.946Z</time></trkpt><trkpt lat="45.7614111" lon="7.4237914"><ele>1427.0</ele><time>2026-04-15T14:54:04.945Z</time></trkpt><trkpt lat="45.7613807" lon="7.4239237"><ele>1427.8</ele><time>2026-04-15T14:54:06.946Z</time></trkpt><trkpt lat="45.7613558" lon="7.4240606"><ele>1428.6</ele><time>2026-04-15T14:54:08.947Z</time></trkpt><trkpt lat="45.7613317" lon="7.4241966"><ele>1429.3999999999999</ele><time>2026-04-15T14:54:10.943Z</time></trkpt><trkpt lat="45.7613104" lon="7.4243296"><ele>1430.1999999999998</ele><time>2026-04-15T14:54:12.936Z</time></trkpt><trkpt lat="45.7612893" lon="7.4244662"><ele>1431.0</ele><time>2026-04-15T14:54:14.945Z</time></trkpt><trkpt lat="45.7612687" lon="7.4246115"><ele>1431.6</ele><time>2026-04-15T14:54:16.946Z</time></trkpt><trkpt lat="45.7612527" lon="7.4247524"><ele>1432.1999999999998</ele><time>2026-04-15T14:54:18.952Z</time></trkpt><trkpt lat="45.7612208" lon="7.4248815"><ele>1432.8000000000002</ele><time>2026-04-15T14:54:20.946Z</time></trkpt><trkpt lat="45.7611949" lon="7.4250146"><ele>1433.4</ele><time>2026-04-15T14:54:22.944Z</time></trkpt><trkpt lat="45.7611775" lon="7.4251443"><ele>1434.0</ele><time>2026-04-15T14:54:24.949Z</time></trkpt><trkpt lat="45.7611935" lon="7.4252749"><ele>1434.0</ele><time>2026-04-15T14:54:26.945Z</time></trkpt><trkpt lat="45.7612315" lon="7.4253805"><ele>1434.0</ele><time>2026-04-15T14:54:28.948Z</time></trkpt><trkpt lat="45.761254" lon="7.4255024"><ele>1434.0</ele><time>2026-04-15T14:54:30.944Z</time></trkpt><trkpt lat="45.7612717" lon="7.4256345"><ele>1434.0</ele><time>2026-04-15T14:54:32.965Z</time></trkpt><trkpt lat="45.7612727" lon="7.4257891"><ele>1434.0</ele><time>2026-04-15T14:54:34.948Z</time></trkpt><trkpt lat="45.761253" lon="7.4259492"><ele>1433.2</ele><time>2026-04-15T14:54:36.945Z</time></trkpt><trkpt lat="45.7612291" lon="7.426116"><ele>1432.4</ele><time>2026-04-15T14:54:38.943Z</time></trkpt><trkpt lat="45.7612072" lon="7.4262658"><ele>1431.6</ele><time>2026-04-15T14:54:40.945Z</time></trkpt><trkpt lat="45.7611901" lon="7.4264127"><ele>1430.8</ele><time>2026-04-15T14:54:42.942Z</time></trkpt><trkpt lat="45.7611873" lon="7.4265483"><ele>1430.0</ele><time>2026-04-15T14:54:44.951Z</time></trkpt><trkpt lat="45.7612076" lon="7.426679"><ele>1430.0</ele><time>2026-04-15T14:54:46.95Z</time></trkpt><trkpt lat="45.7612159" lon="7.4268162"><ele>1430.0</ele><time>2026-04-15T14:54:48.949Z</time></trkpt><trkpt lat="45.7612017" lon="7.426954"><ele>1430.0</ele><time>2026-04-15T14:54:50.948Z</time></trkpt><trkpt lat="45.7611575" lon="7.4270935"><ele>1430.0</ele><time>2026-04-15T14:54:52.949Z</time></trkpt><trkpt lat="45.7610804" lon="7.4271966"><ele>1430.0</ele><time>2026-04-15T14:54:54.948Z</time></trkpt><trkpt lat="45.7609872" lon="7.4272992"><ele>1425.0</ele><time>2026-04-15T14:54:56.95Z</time></trkpt><trkpt lat="45.7608953" lon="7.4273898"><ele>1420.0</ele><time>2026-04-15T14:54:58.954Z</time></trkpt><trkpt lat="45.7608174" lon="7.4274958"><ele>1415.0</ele><time>2026-04-15T14:55:00.952Z</time></trkpt><trkpt lat="45.7607575" lon="7.4276005"><ele>1410.0</ele><time>2026-04-15T14:55:02.949Z</time></trkpt><trkpt lat="45.7607159" lon="7.4277021"><ele>1405.0</ele><time>2026-04-15T14:55:04.948Z</time></trkpt><trkpt lat="45.7606651" lon="7.4277942"><ele>1405.0</ele><time>2026-04-15T14:55:06.946Z</time></trkpt><trkpt lat="45.7606244" lon="7.4278862"><ele>1405.0</ele><time>2026-04-15T14:55:08.947Z</time></trkpt><trkpt lat="45.7605918" lon="7.4279896"><ele>1405.0</ele><time>2026-04-15T14:55:10.952Z</time></trkpt><trkpt lat="45.7605556" lon="7.4280915"><ele>1405.0</ele><time>2026-04-15T14:55:12.948Z</time></trkpt><trkpt lat="45.7605289" lon="7.4282042"><ele>1405.0</ele><time>2026-04-15T14:55:14.95Z</time></trkpt><trkpt lat="45.7605208" lon="7.4283279"><ele>1405.0</ele><time>2026-04-15T14:55:16.949Z</time></trkpt><trkpt lat="45.7605111" lon="7.4284753"><ele>1405.1666666666665</ele><time>2026-04-15T14:55:18.948Z</time></trkpt><trkpt lat="45.7604956" lon="7.4286121"><ele>1405.3333333333333</ele><time>2026-04-15T14:55:20.947Z</time></trkpt><trkpt lat="45.7604779" lon="7.4287438"><ele>1405.5</ele><time>2026-04-15T14:55:22.95Z</time></trkpt><trkpt lat="45.7604674" lon="7.4288638"><ele>1405.6666666666667</ele><time>2026-04-15T14:55:24.947Z</time></trkpt><trkpt lat="45.760463" lon="7.4289809"><ele>1405.8333333333335</ele><time>2026-04-15T14:55:26.946Z</time></trkpt><trkpt lat="45.7604374" lon="7.4291036"><ele>1406.0</ele><time>2026-04-15T14:55:28.947Z</time></trkpt><trkpt lat="45.7604153" lon="7.4292256"><ele>1406.0</ele><time>2026-04-15T14:55:30.949Z</time></trkpt><trkpt lat="45.7603837" lon="7.4293488"><ele>1406.0</ele><time>2026-04-15T14:55:32.943Z</time></trkpt><trkpt lat="45.7603376" lon="7.4294858"><ele>1406.0</ele><time>2026-04-15T14:55:34.942Z</time></trkpt><trkpt lat="45.760295" lon="7.42964"><ele>1406.0</ele><time>2026-04-15T14:55:36.948Z</time></trkpt><trkpt lat="45.760261" lon="7.4298087"><ele>1406.0</ele><time>2026-04-15T14:55:38.946Z</time></trkpt><trkpt lat="45.7602577" lon="7.4299839"><ele>1405.857142857143</ele><time>2026-04-15T14:55:40.953Z</time></trkpt><trkpt lat="45.7602585" lon="7.4300743"><ele>1405.7142857142858</ele><time>2026-04-15T14:55:41.944Z</time></trkpt><trkpt lat="45.7602597" lon="7.4301692"><ele>1405.5714285714284</ele><time>2026-04-15T14:55:42.944Z</time></trkpt><trkpt lat="45.7602591" lon="7.4302638"><ele>1405.4285714285716</ele><time>2026-04-15T14:55:43.977Z</time></trkpt><trkpt lat="45.7602584" lon="7.4303581"><ele>1405.2857142857144</ele><time>2026-04-15T14:55:44.945Z</time></trkpt><trkpt lat="45.760253" lon="7.4304568"><ele>1405.142857142857</ele><time>2026-04-15T14:55:45.948Z</time></trkpt><trkpt lat="45.760242" lon="7.4306267"><ele>1405.0</ele><time>2026-04-15T14:55:47.947Z</time></trkpt><trkpt lat="45.7602355" lon="7.4307522"><ele>1405.0</ele><time>2026-04-15T14:55:49.943Z</time></trkpt><trkpt lat="45.7602208" lon="7.4308492"><ele>1405.0</ele><time>2026-04-15T14:55:51.949Z</time></trkpt><trkpt lat="45.7602079" lon="7.4309474"><ele>1405.0</ele><time>2026-04-15T14:55:54.941Z</time></trkpt><trkpt lat="45.7601861" lon="7.4310732"><ele>1405.0</ele><time>2026-04-15T14:55:57.946Z</time></trkpt><trkpt lat="45.7601539" lon="7.4311732"><ele>1405.0</ele><time>2026-04-15T14:56:00.951Z</time></trkpt><trkpt lat="45.7601341" lon="7.4312871"><ele>1405.0</ele><time>2026-04-15T14:56:03.952Z</time></trkpt><trkpt lat="45.7601161" lon="7.4313736"><ele>1401.8333333333333</ele><time>2026-04-15T14:56:05.948Z</time></trkpt><trkpt lat="45.7601021" lon="7.4314657"><ele>1398.6666666666665</ele><time>2026-04-15T14:56:07.949Z</time></trkpt><trkpt lat="45.760075" lon="7.4315662"><ele>1395.5</ele><time>2026-04-15T14:56:09.943Z</time></trkpt><trkpt lat="45.7600644" lon="7.4317037"><ele>1392.3333333333333</ele><time>2026-04-15T14:56:11.951Z</time></trkpt><trkpt lat="45.7600687" lon="7.4318221"><ele>1389.1666666666667</ele><time>2026-04-15T14:56:13.944Z</time></trkpt><trkpt lat="45.7600862" lon="7.4319448"><ele>1386.0</ele><time>2026-04-15T14:56:15.944Z</time></trkpt><trkpt lat="45.7600843" lon="7.432042"><ele>1385.8</ele><time>2026-04-15T14:56:17.947Z</time></trkpt><trkpt lat="45.7600833" lon="7.4321484"><ele>1385.6</ele><time>2026-04-15T14:56:19.948Z</time></trkpt><trkpt lat="45.7600671" lon="7.4322751"><ele>1385.4</ele><time>2026-04-15T14:56:21.947Z</time></trkpt><trkpt lat="45.7600497" lon="7.4324172"><ele>1385.2</ele><time>2026-04-15T14:56:23.951Z</time></trkpt><trkpt lat="45.7600053" lon="7.4325653"><ele>1385.0</ele><time>2026-04-15T14:56:25.954Z</time></trkpt><trkpt lat="45.7599795" lon="7.4326945"><ele>1385.0</ele><time>2026-04-15T14:56:27.946Z</time></trkpt><trkpt lat="45.7599735" lon="7.4328131"><ele>1385.0</ele><time>2026-04-15T14:56:29.959Z</time></trkpt><trkpt lat="45.7599696" lon="7.4329061"><ele>1385.0</ele><time>2026-04-15T14:56:31.94Z</time></trkpt><trkpt lat="45.760011" lon="7.4330206"><ele>1385.0</ele><time>2026-04-15T14:56:34.936Z</time></trkpt><trkpt lat="45.760064" lon="7.4331103"><ele>1385.0</ele><time>2026-04-15T14:56:37.943Z</time></trkpt><trkpt lat="45.7600781" lon="7.433232"><ele>1385.0</ele><time>2026-04-15T14:56:40.955Z</time></trkpt><trkpt lat="45.7600883" lon="7.4333363"><ele>1385.4285714285713</ele><time>2026-04-15T14:56:43.946Z</time></trkpt><trkpt lat="45.7600733" lon="7.4334361"><ele>1385.857142857143</ele><time>2026-04-15T14:56:46.948Z</time></trkpt><trkpt lat="45.7600367" lon="7.4335219"><ele>1386.2857142857142</ele><time>2026-04-15T14:56:49.953Z</time></trkpt><trkpt lat="45.7599877" lon="7.4336137"><ele>1386.7142857142858</ele><time>2026-04-15T14:56:52.948Z</time></trkpt><trkpt lat="45.7599396" lon="7.4337204"><ele>1387.142857142857</ele><time>2026-04-15T14:56:55.948Z</time></trkpt><trkpt lat="45.7598979" lon="7.4337918"><ele>1387.5714285714287</ele><time>2026-04-15T14:56:57.949Z</time></trkpt><trkpt lat="45.7598605" lon="7.43387"><ele>1388.0</ele><time>2026-04-15T14:56:59.949Z</time></trkpt><trkpt lat="45.7598316" lon="7.4339524"><ele>1388.1666666666667</ele><time>2026-04-15T14:57:01.945Z</time></trkpt><trkpt lat="45.759813" lon="7.4340395"><ele>1388.3333333333335</ele><time>2026-04-15T14:57:03.952Z</time></trkpt><trkpt lat="45.7598106" lon="7.4341601"><ele>1388.5</ele><time>2026-04-15T14:57:06.947Z</time></trkpt><trkpt lat="45.7597972" lon="7.4342874"><ele>1388.6666666666667</ele><time>2026-04-15T14:57:09.947Z</time></trkpt><trkpt lat="45.7597972" lon="7.4344039"><ele>1388.8333333333333</ele><time>2026-04-15T14:57:12.95Z</time></trkpt><trkpt lat="45.7597901" lon="7.43454"><ele>1389.0</ele><time>2026-04-15T14:57:15.946Z</time></trkpt><trkpt lat="45.7597807" lon="7.4346744"><ele>1389.0</ele><time>2026-04-15T14:57:18.948Z</time></trkpt><trkpt lat="45.759766" lon="7.4347633"><ele>1389.0</ele><time>2026-04-15T14:57:20.948Z</time></trkpt><trkpt lat="45.7597399" lon="7.4348787"><ele>1389.0</ele><time>2026-04-15T14:57:23.946Z</time></trkpt><trkpt lat="45.7597045" lon="7.4349699"><ele>1389.0</ele><time>2026-04-15T14:57:26.948Z</time></trkpt><trkpt lat="45.7596719" lon="7.4350758"><ele>1389.0</ele><time>2026-04-15T14:57:29.943Z</time></trkpt><trkpt lat="45.7596319" lon="7.4351803"><ele>1389.0</ele><time>2026-04-15T14:57:32.943Z</time></trkpt><trkpt lat="45.7595966" lon="7.4352753"><ele>1389.0</ele><time>2026-04-15T14:57:34.946Z</time></trkpt><trkpt lat="45.7595596" lon="7.4353783"><ele>1389.0</ele><time>2026-04-15T14:57:36.945Z</time></trkpt><trkpt lat="45.7595479" lon="7.4355057"><ele>1389.0</ele><time>2026-04-15T14:57:38.944Z</time></trkpt><trkpt lat="45.7595418" lon="7.4356484"><ele>1389.0</ele><time>2026-04-15T14:57:40.949Z</time></trkpt><trkpt lat="45.7595332" lon="7.4357865"><ele>1389.0</ele><time>2026-04-15T14:57:42.945Z</time></trkpt><trkpt lat="45.7595171" lon="7.4359364"><ele>1388.8000000000002</ele><time>2026-04-15T14:57:44.948Z</time></trkpt><trkpt lat="45.7595122" lon="7.4361038"><ele>1388.6000000000001</ele><time>2026-04-15T14:57:46.951Z</time></trkpt><trkpt lat="45.7595084" lon="7.4362889"><ele>1388.4</ele><time>2026-04-15T14:57:48.952Z</time></trkpt><trkpt lat="45.7595173" lon="7.4363786"><ele>1388.2</ele><time>2026-04-15T14:57:49.949Z</time></trkpt><trkpt lat="45.7595314" lon="7.4364688"><ele>1388.0</ele><time>2026-04-15T14:57:50.943Z</time></trkpt><trkpt lat="45.7595799" lon="7.4366375"><ele>1387.0</ele><time>2026-04-15T14:57:52.952Z</time></trkpt><trkpt lat="45.7596104" lon="7.4367265"><ele>1386.0</ele><time>2026-04-15T14:57:53.95Z</time></trkpt><trkpt lat="45.7596359" lon="7.4368243"><ele>1385.0</ele><time>2026-04-15T14:57:54.949Z</time></trkpt><trkpt lat="45.7596549" lon="7.4369206"><ele>1384.0</ele><time>2026-04-15T14:57:55.941Z</time></trkpt><trkpt lat="45.7596658" lon="7.4370235"><ele>1383.0</ele><time>2026-04-15T14:57:56.951Z</time></trkpt><trkpt lat="45.7596729" lon="7.4371237"><ele>1382.0</ele><time>2026-04-15T14:57:57.948Z</time></trkpt><trkpt lat="45.7596829" lon="7.4372218"><ele>1381.0</ele><time>2026-04-15T14:57:58.949Z</time></trkpt><trkpt lat="45.7596948" lon="7.4373117"><ele>1380.2857142857144</ele><time>2026-04-15T14:57:59.948Z</time></trkpt><trkpt lat="45.7597065" lon="7.4374034"><ele>1379.5714285714284</ele><time>2026-04-15T14:58:00.95Z</time></trkpt><trkpt lat="45.7597084" lon="7.4374954"><ele>1378.857142857143</ele><time>2026-04-15T14:58:01.948Z</time></trkpt><trkpt lat="45.7596992" lon="7.4375851"><ele>1378.1428571428573</ele><time>2026-04-15T14:58:02.944Z</time></trkpt><trkpt lat="45.7596966" lon="7.4376817"><ele>1377.4285714285716</ele><time>2026-04-15T14:58:03.954Z</time></trkpt><trkpt lat="45.759694" lon="7.4377765"><ele>1376.7142857142858</ele><time>2026-04-15T14:58:04.946Z</time></trkpt><trkpt lat="45.7596932" lon="7.4378786"><ele>1376.0</ele><time>2026-04-15T14:58:05.951Z</time></trkpt><trkpt lat="45.7596938" lon="7.4379802"><ele>1376.0</ele><time>2026-04-15T14:58:06.945Z</time></trkpt><trkpt lat="45.7596844" lon="7.4380757"><ele>1376.0</ele><time>2026-04-15T14:58:07.946Z</time></trkpt><trkpt lat="45.7596561" lon="7.4381667"><ele>1376.0</ele><time>2026-04-15T14:58:08.943Z</time></trkpt><trkpt lat="45.7595685" lon="7.4382856"><ele>1376.0</ele><time>2026-04-15T14:58:10.946Z</time></trkpt><trkpt lat="45.7594693" lon="7.4383415"><ele>1376.0</ele><time>2026-04-15T14:58:12.944Z</time></trkpt><trkpt lat="45.7593829" lon="7.4383812"><ele>1374.6666666666667</ele><time>2026-04-15T14:58:14.943Z</time></trkpt><trkpt lat="45.7593078" lon="7.4384283"><ele>1373.3333333333335</ele><time>2026-04-15T14:58:16.945Z</time></trkpt><trkpt lat="45.759228" lon="7.4383996"><ele>1372.0</ele><time>2026-04-15T14:58:19.944Z</time></trkpt><trkpt lat="45.7591661" lon="7.4383187"><ele>1370.6666666666667</ele><time>2026-04-15T14:58:21.948Z</time></trkpt><trkpt lat="45.7591066" lon="7.4382418"><ele>1369.3333333333333</ele><time>2026-04-15T14:58:23.943Z</time></trkpt><trkpt lat="45.7590416" lon="7.4381626"><ele>1368.0</ele><time>2026-04-15T14:58:25.95Z</time></trkpt><trkpt lat="45.7589863" lon="7.438072"><ele>1368.0</ele><time>2026-04-15T14:58:27.941Z</time></trkpt><trkpt lat="45.7589234" lon="7.438003"><ele>1368.0</ele><time>2026-04-15T14:58:29.945Z</time></trkpt><trkpt lat="45.7588487" lon="7.4379354"><ele>1368.0</ele><time>2026-04-15T14:58:32.951Z</time></trkpt><trkpt lat="45.7587761" lon="7.4378868"><ele>1368.0</ele><time>2026-04-15T14:58:35.944Z</time></trkpt><trkpt lat="45.7587114" lon="7.4379269"><ele>1368.0</ele><time>2026-04-15T14:58:38.946Z</time></trkpt><trkpt lat="45.7586584" lon="7.4379916"><ele>1368.0</ele><time>2026-04-15T14:58:41.949Z</time></trkpt><trkpt lat="45.7586161" lon="7.4380601"><ele>1368.0</ele><time>2026-04-15T14:58:43.945Z</time></trkpt><trkpt lat="45.758568" lon="7.4381285"><ele>1368.0</ele><time>2026-04-15T14:58:45.947Z</time></trkpt><trkpt lat="45.7585119" lon="7.4381764"><ele>1368.0</ele><time>2026-04-15T14:58:47.945Z</time></trkpt><trkpt lat="45.7584368" lon="7.4382305"><ele>1368.0</ele><time>2026-04-15T14:58:50.948Z</time></trkpt><trkpt lat="45.7583509" lon="7.4382012"><ele>1368.0</ele><time>2026-04-15T14:58:53.944Z</time></trkpt><trkpt lat="45.7582919" lon="7.4381374"><ele>1368.0</ele><time>2026-04-15T14:58:56.945Z</time></trkpt><trkpt lat="45.7582905" lon="7.4380247"><ele>1366.7142857142856</ele><time>2026-04-15T14:59:00.945Z</time></trkpt><trkpt lat="45.7582949" lon="7.4379342"><ele>1365.4285714285713</ele><time>2026-04-15T14:59:04.947Z</time></trkpt><trkpt lat="45.7582332" lon="7.4378824"><ele>1364.142857142857</ele><time>2026-04-15T14:59:08.94Z</time></trkpt><trkpt lat="45.7581683" lon="7.4378978"><ele>1362.8571428571427</ele><time>2026-04-15T14:59:15.948Z</time></trkpt><trkpt lat="45.7581135" lon="7.4379668"><ele>1361.5714285714284</ele><time>2026-04-15T14:59:20.945Z</time></trkpt><trkpt lat="45.7580769" lon="7.4380547"><ele>1360.2857142857142</ele><time>2026-04-15T14:59:25.943Z</time></trkpt><trkpt lat="45.7580167" lon="7.4380918"><ele>1359.0</ele><time>2026-04-15T14:59:30.947Z</time></trkpt><trkpt lat="45.7579681" lon="7.4380221"><ele>1359.0</ele><time>2026-04-15T14:59:35.949Z</time></trkpt><trkpt lat="45.7579078" lon="7.4379898"><ele>1359.0</ele><time>2026-04-15T14:59:38.94Z</time></trkpt><trkpt lat="45.7578704" lon="7.4380688"><ele>1359.0</ele><time>2026-04-15T14:59:42.942Z</time></trkpt><trkpt lat="45.7578437" lon="7.4381819"><ele>1359.0</ele><time>2026-04-15T14:59:46.945Z</time></trkpt><trkpt lat="45.7578066" lon="7.4382696"><ele>1359.0</ele><time>2026-04-15T14:59:49.946Z</time></trkpt><trkpt lat="45.7577854" lon="7.4383698"><ele>1359.0</ele><time>2026-04-15T14:59:53.951Z</time></trkpt><trkpt lat="45.7577613" lon="7.4384882"><ele>1359.0</ele><time>2026-04-15T14:59:57.946Z</time></trkpt><trkpt lat="45.7577455" lon="7.4386005"><ele>1356.0</ele><time>2026-04-15T14:59:59.944Z</time></trkpt><trkpt lat="45.7576823" lon="7.4386548"><ele>1353.0</ele><time>2026-04-15T15:00:02.95Z</time></trkpt><trkpt lat="45.7576155" lon="7.4386187"><ele>1350.0</ele><time>2026-04-15T15:00:04.949Z</time></trkpt><trkpt lat="45.7575331" lon="7.4386337"><ele>1347.0</ele><time>2026-04-15T15:00:06.947Z</time></trkpt><trkpt lat="45.7574482" lon="7.4385993"><ele>1344.0</ele><time>2026-04-15T15:00:08.946Z</time></trkpt><trkpt lat="45.7573861" lon="7.4385288"><ele>1341.0</ele><time>2026-04-15T15:00:11.943Z</time></trkpt><trkpt lat="45.757346" lon="7.4384588"><ele>1341.0</ele><time>2026-04-15T15:00:13.947Z</time></trkpt><trkpt lat="45.7572924" lon="7.4383726"><ele>1341.0</ele><time>2026-04-15T15:00:22.948Z</time></trkpt><trkpt lat="45.7572982" lon="7.4382573"><ele>1341.0</ele><time>2026-04-15T15:00:25.952Z</time></trkpt><trkpt lat="45.7573201" lon="7.4381581"><ele>1341.0</ele><time>2026-04-15T15:00:29.944Z</time></trkpt><trkpt lat="45.7573139" lon="7.4380465"><ele>1341.0</ele><time>2026-04-15T15:00:34.944Z</time></trkpt><trkpt lat="45.7573269" lon="7.4379456"><ele>1341.0</ele><time>2026-04-15T15:00:37.952Z</time></trkpt><trkpt lat="45.7573285" lon="7.4378402"><ele>1341.1666666666667</ele><time>2026-04-15T15:00:50.94Z</time></trkpt><trkpt lat="45.7572446" lon="7.4378092"><ele>1341.3333333333333</ele><time>2026-04-15T15:00:54.944Z</time></trkpt><trkpt lat="45.7571664" lon="7.437728"><ele>1341.5</ele><time>2026-04-15T15:00:56.95Z</time></trkpt><trkpt lat="45.7570908" lon="7.4376324"><ele>1341.6666666666665</ele><time>2026-04-15T15:00:58.946Z</time></trkpt><trkpt lat="45.7570247" lon="7.4375645"><ele>1341.8333333333333</ele><time>2026-04-15T15:01:01.945Z</time></trkpt><trkpt lat="45.7569633" lon="7.4375309"><ele>1342.0</ele><time>2026-04-15T15:01:04.946Z</time></trkpt><trkpt lat="45.7569031" lon="7.4374862"><ele>1338.3333333333333</ele><time>2026-04-15T15:01:07.949Z</time></trkpt><trkpt lat="45.7568482" lon="7.4373981"><ele>1334.6666666666665</ele><time>2026-04-15T15:01:10.945Z</time></trkpt><trkpt lat="45.7568088" lon="7.4372877"><ele>1331.0</ele><time>2026-04-15T15:01:12.948Z</time></trkpt><trkpt lat="45.7567618" lon="7.4372142"><ele>1327.3333333333333</ele><time>2026-04-15T15:01:14.948Z</time></trkpt><trkpt lat="45.7566852" lon="7.4371514"><ele>1323.6666666666667</ele><time>2026-04-15T15:01:17.954Z</time></trkpt><trkpt lat="45.7566326" lon="7.437081"><ele>1320.0</ele><time>2026-04-15T15:01:20.949Z</time></trkpt><trkpt lat="45.7565785" lon="7.4370015"><ele>1320.0</ele><time>2026-04-15T15:01:23.941Z</time></trkpt><trkpt lat="45.7565652" lon="7.4368927"><ele>1320.0</ele><time>2026-04-15T15:01:26.949Z</time></trkpt><trkpt lat="45.7565679" lon="7.4367914"><ele>1320.0</ele><time>2026-04-15T15:01:30.949Z</time></trkpt><trkpt lat="45.7565279" lon="7.4366842"><ele>1320.0</ele><time>2026-04-15T15:01:39.943Z</time></trkpt><trkpt lat="45.7564991" lon="7.4365765"><ele>1320.0</ele><time>2026-04-15T15:01:42.947Z</time></trkpt><trkpt lat="45.7564983" lon="7.4364379"><ele>1320.0</ele><time>2026-04-15T15:01:45.948Z</time></trkpt><trkpt lat="45.7565158" lon="7.4363275"><ele>1319.5714285714287</ele><time>2026-04-15T15:01:48.948Z</time></trkpt><trkpt lat="45.7565215" lon="7.4362263"><ele>1319.142857142857</ele><time>2026-04-15T15:01:51.944Z</time></trkpt><trkpt lat="45.7565136" lon="7.436101"><ele>1318.7142857142858</ele><time>2026-04-15T15:01:54.945Z</time></trkpt><trkpt lat="45.7565283" lon="7.4359905"><ele>1318.2857142857142</ele><time>2026-04-15T15:01:57.948Z</time></trkpt><trkpt lat="45.7565463" lon="7.4358968"><ele>1317.857142857143</ele><time>2026-04-15T15:01:59.948Z</time></trkpt><trkpt lat="45.7565549" lon="7.4358074"><ele>1317.4285714285716</ele><time>2026-04-15T15:02:02.948Z</time></trkpt><trkpt lat="45.7564832" lon="7.4358181"><ele>1317.0</ele><time>2026-04-15T15:02:12.943Z</time></trkpt><trkpt lat="45.7564264" lon="7.4358765"><ele>1317.0</ele><time>2026-04-15T15:02:15.94Z</time></trkpt><trkpt lat="45.7563747" lon="7.4359633"><ele>1317.0</ele><time>2026-04-15T15:02:18.947Z</time></trkpt><trkpt lat="45.7563393" lon="7.4360589"><ele>1317.0</ele><time>2026-04-15T15:02:21.944Z</time></trkpt><trkpt lat="45.7562674" lon="7.4360916"><ele>1317.0</ele><time>2026-04-15T15:02:24.945Z</time></trkpt><trkpt lat="45.7562153" lon="7.4361483"><ele>1317.0</ele><time>2026-04-15T15:02:27.946Z</time></trkpt><trkpt lat="45.7561861" lon="7.4362647"><ele>1317.0</ele><time>2026-04-15T15:02:29.945Z</time></trkpt><trkpt lat="45.7561705" lon="7.4363581"><ele>1317.0</ele><time>2026-04-15T15:02:31.944Z</time></trkpt><trkpt lat="45.7561475" lon="7.4364784"><ele>1317.0</ele><time>2026-04-15T15:02:36.005Z</time></trkpt><trkpt lat="45.7561191" lon="7.4365604"><ele>1317.0</ele><time>2026-04-15T15:02:38.944Z</time></trkpt><trkpt lat="45.7560884" lon="7.4364745"><ele>1317.0</ele><time>2026-04-15T15:02:46.95Z</time></trkpt><trkpt lat="45.7560465" lon="7.4363537"><ele>1317.0</ele><time>2026-04-15T15:02:52.942Z</time></trkpt><trkpt lat="45.7560259" lon="7.4362506"><ele>1317.0</ele><time>2026-04-15T15:02:55.944Z</time></trkpt><trkpt lat="45.7560382" lon="7.4361589"><ele>1317.0</ele><time>2026-04-15T15:03:10.948Z</time></trkpt><trkpt lat="45.7560102" lon="7.4360467"><ele>1317.0</ele><time>2026-04-15T15:04:31.951Z</time></trkpt><trkpt lat="45.7559362" lon="7.4360085"><ele>1310.7142857142858</ele><time>2026-04-15T15:04:36.951Z</time></trkpt><trkpt lat="45.7558847" lon="7.4359383"><ele>1304.4285714285713</ele><time>2026-04-15T15:04:39.947Z</time></trkpt><trkpt lat="45.7558879" lon="7.4358396"><ele>1298.142857142857</ele><time>2026-04-15T15:04:41.947Z</time></trkpt><trkpt lat="45.7558719" lon="7.4357445"><ele>1291.857142857143</ele><time>2026-04-15T15:04:44.945Z</time></trkpt><trkpt lat="45.7558022" lon="7.4357084"><ele>1285.5714285714287</ele><time>2026-04-15T15:04:46.944Z</time></trkpt><trkpt lat="45.7557338" lon="7.4356706"><ele>1279.2857142857142</ele><time>2026-04-15T15:04:48.941Z</time></trkpt><trkpt lat="45.7556683" lon="7.4355859"><ele>1273.0</ele><time>2026-04-15T15:04:51.946Z</time></trkpt><trkpt lat="45.7556334" lon="7.4355093"><ele>1272.1666666666665</ele><time>2026-04-15T15:04:55.947Z</time></trkpt><trkpt lat="45.7555924" lon="7.4353982"><ele>1271.3333333333333</ele><time>2026-04-15T15:05:01.946Z</time></trkpt><trkpt lat="45.7555833" lon="7.4352948"><ele>1270.5</ele><time>2026-04-15T15:05:04.945Z</time></trkpt><trkpt lat="45.7555888" lon="7.4352009"><ele>1269.6666666666667</ele><time>2026-04-15T15:05:07.948Z</time></trkpt><trkpt lat="45.7555659" lon="7.435112"><ele>1268.8333333333335</ele><time>2026-04-15T15:05:16.944Z</time></trkpt><trkpt lat="45.7555369" lon="7.4352167"><ele>1268.0</ele><time>2026-04-15T15:05:20.029Z</time></trkpt><trkpt lat="45.7554646" lon="7.4351623"><ele>1268.0</ele><time>2026-04-15T15:05:24.943Z</time></trkpt><trkpt lat="45.755467" lon="7.4350514"><ele>1268.0</ele><time>2026-04-15T15:05:27.004Z</time></trkpt><trkpt lat="45.7554678" lon="7.4349213"><ele>1268.0</ele><time>2026-04-15T15:05:28.953Z</time></trkpt><trkpt lat="45.7554644" lon="7.4347692"><ele>1268.0</ele><time>2026-04-15T15:05:30.956Z</time></trkpt><trkpt lat="45.7554563" lon="7.4345901"><ele>1268.0</ele><time>2026-04-15T15:05:32.958Z</time></trkpt><trkpt lat="45.755444" lon="7.4344983"><ele>1267.3333333333335</ele><time>2026-04-15T15:05:33.96Z</time></trkpt><trkpt lat="45.7554176" lon="7.4343369"><ele>1266.6666666666667</ele><time>2026-04-15T15:05:35.953Z</time></trkpt><trkpt lat="45.7554062" lon="7.434199"><ele>1266.0</ele><time>2026-04-15T15:05:37.958Z</time></trkpt><trkpt lat="45.7554296" lon="7.4340658"><ele>1265.3333333333333</ele><time>2026-04-15T15:05:39.954Z</time></trkpt><trkpt lat="45.7554448" lon="7.4339735"><ele>1264.6666666666665</ele><time>2026-04-15T15:05:40.957Z</time></trkpt><trkpt lat="45.7554622" lon="7.4338842"><ele>1264.0</ele><time>2026-04-15T15:05:41.953Z</time></trkpt><trkpt lat="45.7555045" lon="7.4337128"><ele>1262.6666666666665</ele><time>2026-04-15T15:05:43.945Z</time></trkpt><trkpt lat="45.7555313" lon="7.4336255"><ele>1261.3333333333333</ele><time>2026-04-15T15:05:44.967Z</time></trkpt><trkpt lat="45.7555683" lon="7.4335358"><ele>1260.0</ele><time>2026-04-15T15:05:45.954Z</time></trkpt><trkpt lat="45.755605" lon="7.4334581"><ele>1258.6666666666667</ele><time>2026-04-15T15:05:47.024Z</time></trkpt><trkpt lat="45.7556707" lon="7.4333455"><ele>1257.3333333333335</ele><time>2026-04-15T15:05:48.94Z</time></trkpt><trkpt lat="45.7557041" lon="7.4332442"><ele>1256.0</ele><time>2026-04-15T15:05:50.94Z</time></trkpt><trkpt lat="45.7557305" lon="7.433147"><ele>1256.0</ele><time>2026-04-15T15:05:53.014Z</time></trkpt><trkpt lat="45.7557534" lon="7.4330541"><ele>1256.0</ele><time>2026-04-15T15:05:54.946Z</time></trkpt><trkpt lat="45.7557755" lon="7.4329608"><ele>1256.0</ele><time>2026-04-15T15:05:57.013Z</time></trkpt><trkpt lat="45.7558101" lon="7.4328656"><ele>1256.0</ele><time>2026-04-15T15:05:58.948Z</time></trkpt><trkpt lat="45.7558245" lon="7.4327455"><ele>1256.0</ele><time>2026-04-15T15:06:00.969Z</time></trkpt><trkpt lat="45.755835" lon="7.4326246"><ele>1256.0</ele><time>2026-04-15T15:06:02.995Z</time></trkpt><trkpt lat="45.7558613" lon="7.43251"><ele>1255.3333333333335</ele><time>2026-04-15T15:06:04.936Z</time></trkpt><trkpt lat="45.7558521" lon="7.4323914"><ele>1254.6666666666667</ele><time>2026-04-15T15:06:06.95Z</time></trkpt><trkpt lat="45.7558593" lon="7.4322682"><ele>1254.0</ele><time>2026-04-15T15:06:08.942Z</time></trkpt><trkpt lat="45.7558691" lon="7.4321324"><ele>1253.3333333333333</ele><time>2026-04-15T15:06:10.94Z</time></trkpt><trkpt lat="45.7558794" lon="7.4320035"><ele>1252.6666666666665</ele><time>2026-04-15T15:06:12.943Z</time></trkpt><trkpt lat="45.7558901" lon="7.431895"><ele>1252.0</ele><time>2026-04-15T15:06:14.944Z</time></trkpt><trkpt lat="45.755884" lon="7.4317766"><ele>1251.4</ele><time>2026-04-15T15:06:16.944Z</time></trkpt><trkpt lat="45.7558597" lon="7.4316824"><ele>1250.8000000000002</ele><time>2026-04-15T15:06:18.942Z</time></trkpt><trkpt lat="45.7558216" lon="7.4315751"><ele>1250.2</ele><time>2026-04-15T15:06:20.938Z</time></trkpt><trkpt lat="45.7557801" lon="7.4314591"><ele>1249.6000000000001</ele><time>2026-04-15T15:06:22.951Z</time></trkpt><trkpt lat="45.7557183" lon="7.4313315"><ele>1249.0</ele><time>2026-04-15T15:06:24.95Z</time></trkpt><trkpt lat="45.7556488" lon="7.4312019"><ele>1248.8</ele><time>2026-04-15T15:06:27.031Z</time></trkpt><trkpt lat="45.7555791" lon="7.4310831"><ele>1248.6000000000001</ele><time>2026-04-15T15:06:28.949Z</time></trkpt><trkpt lat="45.755514" lon="7.4310014"><ele>1248.4</ele><time>2026-04-15T15:06:30.955Z</time></trkpt><trkpt lat="45.7554507" lon="7.430892"><ele>1248.2</ele><time>2026-04-15T15:06:32.941Z</time></trkpt><trkpt lat="45.7554238" lon="7.4307701"><ele>1248.0</ele><time>2026-04-15T15:06:35.032Z</time></trkpt><trkpt lat="45.7554243" lon="7.4306133"><ele>1246.6666666666667</ele><time>2026-04-15T15:06:37.027Z</time></trkpt><trkpt lat="45.7554318" lon="7.4304206"><ele>1245.3333333333333</ele><time>2026-04-15T15:06:38.963Z</time></trkpt><trkpt lat="45.755424" lon="7.4303122"><ele>1244.0</ele><time>2026-04-15T15:06:39.959Z</time></trkpt><trkpt lat="45.7554214" lon="7.430213"><ele>1242.6666666666665</ele><time>2026-04-15T15:06:40.965Z</time></trkpt><trkpt lat="45.7554187" lon="7.4301173"><ele>1241.3333333333333</ele><time>2026-04-15T15:06:41.959Z</time></trkpt><trkpt lat="45.7554209" lon="7.4300049"><ele>1240.0</ele><time>2026-04-15T15:06:43.025Z</time></trkpt><trkpt lat="45.7554238" lon="7.429886"><ele>1240.0</ele><time>2026-04-15T15:06:43.96Z</time></trkpt><trkpt lat="45.755425" lon="7.4297781"><ele>1240.0</ele><time>2026-04-15T15:06:44.964Z</time></trkpt><trkpt lat="45.7554354" lon="7.4296838"><ele>1240.0</ele><time>2026-04-15T15:06:46.028Z</time></trkpt><trkpt lat="45.7554381" lon="7.429588"><ele>1240.0</ele><time>2026-04-15T15:06:47.029Z</time></trkpt><trkpt lat="45.7554425" lon="7.4294917"><ele>1240.0</ele><time>2026-04-15T15:06:48.038Z</time></trkpt><trkpt lat="45.755452" lon="7.4293298"><ele>1240.0</ele><time>2026-04-15T15:06:49.956Z</time></trkpt><trkpt lat="45.7553883" lon="7.4292026"><ele>1238.4</ele><time>2026-04-15T15:06:52.029Z</time></trkpt><trkpt lat="45.7552971" lon="7.4291969"><ele>1236.8</ele><time>2026-04-15T15:06:53.961Z</time></trkpt><trkpt lat="45.7552263" lon="7.4293019"><ele>1235.2</ele><time>2026-04-15T15:06:56.025Z</time></trkpt><trkpt lat="45.7551954" lon="7.4294295"><ele>1233.6</ele><time>2026-04-15T15:06:58.031Z</time></trkpt><trkpt lat="45.7551977" lon="7.4295682"><ele>1232.0</ele><time>2026-04-15T15:07:00.026Z</time></trkpt><trkpt lat="45.7551868" lon="7.4296882"><ele>1227.8333333333335</ele><time>2026-04-15T15:07:02.036Z</time></trkpt><trkpt lat="45.7551612" lon="7.429813"><ele>1223.6666666666667</ele><time>2026-04-15T15:07:03.951Z</time></trkpt><trkpt lat="45.7551262" lon="7.4299073"><ele>1219.5</ele><time>2026-04-15T15:07:06.033Z</time></trkpt><trkpt lat="45.7550703" lon="7.4299765"><ele>1215.3333333333333</ele><time>2026-04-15T15:07:08.026Z</time></trkpt><trkpt lat="45.755011" lon="7.4299069"><ele>1211.1666666666665</ele><time>2026-04-15T15:07:09.949Z</time></trkpt><trkpt lat="45.7549999" lon="7.4297868"><ele>1207.0</ele><time>2026-04-15T15:07:11.952Z</time></trkpt><trkpt lat="45.7549993" lon="7.4296403"><ele>1205.6666666666665</ele><time>2026-04-15T15:07:13.956Z</time></trkpt><trkpt lat="45.754998" lon="7.4294673"><ele>1204.3333333333333</ele><time>2026-04-15T15:07:15.983Z</time></trkpt><trkpt lat="45.7549972" lon="7.4293725"><ele>1203.0</ele><time>2026-04-15T15:07:16.949Z</time></trkpt><trkpt lat="45.7549998" lon="7.4292741"><ele>1201.6666666666667</ele><time>2026-04-15T15:07:18.028Z</time></trkpt><trkpt lat="45.7550079" lon="7.429182"><ele>1200.3333333333335</ele><time>2026-04-15T15:07:18.955Z</time></trkpt><trkpt lat="45.7550134" lon="7.4290809"><ele>1199.0</ele><time>2026-04-15T15:07:19.952Z</time></trkpt><trkpt lat="45.7550181" lon="7.4289851"><ele>1199.0</ele><time>2026-04-15T15:07:20.951Z</time></trkpt><trkpt lat="45.7550236" lon="7.4288928"><ele>1199.0</ele><time>2026-04-15T15:07:21.953Z</time></trkpt><trkpt lat="45.7550318" lon="7.4288015"><ele>1199.0</ele><time>2026-04-15T15:07:22.954Z</time></trkpt><trkpt lat="45.7550606" lon="7.4286349"><ele>1199.0</ele><time>2026-04-15T15:07:24.954Z</time></trkpt><trkpt lat="45.7551202" lon="7.4284837"><ele>1199.0</ele><time>2026-04-15T15:07:27.03Z</time></trkpt><trkpt lat="45.7551454" lon="7.4283993"><ele>1199.0</ele><time>2026-04-15T15:07:28.03Z</time></trkpt><trkpt lat="45.7551724" lon="7.4282977"><ele>1199.3333333333335</ele><time>2026-04-15T15:07:28.943Z</time></trkpt><trkpt lat="45.7551945" lon="7.4281896"><ele>1199.6666666666667</ele><time>2026-04-15T15:07:29.951Z</time></trkpt><trkpt lat="45.7552133" lon="7.4280894"><ele>1200.0</ele><time>2026-04-15T15:07:30.947Z</time></trkpt><trkpt lat="45.755238" lon="7.427934"><ele>1200.3333333333333</ele><time>2026-04-15T15:07:33.029Z</time></trkpt><trkpt lat="45.7552807" lon="7.4278172"><ele>1200.6666666666665</ele><time>2026-04-15T15:07:34.963Z</time></trkpt><trkpt lat="45.755293" lon="7.4277082"><ele>1201.0</ele><time>2026-04-15T15:07:37.026Z</time></trkpt><trkpt lat="45.7552106" lon="7.4277045"><ele>1197.2</ele><time>2026-04-15T15:07:38.956Z</time></trkpt><trkpt lat="45.7551453" lon="7.4278232"><ele>1193.3999999999999</ele><time>2026-04-15T15:07:40.998Z</time></trkpt><trkpt lat="45.7550743" lon="7.4279616"><ele>1189.6</ele><time>2026-04-15T15:07:43.026Z</time></trkpt><trkpt lat="45.7550023" lon="7.4280935"><ele>1185.8</ele><time>2026-04-15T15:07:44.947Z</time></trkpt><trkpt lat="45.7549587" lon="7.4281804"><ele>1182.0</ele><time>2026-04-15T15:07:47.016Z</time></trkpt><trkpt lat="45.7548887" lon="7.4281286"><ele>1182.0</ele><time>2026-04-15T15:07:49.955Z</time></trkpt><trkpt lat="45.7549106" lon="7.427992"><ele>1182.0</ele><time>2026-04-15T15:07:51.953Z</time></trkpt><trkpt lat="45.7549511" lon="7.4278449"><ele>1182.0</ele><time>2026-04-15T15:07:53.954Z</time></trkpt><trkpt lat="45.7549718" lon="7.4276756"><ele>1182.0</ele><time>2026-04-15T15:07:55.953Z</time></trkpt><trkpt lat="45.7549795" lon="7.4275805"><ele>1182.0</ele><time>2026-04-15T15:07:56.949Z</time></trkpt><trkpt lat="45.7549837" lon="7.4274874"><ele>1181.2</ele><time>2026-04-15T15:07:58.029Z</time></trkpt><trkpt lat="45.7549859" lon="7.4273963"><ele>1180.4</ele><time>2026-04-15T15:07:58.96Z</time></trkpt><trkpt lat="45.7549695" lon="7.4272496"><ele>1179.6</ele><time>2026-04-15T15:08:00.954Z</time></trkpt><trkpt lat="45.7549378" lon="7.4271016"><ele>1178.8</ele><time>2026-04-15T15:08:02.956Z</time></trkpt><trkpt lat="45.7549586" lon="7.4269556"><ele>1178.0</ele><time>2026-04-15T15:08:05.024Z</time></trkpt><trkpt lat="45.7550173" lon="7.4268711"><ele>1176.8333333333335</ele><time>2026-04-15T15:08:06.958Z</time></trkpt><trkpt lat="45.7550533" lon="7.4267507"><ele>1175.6666666666667</ele><time>2026-04-15T15:08:08.96Z</time></trkpt><trkpt lat="45.7551037" lon="7.4266115"><ele>1174.5</ele><time>2026-04-15T15:08:11.024Z</time></trkpt><trkpt lat="45.7551805" lon="7.4265154"><ele>1173.3333333333333</ele><time>2026-04-15T15:08:13.027Z</time></trkpt><trkpt lat="45.7552002" lon="7.4264213"><ele>1172.1666666666665</ele><time>2026-04-15T15:08:14.962Z</time></trkpt><trkpt lat="45.7551366" lon="7.4263719"><ele>1171.0</ele><time>2026-04-15T15:08:17.027Z</time></trkpt><trkpt lat="45.7550645" lon="7.42641"><ele>1171.0</ele><time>2026-04-15T15:08:18.959Z</time></trkpt><trkpt lat="45.7549671" lon="7.4264629"><ele>1171.0</ele><time>2026-04-15T15:08:21.051Z</time></trkpt><trkpt lat="45.7549107" lon="7.426504"><ele>1171.0</ele><time>2026-04-15T15:08:22.031Z</time></trkpt><trkpt lat="45.7548547" lon="7.4265619"><ele>1171.0</ele><time>2026-04-15T15:08:23.028Z</time></trkpt><trkpt lat="45.7548076" lon="7.426628"><ele>1171.0</ele><time>2026-04-15T15:08:23.959Z</time></trkpt><trkpt lat="45.7547698" lon="7.4267056"><ele>1171.0</ele><time>2026-04-15T15:08:24.961Z</time></trkpt><trkpt lat="45.7547294" lon="7.4267927"><ele>1171.0</ele><time>2026-04-15T15:08:26.073Z</time></trkpt><trkpt lat="45.7546905" lon="7.4268835"><ele>1171.0</ele><time>2026-04-15T15:08:27.026Z</time></trkpt><trkpt lat="45.7546457" lon="7.4269707"><ele>1171.0</ele><time>2026-04-15T15:08:28.023Z</time></trkpt><trkpt lat="45.7546074" lon="7.427047"><ele>1171.0</ele><time>2026-04-15T15:08:28.951Z</time></trkpt><trkpt lat="45.7545512" lon="7.4271592"><ele>1171.0</ele><time>2026-04-15T15:08:31.059Z</time></trkpt><trkpt lat="45.7544929" lon="7.4272953"><ele>1171.0</ele><time>2026-04-15T15:08:32.951Z</time></trkpt><trkpt lat="45.7544447" lon="7.4274462"><ele>1171.0</ele><time>2026-04-15T15:08:34.954Z</time></trkpt><trkpt lat="45.7543885" lon="7.4275231"><ele>1171.0</ele><time>2026-04-15T15:08:36.952Z</time></trkpt><trkpt lat="45.7543127" lon="7.4274715"><ele>1171.0</ele><time>2026-04-15T15:08:38.955Z</time></trkpt><trkpt lat="45.7542947" lon="7.4273554"><ele>1171.0</ele><time>2026-04-15T15:08:40.962Z</time></trkpt><trkpt lat="45.7543118" lon="7.4272343"><ele>1171.0</ele><time>2026-04-15T15:08:42.962Z</time></trkpt><trkpt lat="45.7543491" lon="7.4271083"><ele>1171.0</ele><time>2026-04-15T15:08:44.955Z</time></trkpt><trkpt lat="45.7543795" lon="7.4269665"><ele>1171.0</ele><time>2026-04-15T15:08:47.029Z</time></trkpt><trkpt lat="45.7544049" lon="7.4267954"><ele>1171.0</ele><time>2026-04-15T15:08:48.96Z</time></trkpt><trkpt lat="45.754435" lon="7.426635"><ele>1171.0</ele><time>2026-04-15T15:08:50.959Z</time></trkpt><trkpt lat="45.7544729" lon="7.426457"><ele>1171.0</ele><time>2026-04-15T15:08:53.027Z</time></trkpt><trkpt lat="45.7544945" lon="7.4263625"><ele>1171.0</ele><time>2026-04-15T15:08:53.959Z</time></trkpt><trkpt lat="45.7545174" lon="7.4262728"><ele>1166.3999999999999</ele><time>2026-04-15T15:08:54.961Z</time></trkpt><trkpt lat="45.7545849" lon="7.4261181"><ele>1161.8</ele><time>2026-04-15T15:08:57.029Z</time></trkpt><trkpt lat="45.7546305" lon="7.4260466"><ele>1157.1999999999998</ele><time>2026-04-15T15:08:58.024Z</time></trkpt><trkpt lat="45.7547162" lon="7.4259281"><ele>1152.6</ele><time>2026-04-15T15:08:59.941Z</time></trkpt><trkpt lat="45.7547645" lon="7.4258083"><ele>1148.0</ele><time>2026-04-15T15:09:02.03Z</time></trkpt><trkpt lat="45.7548138" lon="7.4256964"><ele>1148.0</ele><time>2026-04-15T15:09:03.966Z</time></trkpt><trkpt lat="45.754877" lon="7.4256046"><ele>1148.0</ele><time>2026-04-15T15:09:06.029Z</time></trkpt><trkpt lat="45.7549611" lon="7.4255185"><ele>1148.0</ele><time>2026-04-15T15:09:08.025Z</time></trkpt><trkpt lat="45.7550499" lon="7.4254098"><ele>1148.0</ele><time>2026-04-15T15:09:09.942Z</time></trkpt><trkpt lat="45.7551129" lon="7.4252698"><ele>1148.0</ele><time>2026-04-15T15:09:12.025Z</time></trkpt><trkpt lat="45.7551522" lon="7.4251965"><ele>1148.7142857142858</ele><time>2026-04-15T15:09:12.942Z</time></trkpt><trkpt lat="45.7551939" lon="7.4251244"><ele>1149.4285714285716</ele><time>2026-04-15T15:09:13.949Z</time></trkpt><trkpt lat="45.7552379" lon="7.4250592"><ele>1150.142857142857</ele><time>2026-04-15T15:09:14.946Z</time></trkpt><trkpt lat="45.7552865" lon="7.424978"><ele>1150.857142857143</ele><time>2026-04-15T15:09:15.948Z</time></trkpt><trkpt lat="45.7553261" lon="7.4248985"><ele>1151.5714285714287</ele><time>2026-04-15T15:09:16.949Z</time></trkpt><trkpt lat="45.755366" lon="7.4248229"><ele>1152.2857142857142</ele><time>2026-04-15T15:09:17.94Z</time></trkpt><trkpt lat="45.7554062" lon="7.4247395"><ele>1153.0</ele><time>2026-04-15T15:09:18.957Z</time></trkpt><trkpt lat="45.7554397" lon="7.4246497"><ele>1150.5</ele><time>2026-04-15T15:09:19.95Z</time></trkpt><trkpt lat="45.7554562" lon="7.4245569"><ele>1148.0</ele><time>2026-04-15T15:09:20.971Z</time></trkpt><trkpt lat="45.7554717" lon="7.4244585"><ele>1145.5</ele><time>2026-04-15T15:09:21.953Z</time></trkpt><trkpt lat="45.7554929" lon="7.4243592"><ele>1143.0</ele><time>2026-04-15T15:09:22.945Z</time></trkpt><trkpt lat="45.7555194" lon="7.4242678"><ele>1140.5</ele><time>2026-04-15T15:09:23.946Z</time></trkpt><trkpt lat="45.7555562" lon="7.4241736"><ele>1138.0</ele><time>2026-04-15T15:09:24.949Z</time></trkpt><trkpt lat="45.7556183" lon="7.4240466"><ele>1138.0</ele><time>2026-04-15T15:09:27.015Z</time></trkpt><trkpt lat="45.7556867" lon="7.4239465"><ele>1138.0</ele><time>2026-04-15T15:09:28.945Z</time></trkpt><trkpt lat="45.7557415" lon="7.4238056"><ele>1138.0</ele><time>2026-04-15T15:09:30.947Z</time></trkpt><trkpt lat="45.7557304" lon="7.4236275"><ele>1138.0</ele><time>2026-04-15T15:09:32.943Z</time></trkpt><trkpt lat="45.7557163" lon="7.4235319"><ele>1138.0</ele><time>2026-04-15T15:09:33.943Z</time></trkpt><trkpt lat="45.7557011" lon="7.4234429"><ele>1136.5714285714287</ele><time>2026-04-15T15:09:34.947Z</time></trkpt><trkpt lat="45.7556965" lon="7.4233471"><ele>1135.142857142857</ele><time>2026-04-15T15:09:36.02Z</time></trkpt><trkpt lat="45.7556886" lon="7.4232506"><ele>1133.7142857142858</ele><time>2026-04-15T15:09:37.001Z</time></trkpt><trkpt lat="45.7556691" lon="7.423145"><ele>1132.2857142857142</ele><time>2026-04-15T15:09:38.005Z</time></trkpt><trkpt lat="45.7556478" lon="7.4230454"><ele>1130.857142857143</ele><time>2026-04-15T15:09:38.939Z</time></trkpt><trkpt lat="45.7556253" lon="7.4229568"><ele>1129.4285714285716</ele><time>2026-04-15T15:09:39.937Z</time></trkpt><trkpt lat="45.7556163" lon="7.4228537"><ele>1128.0</ele><time>2026-04-15T15:09:41.021Z</time></trkpt><trkpt lat="45.7556095" lon="7.4227421"><ele>1127.0</ele><time>2026-04-15T15:09:42.016Z</time></trkpt><trkpt lat="45.7556066" lon="7.4226354"><ele>1126.0</ele><time>2026-04-15T15:09:42.954Z</time></trkpt><trkpt lat="45.7556009" lon="7.4225286"><ele>1125.0</ele><time>2026-04-15T15:09:43.935Z</time></trkpt><trkpt lat="45.7556041" lon="7.4224096"><ele>1124.0</ele><time>2026-04-15T15:09:44.936Z</time></trkpt><trkpt lat="45.7556195" lon="7.4222895"><ele>1123.0</ele><time>2026-04-15T15:09:46.005Z</time></trkpt><trkpt lat="45.7556167" lon="7.4221733"><ele>1122.0</ele><time>2026-04-15T15:09:47.007Z</time></trkpt><trkpt lat="45.7556183" lon="7.4220573"><ele>1120.6666666666667</ele><time>2026-04-15T15:09:48.006Z</time></trkpt><trkpt lat="45.7556151" lon="7.4219438"><ele>1119.3333333333333</ele><time>2026-04-15T15:09:48.942Z</time></trkpt><trkpt lat="45.7556137" lon="7.4218338"><ele>1118.0</ele><time>2026-04-15T15:09:49.947Z</time></trkpt><trkpt lat="45.7556098" lon="7.4217318"><ele>1116.6666666666665</ele><time>2026-04-15T15:09:51.045Z</time></trkpt><trkpt lat="45.7556142" lon="7.4216178"><ele>1115.3333333333333</ele><time>2026-04-15T15:09:52.012Z</time></trkpt><trkpt lat="45.7556269" lon="7.4214907"><ele>1114.0</ele><time>2026-04-15T15:09:52.938Z</time></trkpt><trkpt lat="45.7556389" lon="7.4213576"><ele>1114.0</ele><time>2026-04-15T15:09:53.936Z</time></trkpt><trkpt lat="45.7556458" lon="7.4212432"><ele>1114.0</ele><time>2026-04-15T15:09:54.954Z</time></trkpt><trkpt lat="45.7556335" lon="7.4211476"><ele>1114.0</ele><time>2026-04-15T15:09:55.958Z</time></trkpt><trkpt lat="45.7556284" lon="7.4210552"><ele>1114.0</ele><time>2026-04-15T15:09:56.938Z</time></trkpt><trkpt lat="45.7556631" lon="7.4208834"><ele>1114.0</ele><time>2026-04-15T15:09:58.944Z</time></trkpt><trkpt lat="45.7556416" lon="7.4207288"><ele>1114.0</ele><time>2026-04-15T15:10:00.96Z</time></trkpt><trkpt lat="45.7555607" lon="7.4206176"><ele>1114.0</ele><time>2026-04-15T15:10:02.937Z</time></trkpt><trkpt lat="45.7554513" lon="7.4205386"><ele>1114.0</ele><time>2026-04-15T15:10:04.943Z</time></trkpt><trkpt lat="45.7553564" lon="7.4204747"><ele>1114.0</ele><time>2026-04-15T15:10:06.946Z</time></trkpt><trkpt lat="45.7552883" lon="7.420384"><ele>1114.0</ele><time>2026-04-15T15:10:08.94Z</time></trkpt><trkpt lat="45.7552764" lon="7.4202603"><ele>1114.0</ele><time>2026-04-15T15:10:10.941Z</time></trkpt><trkpt lat="45.7552912" lon="7.4201022"><ele>1113.8333333333333</ele><time>2026-04-15T15:10:12.946Z</time></trkpt><trkpt lat="45.7553041" lon="7.4199337"><ele>1113.6666666666665</ele><time>2026-04-15T15:10:14.94Z</time></trkpt><trkpt lat="45.7553132" lon="7.4198406"><ele>1113.5</ele><time>2026-04-15T15:10:15.943Z</time></trkpt><trkpt lat="45.7553289" lon="7.4197467"><ele>1113.3333333333333</ele><time>2026-04-15T15:10:16.944Z</time></trkpt><trkpt lat="45.7553483" lon="7.4196419"><ele>1113.1666666666667</ele><time>2026-04-15T15:10:17.945Z</time></trkpt><trkpt lat="45.7553653" lon="7.4195391"><ele>1113.0</ele><time>2026-04-15T15:10:18.943Z</time></trkpt><trkpt lat="45.7553677" lon="7.4194387"><ele>1113.0</ele><time>2026-04-15T15:10:19.943Z</time></trkpt><trkpt lat="45.7553518" lon="7.4193466"><ele>1113.0</ele><time>2026-04-15T15:10:20.945Z</time></trkpt><trkpt lat="45.7552894" lon="7.419206"><ele>1113.0</ele><time>2026-04-15T15:10:22.946Z</time></trkpt><trkpt lat="45.7552101" lon="7.4191014"><ele>1113.0</ele><time>2026-04-15T15:10:24.94Z</time></trkpt><trkpt lat="45.7551347" lon="7.4190646"><ele>1113.0</ele><time>2026-04-15T15:10:26.941Z</time></trkpt><trkpt lat="45.7550689" lon="7.4191179"><ele>1113.0</ele><time>2026-04-15T15:10:28.935Z</time></trkpt><trkpt lat="45.7550387" lon="7.4192403"><ele>1105.0</ele><time>2026-04-15T15:10:30.947Z</time></trkpt><trkpt lat="45.7550324" lon="7.4193679"><ele>1097.0</ele><time>2026-04-15T15:10:32.942Z</time></trkpt><trkpt lat="45.7550241" lon="7.4194851"><ele>1089.0</ele><time>2026-04-15T15:10:33.944Z</time></trkpt><trkpt lat="45.7549964" lon="7.4196039"><ele>1081.0</ele><time>2026-04-15T15:10:34.944Z</time></trkpt><trkpt lat="45.7549695" lon="7.4197137"><ele>1073.0</ele><time>2026-04-15T15:10:35.946Z</time></trkpt><trkpt lat="45.7549576" lon="7.4198059"><ele>1065.0</ele><time>2026-04-15T15:10:36.943Z</time></trkpt><trkpt lat="45.7549506" lon="7.4199471"><ele>1064.6</ele><time>2026-04-15T15:10:38.943Z</time></trkpt><trkpt lat="45.7549477" lon="7.4200846"><ele>1064.2</ele><time>2026-04-15T15:10:40.945Z</time></trkpt><trkpt lat="45.7549413" lon="7.4202189"><ele>1063.8</ele><time>2026-04-15T15:10:42.946Z</time></trkpt><trkpt lat="45.7549471" lon="7.420367"><ele>1063.4</ele><time>2026-04-15T15:10:44.944Z</time></trkpt><trkpt lat="45.7549754" lon="7.4205211"><ele>1063.0</ele><time>2026-04-15T15:10:46.945Z</time></trkpt><trkpt lat="45.7550055" lon="7.4206649"><ele>1063.0</ele><time>2026-04-15T15:10:48.947Z</time></trkpt><trkpt lat="45.7549467" lon="7.420707"><ele>1063.0</ele><time>2026-04-15T15:10:51.946Z</time></trkpt><trkpt lat="45.7549469" lon="7.4205893"><ele>1063.0</ele><time>2026-04-15T15:10:53.94Z</time></trkpt><trkpt lat="45.7549085" lon="7.4204832"><ele>1063.0</ele><time>2026-04-15T15:10:55.94Z</time></trkpt><trkpt lat="45.754848" lon="7.4203897"><ele>1063.0</ele><time>2026-04-15T15:10:57.946Z</time></trkpt><trkpt lat="45.7547913" lon="7.4202565"><ele>1063.0</ele><time>2026-04-15T15:10:59.943Z</time></trkpt><trkpt lat="45.754717" lon="7.4201163"><ele>1063.2857142857142</ele><time>2026-04-15T15:11:01.941Z</time></trkpt><trkpt lat="45.7546822" lon="7.4200256"><ele>1063.5714285714287</ele><time>2026-04-15T15:11:02.944Z</time></trkpt><trkpt lat="45.7546489" lon="7.4199422"><ele>1063.857142857143</ele><time>2026-04-15T15:11:03.94Z</time></trkpt><trkpt lat="45.7546261" lon="7.4198457"><ele>1064.142857142857</ele><time>2026-04-15T15:11:04.947Z</time></trkpt><trkpt lat="45.7546246" lon="7.4197462"><ele>1064.4285714285713</ele><time>2026-04-15T15:11:05.946Z</time></trkpt><trkpt lat="45.7546515" lon="7.4196293"><ele>1064.7142857142858</ele><time>2026-04-15T15:11:06.943Z</time></trkpt><trkpt lat="45.7546919" lon="7.4195247"><ele>1065.0</ele><time>2026-04-15T15:11:07.937Z</time></trkpt><trkpt lat="45.7547161" lon="7.4194323"><ele>1065.0</ele><time>2026-04-15T15:11:08.94Z</time></trkpt><trkpt lat="45.7546727" lon="7.4193172"><ele>1065.0</ele><time>2026-04-15T15:11:10.941Z</time></trkpt><trkpt lat="45.7545786" lon="7.4193695"><ele>1065.0</ele><time>2026-04-15T15:11:12.944Z</time></trkpt><trkpt lat="45.7545586" lon="7.4194595"><ele>1065.0</ele><time>2026-04-15T15:11:13.95Z</time></trkpt><trkpt lat="45.7545472" lon="7.4195716"><ele>1065.0</ele><time>2026-04-15T15:11:14.94Z</time></trkpt><trkpt lat="45.7545306" lon="7.4196713"><ele>1065.0</ele><time>2026-04-15T15:11:15.948Z</time></trkpt><trkpt lat="45.7545005" lon="7.4197803"><ele>1064.0</ele><time>2026-04-15T15:11:16.945Z</time></trkpt><trkpt lat="45.7544584" lon="7.4198783"><ele>1063.0</ele><time>2026-04-15T15:11:17.943Z</time></trkpt><trkpt lat="45.7544205" lon="7.4199974"><ele>1062.0</ele><time>2026-04-15T15:11:18.944Z</time></trkpt><trkpt lat="45.7543901" lon="7.4201219"><ele>1061.0</ele><time>2026-04-15T15:11:19.945Z</time></trkpt><trkpt lat="45.7543534" lon="7.4202505"><ele>1060.0</ele><time>2026-04-15T15:11:20.947Z</time></trkpt><trkpt lat="45.7543165" lon="7.4203694"><ele>1055.0</ele><time>2026-04-15T15:11:21.947Z</time></trkpt><trkpt lat="45.754272" lon="7.4204703"><ele>1050.0</ele><time>2026-04-15T15:11:22.947Z</time></trkpt><trkpt lat="45.7542103" lon="7.4205428"><ele>1045.0</ele><time>2026-04-15T15:11:23.947Z</time></trkpt><trkpt lat="45.7541483" lon="7.4205735"><ele>1040.0</ele><time>2026-04-15T15:11:24.943Z</time></trkpt><trkpt lat="45.7540806" lon="7.4204783"><ele>1035.0</ele><time>2026-04-15T15:11:26.943Z</time></trkpt><trkpt lat="45.7540809" lon="7.4203835"><ele>1030.0</ele><time>2026-04-15T15:11:27.945Z</time></trkpt><trkpt lat="45.7540955" lon="7.4202859"><ele>1029.4285714285716</ele><time>2026-04-15T15:11:28.945Z</time></trkpt><trkpt lat="45.7541104" lon="7.4201933"><ele>1028.857142857143</ele><time>2026-04-15T15:11:29.94Z</time></trkpt><trkpt lat="45.7541307" lon="7.4200986"><ele>1028.2857142857142</ele><time>2026-04-15T15:11:30.946Z</time></trkpt><trkpt lat="45.7541497" lon="7.4200017"><ele>1027.7142857142858</ele><time>2026-04-15T15:11:31.933Z</time></trkpt><trkpt lat="45.7541583" lon="7.419905"><ele>1027.142857142857</ele><time>2026-04-15T15:11:32.942Z</time></trkpt><trkpt lat="45.7541687" lon="7.4198084"><ele>1026.5714285714287</ele><time>2026-04-15T15:11:33.952Z</time></trkpt><trkpt lat="45.7541763" lon="7.4197178"><ele>1026.0</ele><time>2026-04-15T15:11:34.944Z</time></trkpt><trkpt lat="45.7541864" lon="7.4196204"><ele>1026.0</ele><time>2026-04-15T15:11:35.935Z</time></trkpt><trkpt lat="45.7542075" lon="7.4195345"><ele>1026.0</ele><time>2026-04-15T15:11:36.942Z</time></trkpt><trkpt lat="45.7542808" lon="7.4193821"><ele>1026.0</ele><time>2026-04-15T15:11:38.944Z</time></trkpt><trkpt lat="45.7543184" lon="7.4193052"><ele>1026.0</ele><time>2026-04-15T15:11:39.942Z</time></trkpt><trkpt lat="45.7543014" lon="7.4191383"><ele>1026.0</ele><time>2026-04-15T15:11:41.94Z</time></trkpt><trkpt lat="45.7542432" lon="7.4190844"><ele>1026.0</ele><time>2026-04-15T15:11:42.946Z</time></trkpt><trkpt lat="45.7541723" lon="7.4190809"><ele>1026.0</ele><time>2026-04-15T15:11:43.945Z</time></trkpt><trkpt lat="45.7541075" lon="7.4191242"><ele>1026.0</ele><time>2026-04-15T15:11:44.942Z</time></trkpt><trkpt lat="45.7540457" lon="7.4191911"><ele>1026.0</ele><time>2026-04-15T15:11:45.937Z</time></trkpt><trkpt lat="45.7539919" lon="7.4192713"><ele>1026.0</ele><time>2026-04-15T15:11:46.945Z</time></trkpt><trkpt lat="45.7539565" lon="7.4193736"><ele>1026.0</ele><time>2026-04-15T15:11:47.946Z</time></trkpt><trkpt lat="45.7539395" lon="7.4194736"><ele>1026.0</ele><time>2026-04-15T15:11:48.942Z</time></trkpt><trkpt lat="45.753904" lon="7.4196413"><ele>1025.6666666666667</ele><time>2026-04-15T15:11:50.95Z</time></trkpt><trkpt lat="45.7538852" lon="7.4197383"><ele>1025.3333333333333</ele><time>2026-04-15T15:11:52.944Z</time></trkpt><trkpt lat="45.7538662" lon="7.419856"><ele>1025.0</ele><time>2026-04-15T15:11:56.025Z</time></trkpt><trkpt lat="45.7538496" lon="7.4199632"><ele>1024.6666666666665</ele><time>2026-04-15T15:11:58.956Z</time></trkpt><trkpt lat="45.7538104" lon="7.4200573"><ele>1024.3333333333333</ele><time>2026-04-15T15:12:10.948Z</time></trkpt><trkpt lat="45.7537543" lon="7.4201807"><ele>1024.0</ele><time>2026-04-15T15:12:13.951Z</time></trkpt><trkpt lat="45.7536744" lon="7.4202633"><ele>1023.9999999999999</ele><time>2026-04-15T15:12:15.955Z</time></trkpt><trkpt lat="45.7535989" lon="7.4203555"><ele>1024.0</ele><time>2026-04-15T15:12:17.956Z</time></trkpt><trkpt lat="45.7535422" lon="7.4204441"><ele>1024.0</ele><time>2026-04-15T15:12:19.955Z</time></trkpt><trkpt lat="45.753528" lon="7.4205343"><ele>1024.0</ele><time>2026-04-15T15:12:21.958Z</time></trkpt><trkpt lat="45.7534966" lon="7.4204167"><ele>1023.9999999999999</ele><time>2026-04-15T15:12:25.961Z</time></trkpt><trkpt lat="45.7535332" lon="7.4203203"><ele>1024.0</ele><time>2026-04-15T15:12:27.952Z</time></trkpt><trkpt lat="45.7535686" lon="7.420225"><ele>1023.9999999999999</ele><time>2026-04-15T15:12:29.955Z</time></trkpt><trkpt lat="45.7535666" lon="7.4200931"><ele>1024.0</ele><time>2026-04-15T15:12:31.962Z</time></trkpt><trkpt lat="45.753546" lon="7.4200028"><ele>1024.0</ele><time>2026-04-15T15:12:32.954Z</time></trkpt><trkpt lat="45.7535134" lon="7.4199081"><ele>1024.0</ele><time>2026-04-15T15:12:33.955Z</time></trkpt><trkpt lat="45.7534784" lon="7.4198191"><ele>1023.9999999999999</ele><time>2026-04-15T15:12:34.955Z</time></trkpt><trkpt lat="45.7534345" lon="7.4196958"><ele>1024.0</ele><time>2026-04-15T15:12:36.956Z</time></trkpt><trkpt lat="45.7534075" lon="7.4196053"><ele>1018.5714285714286</ele><time>2026-04-15T15:12:47.954Z</time></trkpt><trkpt lat="45.7533474" lon="7.4195717"><ele>1013.1428571428571</ele><time>2026-04-15T15:12:54.954Z</time></trkpt><trkpt lat="45.7533148" lon="7.4194849"><ele>1007.7142857142857</ele><time>2026-04-15T15:13:04.951Z</time></trkpt><trkpt lat="45.753302" lon="7.4193839"><ele>1002.2857142857142</ele><time>2026-04-15T15:13:06.958Z</time></trkpt><trkpt lat="45.7532746" lon="7.4192996"><ele>996.8571428571429</ele><time>2026-04-15T15:13:10.953Z</time></trkpt><trkpt lat="45.753264" lon="7.4191896"><ele>991.4285714285713</ele><time>2026-04-15T15:13:21.954Z</time></trkpt><trkpt lat="45.7532408" lon="7.4190888"><ele>986.0</ele><time>2026-04-15T15:13:36.964Z</time></trkpt><trkpt lat="45.7532489" lon="7.4189674"><ele>986.0</ele><time>2026-04-15T15:13:41.958Z</time></trkpt><trkpt lat="45.7532565" lon="7.4188769"><ele>986.0</ele><time>2026-04-15T15:13:44.964Z</time></trkpt><trkpt lat="45.7532466" lon="7.418987"><ele>986.0</ele><time>2026-04-15T15:13:55.968Z</time></trkpt><trkpt lat="45.7532654" lon="7.419082"><ele>986.0</ele><time>2026-04-15T15:13:59.966Z</time></trkpt><trkpt lat="45.7532792" lon="7.4191844"><ele>986.0</ele><time>2026-04-15T15:14:03.965Z</time></trkpt><trkpt lat="45.7532904" lon="7.4192902"><ele>986.0</ele><time>2026-04-15T15:14:08.96Z</time></trkpt><trkpt lat="45.7532286" lon="7.4192458"><ele>986.0</ele><time>2026-04-15T15:14:14.966Z</time></trkpt><trkpt lat="45.7532091" lon="7.4191585"><ele>986.0000000000001</ele><time>2026-04-15T15:14:17.966Z</time></trkpt><trkpt lat="45.7531878" lon="7.4190331"><ele>986.0</ele><time>2026-04-15T15:14:21.024Z</time></trkpt><trkpt lat="45.7531633" lon="7.4189327"><ele>986.0</ele><time>2026-04-15T15:14:22.962Z</time></trkpt><trkpt lat="45.7531348" lon="7.4188319"><ele>986.0</ele><time>2026-04-15T15:14:25.962Z</time></trkpt><trkpt lat="45.7531134" lon="7.4187087"><ele>986.0000000000001</ele><time>2026-04-15T15:14:59.944Z</time></trkpt><trkpt lat="45.7531093" lon="7.4186114"><ele>986.0</ele><time>2026-04-15T15:15:03.945Z</time></trkpt><trkpt lat="45.753077" lon="7.4185052"><ele>986.5999999999999</ele><time>2026-04-15T15:15:06.944Z</time></trkpt><trkpt lat="45.753047" lon="7.4184103"><ele>987.1999999999999</ele><time>2026-04-15T15:15:08.949Z</time></trkpt><trkpt lat="45.7530086" lon="7.4182869"><ele>987.8000000000001</ele><time>2026-04-15T15:15:10.947Z</time></trkpt><trkpt lat="45.7529641" lon="7.4181717"><ele>988.4000000000001</ele><time>2026-04-15T15:15:12.947Z</time></trkpt><trkpt lat="45.7528982" lon="7.4180721"><ele>989.0</ele><time>2026-04-15T15:15:14.946Z</time></trkpt><trkpt lat="45.7528215" lon="7.4179706"><ele>990.1666666666667</ele><time>2026-04-15T15:15:17.018Z</time></trkpt><trkpt lat="45.7527745" lon="7.4178769"><ele>991.3333333333334</ele><time>2026-04-15T15:15:18.945Z</time></trkpt><trkpt lat="45.7527205" lon="7.4177931"><ele>992.5</ele><time>2026-04-15T15:15:20.942Z</time></trkpt><trkpt lat="45.7526662" lon="7.4177018"><ele>993.6666666666667</ele><time>2026-04-15T15:15:22.947Z</time></trkpt><trkpt lat="45.7526065" lon="7.4176054"><ele>994.8333333333334</ele><time>2026-04-15T15:15:25.029Z</time></trkpt><trkpt lat="45.7525652" lon="7.4175256"><ele>996.0</ele><time>2026-04-15T15:15:26.941Z</time></trkpt><trkpt lat="45.752535" lon="7.4174422"><ele>989.7142857142857</ele><time>2026-04-15T15:15:29.947Z</time></trkpt><trkpt lat="45.7525105" lon="7.4173419"><ele>983.4285714285713</ele><time>2026-04-15T15:15:33.943Z</time></trkpt><trkpt lat="45.7524442" lon="7.4173433"><ele>977.1428571428571</ele><time>2026-04-15T15:15:38.944Z</time></trkpt><trkpt lat="45.7523826" lon="7.4173969"><ele>970.8571428571429</ele><time>2026-04-15T15:15:42.947Z</time></trkpt><trkpt lat="45.7523408" lon="7.417475"><ele>964.5714285714286</ele><time>2026-04-15T15:15:47.017Z</time></trkpt><trkpt lat="45.7522876" lon="7.4175375"><ele>958.2857142857142</ele><time>2026-04-15T15:15:55.974Z</time></trkpt><trkpt lat="45.7522843" lon="7.4176562"><ele>952.0</ele><time>2026-04-15T15:16:15.951Z</time></trkpt><trkpt lat="45.7523137" lon="7.4177583"><ele>951.9999999999999</ele><time>2026-04-15T15:16:18.95Z</time></trkpt><trkpt lat="45.7523577" lon="7.417868"><ele>952.0</ele><time>2026-04-15T15:16:21.953Z</time></trkpt><trkpt lat="45.7524058" lon="7.4179707"><ele>952.0</ele><time>2026-04-15T15:16:24.951Z</time></trkpt><trkpt lat="45.7524444" lon="7.4180683"><ele>952.0</ele><time>2026-04-15T15:16:27.954Z</time></trkpt><trkpt lat="45.7524786" lon="7.418182"><ele>951.9999999999999</ele><time>2026-04-15T15:16:30.947Z</time></trkpt><trkpt lat="45.7525228" lon="7.4182923"><ele>952.0</ele><time>2026-04-15T15:16:33.95Z</time></trkpt><trkpt lat="45.7525473" lon="7.4183809"><ele>951.9999999999999</ele><time>2026-04-15T15:16:36.953Z</time></trkpt><trkpt lat="45.7525316" lon="7.4184902"><ele>952.0</ele><time>2026-04-15T15:16:40.944Z</time></trkpt><trkpt lat="45.7524988" lon="7.4186033"><ele>952.0</ele><time>2026-04-15T15:16:44.944Z</time></trkpt><trkpt lat="45.7524602" lon="7.4186911"><ele>952.0</ele><time>2026-04-15T15:16:47.946Z</time></trkpt><trkpt lat="45.752446" lon="7.4188011"><ele>951.9999999999999</ele><time>2026-04-15T15:16:50.947Z</time></trkpt><trkpt lat="45.752433" lon="7.4189275"><ele>952.0</ele><time>2026-04-15T15:16:53.943Z</time></trkpt><trkpt lat="45.7524388" lon="7.4190235"><ele>951.6666666666666</ele><time>2026-04-15T15:16:55.946Z</time></trkpt><trkpt lat="45.7524508" lon="7.419147"><ele>951.3333333333333</ele><time>2026-04-15T15:16:58.944Z</time></trkpt><trkpt lat="45.7524747" lon="7.4192744"><ele>951.0</ele><time>2026-04-15T15:17:01.953Z</time></trkpt><trkpt lat="45.7525149" lon="7.419393"><ele>950.6666666666667</ele><time>2026-04-15T15:17:04.947Z</time></trkpt><trkpt lat="45.7525349" lon="7.4194904"><ele>950.3333333333334</ele><time>2026-04-15T15:17:06.947Z</time></trkpt><trkpt lat="45.7525591" lon="7.4196115"><ele>950.0</ele><time>2026-04-15T15:17:09.939Z</time></trkpt><trkpt lat="45.752577" lon="7.4197337"><ele>951.0000000000001</ele><time>2026-04-15T15:17:12.942Z</time></trkpt><trkpt lat="45.7526042" lon="7.4198552"><ele>952.0</ele><time>2026-04-15T15:17:15.948Z</time></trkpt><trkpt lat="45.7526198" lon="7.4199707"><ele>953.0</ele><time>2026-04-15T15:17:18.945Z</time></trkpt><trkpt lat="45.752589" lon="7.4200909"><ele>954.0</ele><time>2026-04-15T15:17:21.942Z</time></trkpt><trkpt lat="45.7525535" lon="7.4202087"><ele>955.0000000000001</ele><time>2026-04-15T15:17:24.944Z</time></trkpt><trkpt lat="45.7525084" lon="7.4203282"><ele>956.0</ele><time>2026-04-15T15:17:27.942Z</time></trkpt><trkpt lat="45.7524787" lon="7.4204555"><ele>958.5000000000001</ele><time>2026-04-15T15:17:30.947Z</time></trkpt><trkpt lat="45.7524751" lon="7.420591"><ele>961.0</ele><time>2026-04-15T15:17:33.943Z</time></trkpt><trkpt lat="45.7524642" lon="7.4206869"><ele>963.5</ele><time>2026-04-15T15:17:35.946Z</time></trkpt><trkpt lat="45.7524372" lon="7.4207886"><ele>966.0</ele><time>2026-04-15T15:17:38.943Z</time></trkpt><trkpt lat="45.7523731" lon="7.4207849"><ele>968.5000000000001</ele><time>2026-04-15T15:17:40.942Z</time></trkpt><trkpt lat="45.7523242" lon="7.4207114"><ele>971.0</ele><time>2026-04-15T15:17:42.945Z</time></trkpt><trkpt lat="45.7522722" lon="7.4206034"><ele>971.0000000000001</ele><time>2026-04-15T15:17:45.942Z</time></trkpt><trkpt lat="45.7522132" lon="7.4205707"><ele>971.0</ele><time>2026-04-15T15:17:47.943Z</time></trkpt><trkpt lat="45.7521428" lon="7.4205855"><ele>971.0</ele><time>2026-04-15T15:17:50.029Z</time></trkpt><trkpt lat="45.7520673" lon="7.4206455"><ele>971.0</ele><time>2026-04-15T15:17:52.942Z</time></trkpt><trkpt lat="45.7520084" lon="7.4207424"><ele>971.0000000000001</ele><time>2026-04-15T15:17:55.943Z</time></trkpt><trkpt lat="45.7519995" lon="7.420833"><ele>971.0</ele><time>2026-04-15T15:17:57.945Z</time></trkpt><trkpt lat="45.7519878" lon="7.4209613"><ele>971.0000000000001</ele><time>2026-04-15T15:18:00.944Z</time></trkpt><trkpt lat="45.7519576" lon="7.4210603"><ele>971.0</ele><time>2026-04-15T15:18:03.945Z</time></trkpt><trkpt lat="45.7519485" lon="7.4211915"><ele>971.0</ele><time>2026-04-15T15:18:06.946Z</time></trkpt><trkpt lat="45.7519" lon="7.421307"><ele>971.0</ele><time>2026-04-15T15:18:09.936Z</time></trkpt><trkpt lat="45.7518815" lon="7.4214062"><ele>971.0000000000001</ele><time>2026-04-15T15:18:12.016Z</time></trkpt><trkpt lat="45.7518433" lon="7.4215207"><ele>971.0</ele><time>2026-04-15T15:18:14.945Z</time></trkpt><trkpt lat="45.7517971" lon="7.4216218"><ele>969.8333333333334</ele><time>2026-04-15T15:18:17.945Z</time></trkpt><trkpt lat="45.7517609" lon="7.4217498"><ele>968.6666666666667</ele><time>2026-04-15T15:18:20.968Z</time></trkpt><trkpt lat="45.7517377" lon="7.4218408"><ele>967.5</ele><time>2026-04-15T15:18:23.029Z</time></trkpt><trkpt lat="45.7517017" lon="7.4219355"><ele>966.3333333333333</ele><time>2026-04-15T15:18:24.943Z</time></trkpt><trkpt lat="45.7516631" lon="7.4220371"><ele>965.1666666666666</ele><time>2026-04-15T15:18:26.941Z</time></trkpt><trkpt lat="45.7516192" lon="7.4221369"><ele>964.0</ele><time>2026-04-15T15:18:28.94Z</time></trkpt><trkpt lat="45.7515773" lon="7.4222167"><ele>964.0</ele><time>2026-04-15T15:18:31.029Z</time></trkpt><trkpt lat="45.7515035" lon="7.4223066"><ele>964.0000000000001</ele><time>2026-04-15T15:18:32.948Z</time></trkpt><trkpt lat="45.7514474" lon="7.4224034"><ele>964.0000000000001</ele><time>2026-04-15T15:18:34.944Z</time></trkpt><trkpt lat="45.7513807" lon="7.4224894"><ele>964.0</ele><time>2026-04-15T15:18:36.951Z</time></trkpt><trkpt lat="45.7513176" lon="7.4225871"><ele>964.0</ele><time>2026-04-15T15:18:38.947Z</time></trkpt><trkpt lat="45.7512678" lon="7.4226851"><ele>963.9999999999999</ele><time>2026-04-15T15:18:40.94Z</time></trkpt><trkpt lat="45.7512305" lon="7.4227926"><ele>964.0</ele><time>2026-04-15T15:18:42.969Z</time></trkpt><trkpt lat="45.7512044" lon="7.422906"><ele>964.0</ele><time>2026-04-15T15:18:44.943Z</time></trkpt><trkpt lat="45.7511752" lon="7.4230248"><ele>964.0</ele><time>2026-04-15T15:18:46.942Z</time></trkpt><trkpt lat="45.7511518" lon="7.4231445"><ele>963.9999999999999</ele><time>2026-04-15T15:18:48.946Z</time></trkpt><trkpt lat="45.7511365" lon="7.4232681"><ele>964.0</ele><time>2026-04-15T15:18:50.944Z</time></trkpt><trkpt lat="45.7511138" lon="7.4234053"><ele>965.5714285714287</ele><time>2026-04-15T15:18:52.942Z</time></trkpt><trkpt lat="45.7510867" lon="7.423518"><ele>967.1428571428572</ele><time>2026-04-15T15:18:54.947Z</time></trkpt><trkpt lat="45.7510756" lon="7.4236201"><ele>968.7142857142858</ele><time>2026-04-15T15:19:16.941Z</time></trkpt><trkpt lat="45.7510609" lon="7.4237105"><ele>970.2857142857142</ele><time>2026-04-15T15:19:20.034Z</time></trkpt><trkpt lat="45.751038" lon="7.4238041"><ele>971.8571428571428</ele><time>2026-04-15T15:19:22.033Z</time></trkpt><trkpt lat="45.7510228" lon="7.4238982"><ele>973.4285714285713</ele><time>2026-04-15T15:19:23.945Z</time></trkpt><trkpt lat="45.7510169" lon="7.4240236"><ele>975.0</ele><time>2026-04-15T15:19:26.951Z</time></trkpt><trkpt lat="45.7510053" lon="7.4241158"><ele>971.4285714285713</ele><time>2026-04-15T15:19:28.95Z</time></trkpt><trkpt lat="45.7509874" lon="7.4242159"><ele>967.8571428571428</ele><time>2026-04-15T15:19:30.942Z</time></trkpt><trkpt lat="45.7509747" lon="7.4243229"><ele>964.2857142857142</ele><time>2026-04-15T15:19:32.954Z</time></trkpt><trkpt lat="45.7509596" lon="7.4244296"><ele>960.7142857142858</ele><time>2026-04-15T15:19:34.95Z</time></trkpt><trkpt lat="45.7509383" lon="7.4245395"><ele>957.1428571428572</ele><time>2026-04-15T15:19:36.953Z</time></trkpt><trkpt lat="45.7509153" lon="7.4246315"><ele>953.5714285714287</ele><time>2026-04-15T15:19:38.951Z</time></trkpt><trkpt lat="45.7508879" lon="7.4247254"><ele>950.0</ele><time>2026-04-15T15:19:40.947Z</time></trkpt><trkpt lat="45.7508793" lon="7.4248376"><ele>950.0000000000001</ele><time>2026-04-15T15:19:42.945Z</time></trkpt><trkpt lat="45.7508695" lon="7.4249402"><ele>950.0</ele><time>2026-04-15T15:19:44.943Z</time></trkpt><trkpt lat="45.7508689" lon="7.4250669"><ele>950.0</ele><time>2026-04-15T15:19:47.942Z</time></trkpt><trkpt lat="45.7508713" lon="7.4251778"><ele>950.0</ele><time>2026-04-15T15:19:50.946Z</time></trkpt><trkpt lat="45.7508727" lon="7.4253008"><ele>950.0000000000001</ele><time>2026-04-15T15:19:53.948Z</time></trkpt><trkpt lat="45.7508729" lon="7.4254213"><ele>950.0</ele><time>2026-04-15T15:19:56.947Z</time></trkpt><trkpt lat="45.7508569" lon="7.4255444"><ele>950.5000000000001</ele><time>2026-04-15T15:19:59.946Z</time></trkpt><trkpt lat="45.7508575" lon="7.4256643"><ele>951.0</ele><time>2026-04-15T15:20:02.94Z</time></trkpt><trkpt lat="45.7508682" lon="7.4257669"><ele>951.5</ele><time>2026-04-15T15:20:04.948Z</time></trkpt><trkpt lat="45.7508769" lon="7.4258649"><ele>952.0</ele><time>2026-04-15T15:20:06.948Z</time></trkpt><trkpt lat="45.7508744" lon="7.4260026"><ele>952.5000000000001</ele><time>2026-04-15T15:20:09.94Z</time></trkpt><trkpt lat="45.7508791" lon="7.4261094"><ele>953.0</ele><time>2026-04-15T15:20:12.948Z</time></trkpt><trkpt lat="45.750898" lon="7.4262085"><ele>953.5000000000001</ele><time>2026-04-15T15:20:15.949Z</time></trkpt><trkpt lat="45.7509168" lon="7.4263302"><ele>954.0</ele><time>2026-04-15T15:20:18.946Z</time></trkpt><trkpt lat="45.7509196" lon="7.4264619"><ele>954.5</ele><time>2026-04-15T15:20:21.945Z</time></trkpt><trkpt lat="45.7509263" lon="7.4265748"><ele>955.0</ele><time>2026-04-15T15:20:24.945Z</time></trkpt><trkpt lat="45.7509268" lon="7.4267061"><ele>955.5000000000001</ele><time>2026-04-15T15:20:27.941Z</time></trkpt><trkpt lat="45.7509451" lon="7.426812"><ele>956.0</ele><time>2026-04-15T15:20:29.949Z</time></trkpt><trkpt lat="45.750973" lon="7.4269004"><ele>956.0000000000001</ele><time>2026-04-15T15:20:32.026Z</time></trkpt><trkpt lat="45.7510117" lon="7.4270044"><ele>956.0</ele><time>2026-04-15T15:20:34.956Z</time></trkpt><trkpt lat="45.7510378" lon="7.4270929"><ele>956.0</ele><time>2026-04-15T15:20:36.954Z</time></trkpt><trkpt lat="45.7510471" lon="7.4271994"><ele>956.0</ele><time>2026-04-15T15:20:38.979Z</time></trkpt><trkpt lat="45.7510805" lon="7.4273268"><ele>956.0000000000001</ele><time>2026-04-15T15:20:40.952Z</time></trkpt><trkpt lat="45.7510739" lon="7.42745"><ele>956.0</ele><time>2026-04-15T15:20:42.993Z</time></trkpt><trkpt lat="45.7510688" lon="7.4275572"><ele>961.8333333333334</ele><time>2026-04-15T15:20:45.033Z</time></trkpt><trkpt lat="45.751073" lon="7.4276627"><ele>967.6666666666667</ele><time>2026-04-15T15:20:46.952Z</time></trkpt><trkpt lat="45.7510928" lon="7.4277653"><ele>973.5</ele><time>2026-04-15T15:20:48.957Z</time></trkpt><trkpt lat="45.7511024" lon="7.4278796"><ele>979.3333333333333</ele><time>2026-04-15T15:20:51.037Z</time></trkpt><trkpt lat="45.7511137" lon="7.4280123"><ele>985.1666666666666</ele><time>2026-04-15T15:20:53.948Z</time></trkpt><trkpt lat="45.7511258" lon="7.4281307"><ele>991.0</ele><time>2026-04-15T15:20:57.026Z</time></trkpt><trkpt lat="45.7511434" lon="7.4282459"><ele>990.9999999999999</ele><time>2026-04-15T15:20:59.951Z</time></trkpt><trkpt lat="45.751166" lon="7.4283625"><ele>991.0</ele><time>2026-04-15T15:21:02.97Z</time></trkpt><trkpt lat="45.7511777" lon="7.4284624"><ele>991.0</ele><time>2026-04-15T15:21:04.95Z</time></trkpt><trkpt lat="45.7511709" lon="7.4285607"><ele>991.0</ele><time>2026-04-15T15:21:06.949Z</time></trkpt><trkpt lat="45.7511706" lon="7.4286692"><ele>990.9999999999999</ele><time>2026-04-15T15:21:09.948Z</time></trkpt><trkpt lat="45.7511944" lon="7.428795"><ele>991.0</ele><time>2026-04-15T15:21:12.945Z</time></trkpt><trkpt lat="45.7512125" lon="7.428902"><ele>988.6666666666666</ele><time>2026-04-15T15:21:15.021Z</time></trkpt><trkpt lat="45.7512409" lon="7.4290016"><ele>986.3333333333333</ele><time>2026-04-15T15:21:16.951Z</time></trkpt><trkpt lat="45.7512771" lon="7.4290834"><ele>984.0</ele><time>2026-04-15T15:21:18.952Z</time></trkpt><trkpt lat="45.7513405" lon="7.4291757"><ele>981.6666666666667</ele><time>2026-04-15T15:21:21.961Z</time></trkpt><trkpt lat="45.7514096" lon="7.429257"><ele>979.3333333333334</ele><time>2026-04-15T15:21:24.946Z</time></trkpt><trkpt lat="45.7514548" lon="7.4293318"><ele>977.0</ele><time>2026-04-15T15:21:26.942Z</time></trkpt><trkpt lat="45.7514994" lon="7.4294067"><ele>977.0</ele><time>2026-04-15T15:21:28.949Z</time></trkpt><trkpt lat="45.7515455" lon="7.4294741"><ele>977.0</ele><time>2026-04-15T15:21:30.943Z</time></trkpt><trkpt lat="45.7515856" lon="7.4295716"><ele>977.0</ele><time>2026-04-15T15:21:32.943Z</time></trkpt><trkpt lat="45.7515818" lon="7.4297103"><ele>977.0</ele><time>2026-04-15T15:21:34.945Z</time></trkpt><trkpt lat="45.7515781" lon="7.4298767"><ele>977.0</ele><time>2026-04-15T15:21:37.024Z</time></trkpt><trkpt lat="45.7515768" lon="7.4300478"><ele>975.6</ele><time>2026-04-15T15:21:38.944Z</time></trkpt><trkpt lat="45.7515382" lon="7.4302039"><ele>974.2</ele><time>2026-04-15T15:21:40.984Z</time></trkpt><trkpt lat="45.7514595" lon="7.4302826"><ele>972.8</ele><time>2026-04-15T15:21:43.03Z</time></trkpt><trkpt lat="45.7513535" lon="7.4303671"><ele>971.4</ele><time>2026-04-15T15:21:45.027Z</time></trkpt><trkpt lat="45.7512613" lon="7.4304194"><ele>970.0</ele><time>2026-04-15T15:21:47.012Z</time></trkpt><trkpt lat="45.7511905" lon="7.4304614"><ele>970.0000000000001</ele><time>2026-04-15T15:21:48.945Z</time></trkpt><trkpt lat="45.7511081" lon="7.4304648"><ele>970.0</ele><time>2026-04-15T15:21:51.945Z</time></trkpt><trkpt lat="45.7510421" lon="7.4304945"><ele>970.0000000000001</ele><time>2026-04-15T15:21:55.947Z</time></trkpt><trkpt lat="45.7510436" lon="7.4305917"><ele>970.0000000000001</ele><time>2026-04-15T15:21:59.942Z</time></trkpt><trkpt lat="45.7510611" lon="7.4306893"><ele>970.0</ele><time>2026-04-15T15:22:02.941Z</time></trkpt><trkpt lat="45.7509966" lon="7.4307646"><ele>970.0000000000001</ele><time>2026-04-15T15:22:05.942Z</time></trkpt><trkpt lat="45.7509663" lon="7.4308478"><ele>970.0000000000001</ele><time>2026-04-15T15:22:25.935Z</time></trkpt><trkpt lat="45.7509555" lon="7.4309405"><ele>967.0000000000001</ele><time>2026-04-15T15:22:28.932Z</time></trkpt><trkpt lat="45.7509435" lon="7.4310731"><ele>964.0</ele><time>2026-04-15T15:22:31.943Z</time></trkpt><trkpt lat="45.7509177" lon="7.4311626"><ele>961.0000000000001</ele><time>2026-04-15T15:22:33.936Z</time></trkpt><trkpt lat="45.7508862" lon="7.4312503"><ele>958.0000000000001</ele><time>2026-04-15T15:22:35.936Z</time></trkpt><trkpt lat="45.7508582" lon="7.4313405"><ele>955.0</ele><time>2026-04-15T15:22:38.935Z</time></trkpt><trkpt lat="45.7508158" lon="7.4314159"><ele>952.0000000000001</ele><time>2026-04-15T15:22:43.94Z</time></trkpt><trkpt lat="45.7507458" lon="7.4314244"><ele>949.0000000000001</ele><time>2026-04-15T15:22:49.938Z</time></trkpt><trkpt lat="45.7506879" lon="7.4314742"><ele>948.9999999999999</ele><time>2026-04-15T15:22:53.954Z</time></trkpt><trkpt lat="45.7506184" lon="7.4314957"><ele>949.0</ele><time>2026-04-15T15:23:00.947Z</time></trkpt><trkpt lat="45.7505592" lon="7.4315399"><ele>949.0</ele><time>2026-04-15T15:23:02.951Z</time></trkpt><trkpt lat="45.7505092" lon="7.4316358"><ele>949.0</ele><time>2026-04-15T15:23:04.945Z</time></trkpt><trkpt lat="45.7504381" lon="7.43176"><ele>948.9999999999999</ele><time>2026-04-15T15:23:07.03Z</time></trkpt><trkpt lat="45.750388" lon="7.4318409"><ele>949.0</ele><time>2026-04-15T15:23:08.025Z</time></trkpt><trkpt lat="45.7503433" lon="7.4319116"><ele>949.0000000000001</ele><time>2026-04-15T15:23:08.945Z</time></trkpt><trkpt lat="45.7503053" lon="7.4319887"><ele>949.0</ele><time>2026-04-15T15:23:09.951Z</time></trkpt><trkpt lat="45.7502631" lon="7.4320591"><ele>949.0000000000001</ele><time>2026-04-15T15:23:10.951Z</time></trkpt><trkpt lat="45.7502243" lon="7.4321372"><ele>949.0000000000001</ele><time>2026-04-15T15:23:11.952Z</time></trkpt><trkpt lat="45.7501939" lon="7.4322176"><ele>949.0</ele><time>2026-04-15T15:23:12.948Z</time></trkpt><trkpt lat="45.7501604" lon="7.4323081"><ele>949.0000000000001</ele><time>2026-04-15T15:23:13.947Z</time></trkpt><trkpt lat="45.7501394" lon="7.4324029"><ele>949.0000000000001</ele><time>2026-04-15T15:23:14.958Z</time></trkpt><trkpt lat="45.7501215" lon="7.4325005"><ele>945.1666666666666</ele><time>2026-04-15T15:23:15.952Z</time></trkpt><trkpt lat="45.7501061" lon="7.4325937"><ele>941.3333333333333</ele><time>2026-04-15T15:23:17.019Z</time></trkpt><trkpt lat="45.750088" lon="7.432741"><ele>937.5</ele><time>2026-04-15T15:23:18.941Z</time></trkpt><trkpt lat="45.750072" lon="7.4328489"><ele>933.6666666666667</ele><time>2026-04-15T15:23:21.002Z</time></trkpt><trkpt lat="45.7500098" lon="7.4328941"><ele>929.8333333333334</ele><time>2026-04-15T15:23:23.026Z</time></trkpt><trkpt lat="45.7499609" lon="7.4327941"><ele>926.0</ele><time>2026-04-15T15:23:24.943Z</time></trkpt><trkpt lat="45.7499882" lon="7.4326561"><ele>926.0000000000001</ele><time>2026-04-15T15:23:27.027Z</time></trkpt><trkpt lat="45.7500166" lon="7.4324664"><ele>926.0</ele><time>2026-04-15T15:23:28.95Z</time></trkpt><trkpt lat="45.7500367" lon="7.4323664"><ele>926.0</ele><time>2026-04-15T15:23:29.948Z</time></trkpt><trkpt lat="45.7500625" lon="7.432269"><ele>926.0</ele><time>2026-04-15T15:23:30.979Z</time></trkpt><trkpt lat="45.7500888" lon="7.4321693"><ele>926.0000000000001</ele><time>2026-04-15T15:23:32.024Z</time></trkpt><trkpt lat="45.7501086" lon="7.4320564"><ele>926.0</ele><time>2026-04-15T15:23:33.029Z</time></trkpt><trkpt lat="45.7501331" lon="7.4319453"><ele>924.2857142857142</ele><time>2026-04-15T15:23:33.956Z</time></trkpt><trkpt lat="45.7501544" lon="7.431834"><ele>922.5714285714284</ele><time>2026-04-15T15:23:34.949Z</time></trkpt><trkpt lat="45.7501689" lon="7.4317347"><ele>920.8571428571429</ele><time>2026-04-15T15:23:35.956Z</time></trkpt><trkpt lat="45.7501774" lon="7.431644"><ele>919.1428571428571</ele><time>2026-04-15T15:23:37.026Z</time></trkpt><trkpt lat="45.7501826" lon="7.4315271"><ele>917.4285714285714</ele><time>2026-04-15T15:23:38.95Z</time></trkpt><trkpt lat="45.7502085" lon="7.4314344"><ele>915.7142857142858</ele><time>2026-04-15T15:23:40.951Z</time></trkpt><trkpt lat="45.750234" lon="7.4313417"><ele>914.0000000000001</ele><time>2026-04-15T15:23:42.945Z</time></trkpt><trkpt lat="45.7502492" lon="7.4312031"><ele>918.1666666666667</ele><time>2026-04-15T15:23:45.949Z</time></trkpt><trkpt lat="45.7502631" lon="7.431113"><ele>922.3333333333334</ele><time>2026-04-15T15:23:48.017Z</time></trkpt><trkpt lat="45.7502956" lon="7.4309918"><ele>926.5</ele><time>2026-04-15T15:23:50.944Z</time></trkpt><trkpt lat="45.7503274" lon="7.4308935"><ele>930.6666666666667</ele><time>2026-04-15T15:23:53.956Z</time></trkpt><trkpt lat="45.7503652" lon="7.4308056"><ele>934.8333333333334</ele><time>2026-04-15T15:23:57.026Z</time></trkpt><trkpt lat="45.750377" lon="7.4306878"><ele>939.0</ele><time>2026-04-15T15:23:59.956Z</time></trkpt><trkpt lat="45.7503702" lon="7.4305839"><ele>939.0</ele><time>2026-04-15T15:24:01.955Z</time></trkpt><trkpt lat="45.7503907" lon="7.4304857"><ele>939.0</ele><time>2026-04-15T15:24:03.94Z</time></trkpt><trkpt lat="45.750415" lon="7.4303834"><ele>939.0</ele><time>2026-04-15T15:24:05.932Z</time></trkpt><trkpt lat="45.750442" lon="7.4304735"><ele>939.0</ele><time>2026-04-15T15:24:11.935Z</time></trkpt><trkpt lat="45.7504967" lon="7.4305184"><ele>939.0</ele><time>2026-04-15T15:24:15.933Z</time></trkpt><trkpt lat="45.7505691" lon="7.4305639"><ele>939.0</ele><time>2026-04-15T15:24:18.938Z</time></trkpt><trkpt lat="45.750633" lon="7.4306249"><ele>939.0</ele><time>2026-04-15T15:24:23.934Z</time></trkpt><trkpt lat="45.7506959" lon="7.4306738"><ele>939.0</ele><time>2026-04-15T15:24:27.931Z</time></trkpt><trkpt lat="45.7507411" lon="7.4307661"><ele>939.0</ele><time>2026-04-15T15:24:33.934Z</time></trkpt><trkpt lat="45.7506595" lon="7.4307125"><ele>939.0</ele><time>2026-04-15T15:24:44.928Z</time></trkpt><trkpt lat="45.7505939" lon="7.4306592"><ele>939.0</ele><time>2026-04-15T15:25:03.93Z</time></trkpt><trkpt lat="45.7505523" lon="7.4305732"><ele>939.0</ele><time>2026-04-15T15:25:09.933Z</time></trkpt><trkpt lat="45.7505565" lon="7.430471"><ele>939.0</ele><time>2026-04-15T15:25:12.929Z</time></trkpt><trkpt lat="45.7506267" lon="7.4305119"><ele>939.0</ele><time>2026-04-15T15:25:19.932Z</time></trkpt><trkpt lat="45.750673" lon="7.4305753"><ele>939.0</ele><time>2026-04-15T15:25:22.931Z</time></trkpt></trkseg></trk></gpx>